GFSSGP_sfc_thetae_000.txt.gz
Theta_e
333 319 324 322 308 309 302 305 313 310 311 313 315 312 312 314 311 310 333 339 337 339 340 351 355 353 351 350 346 343 341 339 336 336 333 333 334 333 334 336 336 333 331 332 335 335 336 338 338
326 318 320 316 303 299 301 310 309 312 312 313 314 313 312 312 318 323 329 337 338 339 340 345 353 353 352 349 346 343 341 339 337 336 335 334 337 334 334 333 334 334 334 332 332 334 333 335 336
322 317 314 309 303 298 302 308 308 309 313 312 313 314 313 314 318 323 333 338 339 339 342 346 354 352 351 349 348 345 342 341 338 335 337 337 340 337 336 333 333 332 331 331 331 331 333 334 334
321 319 312 303 297 301 304 308 307 310 313 314 314 312 316 320 321 329 335 338 338 340 343 349 354 353 352 349 348 345 343 340 339 338 337 338 340 340 338 337 334 331 331 331 331 331 331 332 333
323 315 306 302 302 303 306 308 307 308 311 313 314 314 315 321 329 331 336 338 337 340 343 345 352 352 351 348 346 344 343 341 340 338 338 340 340 343 339 339 335 332 332 332 332 333 333 332 332
315 313 302 300 303 306 310 309 308 309 311 313 312 312 316 324 327 331 337 338 339 340 344 343 348 353 352 349 348 346 344 343 341 338 338 339 341 343 342 339 336 333 333 333 331 334 335 335 334
312 308 303 303 302 305 307 309 308 309 311 311 314 310 316 321 328 332 337 338 340 342 343 343 344 348 350 349 349 348 346 344 342 339 337 339 339 339 340 338 335 336 336 334 334 334 335 336 336
315 310 303 304 302 303 309 307 313 311 311 316 315 311 313 322 325 331 334 337 339 342 343 343 344 346 346 346 346 346 346 344 343 342 341 339 338 338 336 338 336 336 337 336 334 334 334 334 336
314 305 301 303 303 305 308 308 315 316 313 314 315 315 318 323 325 328 328 331 336 338 342 344 343 345 345 345 343 344 343 342 341 339 338 336 334 335 334 335 335 336 335 335 335 334 334 336 335
312 305 304 309 310 308 309 311 313 313 312 312 313 316 318 318 321 322 324 326 329 333 338 342 343 344 345 343 344 343 341 341 339 338 336 334 333 335 334 332 333 335 336 336 335 335 334 334 332
312 306 310 310 311 311 311 312 314 312 310 312 312 314 317 317 318 318 320 325 327 330 334 339 342 344 344 344 344 343 342 341 340 338 337 335 333 334 334 334 333 334 332 333 333 333 332 331 331
307 311 311 312 313 312 311 314 312 314 314 318 318 319 315 315 316 317 318 322 326 328 329 334 339 342 344 344 343 342 341 340 339 339 337 336 335 334 333 333 334 334 333 333 334 333 333 332 332
309 310 312 313 313 313 314 312 313 313 317 320 319 316 314 314 315 317 323 325 327 327 329 331 334 338 341 343 343 342 340 339 338 339 338 338 336 335 335 334 335 335 335 334 334 334 333 333 332
312 311 311 313 313 313 311 312 311 314 318 316 314 314 313 312 314 319 321 323 325 324 324 326 330 333 338 340 341 340 340 339 339 339 338 337 336 336 335 335 335 335 335 335 334 333 333 332 333
313 308 311 312 312 311 313 307 308 314 311 309 311 310 312 313 315 315 317 318 319 321 321 322 324 328 334 337 339 339 340 338 338 338 337 336 336 335 335 335 334 335 335 334 334 333 333 332 332
309 309 302 309 312 312 309 302 310 309 309 308 308 311 312 312 312 314 315 317 318 320 321 323 323 325 331 334 336 337 338 338 337 337 336 334 334 334 334 334 334 334 333 332 331 330 329 329 328
307 300 301 304 311 309 307 304 308 309 309 309 309 310 310 312 313 314 314 315 316 319 322 323 325 328 330 332 333 332 332 333 333 334 334 334 333 332 333 331 328 327 327 327 326 326 325 324 324
298 300 302 302 306 305 303 304 307 310 307 308 308 309 310 310 310 312 313 316 316 320 324 325 328 329 330 331 332 333 333 331 328 324 323 322 319 320 321 318 317 318 318 317 316 316 317 318 319
303 302 301 304 306 303 304 305 305 310 308 308 307 309 309 309 310 312 313 315 316 319 321 325 328 329 331 331 328 325 320 318 317 316 315 314 313 313 313 313 313 313 312 312 312 312 311 311 313
304 300 300 304 304 302 304 304 308 309 307 308 307 308 309 309 309 310 312 313 314 315 317 319 323 326 329 329 324 320 318 316 315 314 313 312 311 310 310 310 310 310 310 310 309 310 308 309 310
302 299 300 300 302 303 301 302 304 302 302 303 307 309 309 309 308 309 311 312 313 313 314 315 317 318 318 319 318 318 317 316 313 311 310 309 308 306 306 306 306 306 307 305 306 305 305 303 305
298 305 303 301 299 296 301 294 302 304 301 302 306 307 308 308 309 309 310 311 312 313 315 315 315 315 316 317 316 314 311 309 309 308 308 307 305 302 302 302 302 302 303 302 302 302 303 303 301
301 305 304 302 299 298 299 295 300 299 298 300 304 306 308 309 309 309 309 310 311 313 313 313 313 312 312 313 312 310 308 308 307 305 304 303 302 300 298 299 299 299 299 300 300 300 301 301 299
305 302 300 299 298 292 298 296 298 299 300 301 304 306 307 308 308 309 309 310 310 312 312 312 310 309 310 309 308 307 305 303 302 301 299 299 298 298 297 297 297 298 297 297 297 298 300 300 298
303 299 290 289 289 291 294 293 299 302 300 303 304 306 307 308 308 308 308 309 310 310 310 309 308 305 306 305 304 303 302 300 298 297 296 295 295 295 295 295 295 295 295 295 296 296 298 298 296
298 300 293 286 288 291 292 291 297 301 302 303 306 308 308 308 308 308 309 309 309 309 308 307 306 304 303 301 300 299 299 297 296 295 294 294 293 294 294 294 294 294 294 294 294 294 295 295 295
296 294 301 292 292 291 295 298 302 301 301 302 304 306 307 307 307 308 308 309 309 307 306 305 304 302 300 299 297 295 295 294 293 293 293 293 293 292 292 293 292 293 293 292 292 292 292 293 293
301 304 293 294 287 286 292 293 297 299 300 300 302 304 306 307 307 307 308 308 307 305 304 303 302 300 298 296 295 294 292 292 292 292 291 291 291 291 291 291 291 291 291 291 291 291 291 291 291
298 296 298 297 294 290 289 293 301 300 301 301 302 305 307 306 306 306 307 307 304 303 302 300 299 298 296 294 293 292 291 290 290 290 290 290 290 290 290 290 290 290 290 290 290 290 290 289 290
302 298 299 293 289 292 292 294 301 301 301 301 303 305 307 307 307 306 307 305 301 300 299 299 298 296 294 292 291 290 290 290 289 289 289 289 289 289 289 289 289 289 289 289 288 288 289 289 289

GFSSGP_sfc_thetae_003.txt.gz
Theta_e
337 328 322 321 307 307 303 306 314 313 314 315 316 314 314 316 313 310 334 337 336 337 343 348 354 352 350 349 346 343 340 338 336 333 332 331 333 333 336 335 335 334 332 333 334 335 335 336 337
331 324 321 313 301 299 301 309 309 314 315 316 316 316 314 313 320 326 332 337 337 337 343 347 354 351 351 348 345 342 341 338 335 333 334 335 335 334 335 332 333 333 333 333 332 332 332 333 335
329 323 313 309 301 296 302 309 311 312 316 315 315 317 316 316 321 326 334 337 337 337 340 349 354 351 351 347 345 343 340 338 336 333 334 338 338 338 336 334 334 333 331 331 331 330 331 333 334
323 320 315 304 302 302 303 308 309 310 315 316 316 314 318 323 324 331 336 337 337 338 341 351 354 351 350 348 346 343 341 339 337 335 336 337 340 341 339 338 336 333 332 332 332 332 332 331 332
324 316 306 304 305 307 306 308 309 308 312 313 315 314 317 323 329 331 335 335 336 338 342 346 353 350 349 347 346 344 342 339 337 336 336 338 341 342 342 340 337 334 332 332 332 333 334 334 333
314 314 303 300 305 308 311 311 310 310 312 314 313 312 317 325 328 332 336 335 336 338 342 344 350 352 351 349 347 345 344 342 339 336 336 337 340 342 341 340 338 335 334 334 333 333 334 336 336
312 309 304 304 304 306 310 311 308 310 311 313 316 311 319 322 326 332 336 336 337 340 342 342 343 345 350 350 350 348 346 344 341 338 335 336 337 338 339 338 336 336 336 336 335 334 334 334 335
316 311 305 305 303 304 311 310 311 312 311 318 317 312 314 321 325 330 334 335 337 340 341 342 342 344 343 343 346 346 345 344 341 340 340 339 338 337 336 338 337 336 336 335 335 335 334 334 335
320 306 302 304 305 306 312 310 315 317 314 315 317 316 319 321 323 326 328 331 335 338 340 342 341 343 343 342 343 344 344 343 342 339 338 337 332 334 334 335 336 335 336 336 336 336 335 336 335
312 305 304 310 310 309 311 311 314 313 313 313 316 319 320 320 320 319 321 324 330 333 337 341 342 342 343 341 342 341 341 340 339 337 336 335 332 333 334 332 335 336 337 337 336 336 336 335 332
313 305 310 311 312 313 311 311 315 313 310 314 314 316 319 319 318 318 320 321 326 331 335 338 341 342 342 342 341 340 339 338 337 336 336 335 334 334 334 334 334 335 333 334 335 334 334 332 332
308 311 311 312 313 312 310 313 312 314 315 319 319 320 320 318 317 318 318 320 325 329 331 335 339 341 342 342 341 340 338 338 337 336 336 335 335 335 334 334 335 335 335 334 335 335 335 334 334
308 311 312 313 313 313 314 311 311 313 318 320 320 319 319 318 318 318 320 325 326 328 330 332 336 338 341 342 341 340 338 337 337 338 338 338 336 336 336 336 336 336 336 335 335 335 334 334 333
312 312 312 313 313 313 311 311 313 314 319 317 316 314 316 317 316 318 321 323 326 328 328 331 332 335 338 339 340 339 339 338 338 338 338 337 337 336 336 336 336 336 336 335 333 333 331 331 332
313 307 310 310 312 311 314 308 309 315 317 310 310 312 313 315 317 317 319 320 322 323 323 323 326 330 334 338 339 339 339 338 338 338 337 336 336 336 336 335 334 333 332 332 332 330 329 328 328
306 307 301 308 311 312 311 302 310 314 310 309 310 312 314 314 315 317 318 319 320 321 323 325 324 326 332 336 338 337 337 336 335 335 335 335 335 335 335 331 329 327 327 326 324 322 322 322 322
304 299 300 304 311 310 309 304 310 313 310 309 311 312 313 313 314 315 316 318 319 322 324 325 329 329 332 335 336 334 333 333 334 334 332 328 325 326 324 319 318 317 319 317 316 315 315 315 316
298 299 301 302 307 309 306 305 309 311 311 310 310 312 312 312 312 315 317 319 322 325 326 328 329 331 332 332 333 333 328 322 320 318 317 317 315 315 316 315 314 314 315 314 314 312 314 313 313
303 302 301 304 308 307 305 305 307 310 311 310 310 311 311 311 313 315 317 319 321 324 326 329 329 331 332 332 327 322 318 318 316 315 314 313 312 311 311 312 311 311 311 310 309 309 308 308 310
302 300 301 304 306 305 304 303 308 310 311 312 310 310 311 310 311 313 315 317 317 319 322 324 327 329 327 324 323 321 318 316 315 314 311 310 308 308 307 307 307 307 307 306 305 305 304 305 306
301 300 300 300 305 305 303 302 305 310 310 309 310 312 311 310 310 311 313 314 316 316 318 319 319 320 320 321 320 318 317 316 311 310 309 307 306 303 303 303 303 303 304 303 303 303 303 301 303
297 304 303 301 301 295 305 294 302 305 303 304 307 310 310 310 311 311 312 313 314 315 318 317 317 317 318 318 316 313 310 307 308 308 307 306 304 301 300 300 301 301 301 301 301 300 302 302 299
300 306 303 303 301 300 299 297 301 306 302 303 306 309 309 310 310 310 311 312 314 315 316 315 314 313 314 313 312 311 309 308 307 306 304 303 302 300 299 299 299 299 299 299 299 299 300 301 298
305 303 302 303 300 292 298 298 298 301 302 304 306 308 308 309 310 311 311 312 312 314 314 314 311 310 311 311 310 308 307 305 304 302 301 300 300 299 297 297 297 297 297 297 297 298 299 299 298
303 298 291 289 290 290 300 297 300 302 303 305 305 307 308 309 309 309 309 310 311 312 312 310 309 308 308 307 306 305 304 303 300 299 298 297 296 296 295 296 295 295 296 296 296 296 297 296 296
298 299 292 285 287 291 296 292 299 304 306 307 308 308 309 309 309 309 310 311 311 311 310 309 307 305 305 304 302 302 301 299 298 297 296 295 294 294 294 294 294 294 294 294 294 294 295 295 294
295 296 301 295 296 293 295 299 302 304 303 304 306 307 307 308 309 309 310 311 311 310 309 308 306 304 302 301 300 298 297 296 295 295 294 294 294 293 293 293 293 293 293 292 292 292 292 293 293
301 304 294 297 288 287 293 295 296 300 302 303 304 306 308 309 309 309 310 311 310 309 307 306 305 303 301 299 298 296 295 294 293 293 292 292 292 292 292 292 291 291 291 291 291 291 292 291 291
297 297 300 299 297 291 290 293 303 301 303 303 304 307 308 309 308 309 309 310 309 307 305 304 302 300 298 297 296 294 293 292 292 291 291 291 291 291 290 290 290 290 290 290 290 290 290 289 290
303 300 301 295 291 295 293 293 304 304 304 304 305 307 309 309 309 309 309 309 306 304 303 302 301 299 297 295 294 292 292 291 291 290 290 290 289 290 289 289 289 289 289 289 288 288 288 288 288

GFSSGP_sfc_thetae_006.txt.gz
Theta_e
337 329 322 317 304 302 299 300 309 310 309 310 312 309 308 310 309 306 327 330 333 337 344 348 355 353 352 350 346 342 340 337 337 333 333 332 333 333 335 336 335 333 333 334 334 333 334 335 338
333 329 319 312 298 294 296 303 307 309 310 312 312 311 309 308 319 323 327 331 334 338 342 345 355 352 351 350 346 343 341 338 336 333 337 335 334 334 334 334 333 334 332 332 332 332 332 333 334
332 325 310 306 300 293 296 305 305 307 310 311 310 313 310 311 321 323 331 332 333 333 342 349 354 353 351 348 345 342 341 339 336 333 333 337 337 339 335 335 333 334 332 331 331 331 330 331 332
322 316 311 300 299 303 299 303 305 305 310 313 312 309 314 320 321 326 332 332 331 332 345 351 353 354 351 348 346 343 341 340 338 335 335 336 340 341 341 337 338 335 333 332 331 332 332 333 332
320 313 301 299 301 305 305 304 306 304 306 309 310 308 311 319 325 328 330 331 331 333 345 349 353 352 351 350 347 345 343 339 338 336 335 336 341 342 341 339 337 335 333 332 332 331 333 335 336
311 311 299 297 300 306 306 309 305 304 307 309 308 307 310 320 324 327 331 327 333 335 340 347 350 350 351 349 348 346 344 342 340 337 334 335 338 341 341 341 338 336 334 335 334 333 333 334 336
309 305 300 300 301 303 308 309 302 304 306 307 310 305 312 316 323 328 328 329 330 336 337 339 344 346 350 349 349 347 347 345 343 340 336 338 337 337 339 340 338 336 335 336 337 336 335 334 335
313 308 301 302 301 302 308 310 309 305 306 314 313 305 306 313 322 326 328 328 329 334 336 336 339 340 342 340 346 345 345 344 342 341 340 338 337 337 339 339 339 337 336 335 335 335 336 336 335
318 304 299 301 302 305 309 307 311 313 309 311 312 311 313 316 321 322 322 327 328 333 334 335 336 339 338 338 342 343 343 342 341 338 337 335 330 329 333 334 335 335 335 336 336 336 337 338 336
310 303 302 307 307 306 309 308 309 309 310 309 310 314 315 315 313 311 315 319 326 329 332 334 335 336 336 338 338 337 337 336 335 334 332 331 327 327 330 329 333 336 337 338 337 338 339 337 331
311 304 308 308 309 310 309 308 310 308 306 310 309 312 315 313 312 312 313 315 320 327 330 334 335 336 336 335 335 334 334 332 331 330 329 328 327 326 327 328 328 328 331 330 332 333 333 330 329
306 310 310 311 312 311 307 310 308 308 309 314 314 315 315 314 313 312 312 310 316 323 328 332 334 335 335 336 334 333 331 331 329 329 329 327 327 327 327 327 329 329 329 328 329 329 330 331 330
307 309 311 311 311 311 311 308 308 309 312 315 316 316 314 314 313 313 311 318 317 322 324 327 331 334 335 335 334 333 331 330 330 331 331 330 329 330 330 330 330 332 332 331 330 330 330 329 329
310 310 311 311 310 310 308 308 309 310 313 313 315 312 308 310 312 310 312 315 318 322 324 326 328 331 334 334 333 332 331 331 331 332 332 332 330 329 330 331 331 331 330 330 329 328 325 324 323
310 305 309 309 310 308 310 304 305 311 312 311 310 305 307 310 312 309 313 315 315 316 318 319 321 327 330 332 333 332 331 332 333 333 331 331 332 330 331 330 328 327 323 321 318 316 316 315 317
304 305 298 307 309 309 307 298 308 312 310 308 305 303 308 310 310 311 313 313 313 316 318 319 320 320 327 331 332 332 332 331 329 329 331 327 327 326 321 315 311 312 312 311 309 309 309 308 308
301 294 297 301 309 307 305 300 308 312 307 304 303 304 308 309 309 310 311 311 313 317 319 321 321 321 327 330 329 329 327 325 320 317 313 312 312 312 311 309 308 308 309 308 307 306 306 305 306
292 295 297 298 304 307 303 303 307 309 306 303 303 303 306 308 308 309 312 312 317 319 321 322 325 326 328 327 326 319 315 313 312 310 308 308 308 308 307 307 306 306 305 305 302 300 301 301 302
298 297 298 301 306 304 302 303 306 307 307 304 304 303 306 306 308 310 312 314 318 321 321 323 324 325 326 325 317 314 311 310 308 307 306 304 304 304 303 303 302 301 301 300 299 298 297 298 298
297 296 296 302 306 304 303 302 305 306 306 306 305 304 305 305 306 308 310 311 315 317 319 322 322 319 319 317 315 313 310 308 307 306 304 302 300 300 299 298 298 297 298 297 296 296 296 297 298
296 295 297 298 303 303 300 297 300 304 306 307 308 305 306 305 305 307 308 309 311 312 312 314 314 315 316 315 314 311 310 307 304 304 302 300 298 297 297 296 296 295 296 295 295 294 294 294 296
290 299 300 299 299 292 299 287 297 302 303 303 302 303 305 304 306 307 307 307 308 310 311 312 313 313 313 312 309 306 303 301 302 301 300 298 297 295 295 295 295 294 295 293 293 295 294 294 292
293 300 300 299 297 294 296 290 294 301 300 297 299 302 304 304 305 306 307 309 309 309 308 307 307 307 307 307 306 304 302 301 300 299 297 295 295 294 294 294 293 292 293 292 291 291 291 293 292
299 297 297 300 296 289 295 293 292 296 298 298 300 303 304 304 305 306 307 309 308 308 307 305 305 305 305 304 303 302 300 298 297 295 294 293 293 293 292 293 292 291 291 291 291 290 290 291 291
297 293 286 286 285 285 296 294 292 297 300 302 301 303 304 304 304 304 304 305 306 306 305 305 304 302 302 301 300 298 297 295 292 292 291 290 290 290 290 290 289 289 290 290 290 289 289 289 288
294 293 286 282 283 286 295 289 293 300 301 303 304 304 304 304 304 304 304 305 306 306 303 302 301 299 299 297 296 295 294 293 292 290 290 289 289 289 289 289 289 289 289 289 288 288 288 288 287
293 287 293 291 292 287 289 292 295 299 298 300 302 303 303 304 304 304 305 306 305 304 303 301 299 298 297 295 293 292 291 290 289 289 289 289 288 290 288 288 287 287 288 288 287 286 286 286 286
297 299 289 293 284 283 287 289 290 294 295 298 301 301 303 304 304 304 305 305 305 304 302 300 299 296 295 293 292 290 289 288 288 288 287 287 287 287 287 287 286 286 286 286 286 286 286 286 286
296 294 297 297 292 286 283 288 297 296 298 297 300 303 304 304 304 305 305 305 303 301 300 298 297 295 293 292 290 288 287 288 287 286 286 286 286 286 286 286 286 286 285 286 285 284 286 285 285
301 298 297 291 288 289 288 287 298 298 299 300 299 304 305 305 305 305 304 303 300 300 298 297 295 293 292 290 288 288 287 287 286 285 285 286 285 285 285 285 285 285 286 285 284 284 284 284 283

GFSSGP_sfc_thetae_009.txt.gz
Theta_e
339 329 323 312 298 297 295 298 303 303 304 305 308 306 304 306 307 305 323 334 341 344 349 351 355 354 352 350 345 343 340 338 335 335 335 334 333 334 336 335 334 333 333 332 332 332 333 333 336
337 330 313 306 294 289 293 298 300 302 305 308 309 308 306 306 318 322 323 330 341 344 346 348 355 354 352 349 345 343 340 338 336 334 337 332 334 333 332 333 335 334 332 331 331 330 329 331 333
329 326 306 300 296 290 291 299 300 304 306 308 307 309 307 310 320 322 326 331 341 340 344 347 355 354 353 348 345 343 342 338 336 335 333 337 338 339 336 335 336 335 333 331 330 330 330 330 329
317 311 305 296 294 299 298 297 302 303 306 309 307 305 312 317 319 326 329 330 331 338 343 351 353 355 352 348 345 344 342 340 337 336 335 336 340 340 342 339 338 335 334 332 331 331 332 333 333
313 307 297 294 296 300 302 303 303 301 303 306 307 305 309 317 324 327 327 329 336 340 344 349 354 353 351 347 345 344 342 340 338 337 336 337 341 342 342 339 338 336 335 334 333 331 332 333 335
307 304 294 292 296 302 303 306 303 302 301 305 306 305 308 317 322 325 327 326 341 342 346 348 351 352 351 350 347 345 343 341 339 336 337 336 338 341 342 341 338 336 335 334 335 335 335 333 335
305 300 295 295 297 300 305 304 301 300 301 304 307 303 308 315 322 327 325 328 335 341 344 344 345 347 348 349 348 347 346 345 342 339 337 339 337 337 339 342 339 337 336 336 337 337 336 335 335
308 303 297 296 298 299 306 307 306 303 302 309 309 303 303 313 322 327 327 328 331 337 339 341 341 343 344 343 347 346 345 345 344 341 339 337 336 336 339 340 340 337 337 337 335 335 336 337 337
313 299 297 299 299 302 307 304 308 310 307 308 309 308 312 317 321 322 322 325 326 331 333 337 339 338 340 338 341 343 343 342 340 338 336 334 329 328 331 334 336 337 335 336 336 337 338 339 337
306 299 301 305 304 303 306 305 306 306 306 306 308 312 312 313 316 318 318 321 323 327 330 332 335 337 337 339 338 337 337 336 335 333 331 330 328 326 330 329 333 336 337 338 338 338 340 338 331
307 302 306 307 309 308 306 306 308 304 303 307 308 309 312 312 311 311 310 317 324 327 329 332 331 334 333 336 335 333 332 332 331 331 330 329 325 324 324 325 326 325 328 328 330 329 331 332 330
303 309 309 310 312 309 306 308 305 306 306 310 311 313 312 312 312 312 310 309 317 324 329 331 333 332 333 333 333 331 332 330 326 328 327 325 324 324 324 325 326 328 330 329 330 330 329 329 329
303 306 310 311 311 310 310 306 305 306 310 311 312 313 312 312 311 312 309 315 317 321 326 329 331 332 333 332 332 330 328 328 328 328 328 328 328 330 329 328 330 330 330 329 328 326 323 321 320
305 306 307 310 309 309 307 305 306 308 310 310 311 310 311 308 309 308 309 312 315 319 323 327 329 332 333 332 331 329 330 330 329 332 332 332 329 327 330 329 327 325 321 316 313 310 310 310 311
307 303 305 307 308 307 309 303 303 308 309 309 309 308 306 308 309 309 311 313 314 314 316 320 325 330 331 332 331 331 329 333 332 331 330 330 331 329 324 313 310 312 309 308 307 306 307 306 307
300 301 296 304 307 308 307 298 305 309 307 307 307 304 305 308 309 309 312 312 313 314 316 317 320 325 329 331 330 331 331 329 324 316 314 312 312 312 311 307 305 306 307 305 304 303 302 302 302
295 291 293 299 306 306 305 300 305 307 307 305 303 301 304 306 307 308 310 311 312 315 316 317 316 321 328 327 325 319 315 314 313 311 309 307 307 307 306 304 303 303 303 301 300 299 297 297 298
290 289 294 295 301 304 302 302 303 306 306 304 301 300 304 305 306 307 310 309 314 316 318 319 319 325 324 316 315 313 311 309 307 305 304 303 303 302 302 301 299 300 299 297 296 295 296 296 295
292 292 294 297 303 301 301 302 303 306 304 301 299 300 302 304 306 309 310 312 315 317 319 320 323 323 319 314 311 308 306 304 303 302 300 299 299 299 297 297 297 297 296 294 295 294 294 295 295
293 291 290 295 301 301 300 300 304 305 306 304 303 300 302 303 305 307 310 312 315 316 317 318 317 318 316 314 311 308 306 303 302 301 297 296 296 296 296 295 294 294 294 293 293 293 293 294 294
292 290 291 291 298 301 299 297 300 303 305 305 304 303 304 304 304 305 306 308 309 310 311 312 313 313 312 311 309 307 305 303 301 298 296 295 295 295 295 294 293 293 293 292 291 291 291 291 292
287 294 295 294 293 289 300 290 298 301 300 302 301 302 302 303 304 305 305 306 307 307 310 311 312 311 310 309 307 304 301 299 299 298 296 294 293 293 294 293 292 292 292 290 290 292 290 290 289
289 295 294 295 293 293 293 291 294 299 298 300 297 301 302 304 305 304 305 307 307 305 304 304 305 305 305 305 303 301 299 298 298 295 293 292 291 292 292 292 291 290 290 289 289 288 288 289 288
296 293 294 294 292 285 291 290 290 295 298 301 296 301 302 303 304 305 306 306 304 303 302 302 303 302 302 302 301 299 297 294 293 291 291 291 291 290 290 291 289 289 289 288 288 288 287 287 287
292 289 282 280 282 282 294 289 292 296 301 303 298 301 302 303 304 304 304 304 303 301 301 301 300 299 298 297 296 295 293 291 290 289 288 288 288 288 287 288 287 287 287 288 287 286 286 286 285
288 288 283 275 279 283 294 287 295 301 302 303 302 302 302 302 303 304 304 303 302 302 300 299 298 296 296 294 293 292 291 290 289 288 287 287 287 286 287 287 286 286 287 287 286 286 285 286 285
287 286 292 287 290 286 290 293 297 296 296 299 300 301 301 301 302 303 304 303 302 300 299 298 296 295 294 292 290 289 289 288 287 287 287 286 286 288 286 285 285 285 285 285 285 284 284 284 284
293 295 286 287 281 282 287 287 289 291 294 298 299 299 301 302 302 303 304 303 301 300 298 296 295 294 292 290 288 287 286 286 286 285 285 285 285 285 285 285 284 285 284 284 284 283 284 283 283
289 289 292 291 288 284 283 287 293 294 296 297 299 300 301 301 302 303 304 304 301 299 297 295 294 292 290 289 287 286 286 285 285 284 284 284 284 284 284 284 284 284 284 284 283 283 283 283 283
295 293 292 285 285 288 286 285 294 296 296 300 299 301 302 302 302 303 303 301 299 298 295 294 292 290 289 287 286 286 285 285 284 283 284 284 283 284 284 284 284 284 284 284 283 282 282 282 281

GFSSGP_sfc_thetae_012.txt.gz
Theta_e
339 331 321 310 297 296 292 296 298 300 303 305 306 305 303 304 305 302 322 333 339 345 349 351 355 355 352 349 345 343 340 337 336 337 337 335 334 335 336 335 333 333 332 331 331 331 332 332 334
337 329 312 303 293 288 292 297 299 300 303 306 307 306 304 307 317 319 324 338 343 346 348 348 355 354 351 347 345 342 340 338 336 336 334 335 334 337 335 333 334 334 332 330 330 329 328 330 332
325 322 305 298 293 289 291 297 299 303 304 306 305 308 307 309 320 321 324 339 343 344 346 349 355 354 351 348 345 342 340 338 336 336 336 337 337 337 336 333 336 334 333 331 330 330 330 330 330
316 310 303 295 293 297 297 300 300 302 304 307 306 305 311 315 319 325 330 338 339 339 342 349 354 354 353 349 345 343 341 338 336 336 336 337 339 340 341 339 338 336 334 332 331 331 331 333 334
311 304 296 292 294 298 300 303 300 300 302 304 306 304 308 317 323 325 327 336 335 336 341 349 354 354 351 346 345 344 342 340 336 336 337 338 340 341 342 341 338 336 334 333 332 333 332 333 334
306 302 293 291 294 299 301 304 302 301 301 303 304 304 307 316 322 324 326 331 339 339 344 347 352 352 350 347 346 344 342 340 338 337 338 338 338 340 342 339 337 336 335 334 335 335 336 335 334
304 299 294 294 295 298 302 306 298 300 301 304 306 302 307 314 322 326 323 333 339 342 344 344 347 347 348 348 347 346 344 343 341 339 338 339 339 338 340 342 339 338 336 336 336 337 335 336 336
307 302 295 295 296 297 304 305 304 301 301 307 308 303 304 312 320 325 325 335 337 341 342 341 342 345 343 344 346 346 345 344 343 342 339 339 336 336 339 342 340 338 337 337 337 335 335 337 337
311 298 295 297 298 301 305 303 307 309 305 307 307 307 310 314 321 321 321 323 330 336 338 341 340 340 341 340 342 344 344 343 341 339 336 334 327 327 330 334 335 338 338 336 337 337 338 340 338
305 299 299 303 304 302 305 304 304 304 305 304 306 310 311 316 317 320 320 321 323 328 332 337 338 337 338 341 338 337 337 336 334 333 329 329 327 325 326 328 334 338 338 338 338 339 341 338 332
306 301 304 306 308 307 305 304 306 304 302 305 305 307 309 311 314 317 318 320 323 328 331 334 336 334 335 335 335 333 332 332 331 330 329 328 327 323 325 323 324 324 326 326 328 328 328 330 329
300 307 308 309 310 309 305 307 305 304 305 309 310 311 310 310 310 310 310 315 318 324 328 332 334 333 333 334 334 332 331 329 328 329 329 326 322 322 323 326 328 328 330 328 327 323 319 316 315
300 303 308 310 310 310 310 306 305 305 308 310 310 311 310 310 310 311 311 309 309 322 327 329 331 332 332 333 332 330 329 329 327 326 325 325 325 327 328 328 327 323 319 315 312 309 308 307 308
301 302 304 307 307 308 307 307 305 307 308 308 309 309 309 309 311 307 309 313 315 320 327 328 330 331 331 331 329 327 329 330 327 330 331 331 328 327 322 314 315 312 311 309 305 304 303 302 303
303 299 302 303 305 305 308 303 304 307 307 307 307 308 308 307 308 307 309 312 314 318 323 326 328 331 331 330 329 329 330 331 329 322 319 322 322 313 311 309 309 307 304 303 301 300 300 300 300
297 295 291 300 304 306 305 297 305 307 305 305 305 305 306 306 308 309 311 311 312 313 317 320 327 329 330 329 330 330 327 319 314 312 311 311 310 310 307 303 302 302 300 299 298 297 297 296 296
293 287 289 295 303 304 302 299 305 307 304 304 304 304 304 303 305 307 310 310 311 314 315 315 319 327 328 323 318 315 314 311 309 308 307 306 304 304 301 299 299 299 297 296 296 294 295 294 294
289 288 289 290 298 301 300 300 304 305 304 303 305 303 299 304 305 307 309 309 312 313 315 314 316 324 315 313 312 310 307 306 305 302 302 301 300 299 298 296 297 297 295 294 293 292 293 293 293
291 289 288 291 298 296 297 299 302 306 303 301 303 301 298 303 305 306 308 309 313 315 316 315 321 313 313 310 308 307 304 302 298 298 298 297 297 296 295 295 295 295 293 292 292 292 292 292 292
291 288 288 292 296 297 296 297 302 304 305 305 304 299 300 302 303 306 309 312 315 315 317 318 317 313 312 310 306 304 303 300 297 296 294 295 295 295 295 293 293 293 292 290 290 290 290 292 291
289 288 287 288 293 295 295 291 296 303 305 306 305 301 303 304 303 305 308 310 311 312 313 314 313 312 310 308 306 304 302 299 296 294 293 293 293 294 293 292 292 291 290 289 289 288 288 288 289
285 293 292 292 290 284 295 284 293 299 301 302 304 299 302 302 303 304 307 307 309 308 310 311 311 309 308 307 304 302 299 296 296 295 292 291 292 292 292 292 290 290 290 288 288 289 288 287 285
288 293 291 291 288 287 289 286 291 298 297 301 304 299 302 303 304 306 307 308 307 307 307 308 308 307 306 304 303 300 298 297 295 292 290 289 289 290 291 290 289 288 288 287 286 286 285 286 285
294 291 291 290 288 281 286 288 288 293 296 300 300 299 301 303 303 305 306 306 303 302 302 303 305 302 302 302 300 298 296 293 292 290 289 289 289 289 288 289 287 287 287 286 286 285 285 284 285
291 286 278 276 277 278 287 286 288 295 299 301 302 299 301 303 303 304 304 303 301 300 300 300 301 298 299 298 297 295 293 291 289 288 288 287 287 287 286 286 286 285 285 286 285 284 284 284 283
288 287 279 271 273 278 290 284 289 299 302 302 303 301 302 302 304 304 303 302 301 300 298 298 298 295 295 294 292 290 290 289 288 287 287 286 286 286 285 285 285 284 285 285 284 284 284 284 283
287 283 289 283 284 281 286 290 297 301 299 297 299 299 300 302 303 303 302 301 300 299 297 296 295 293 292 291 289 288 287 287 286 286 286 285 285 287 284 284 284 284 284 284 283 282 282 282 282
289 291 282 283 274 275 283 287 291 295 296 295 297 298 300 302 302 302 302 301 300 298 295 294 294 292 289 288 287 287 286 285 285 284 284 284 284 284 284 283 283 283 283 283 282 282 283 282 282
287 285 287 285 284 281 281 286 297 299 297 296 298 299 300 301 302 302 302 301 299 296 295 293 291 290 287 286 285 285 284 284 284 283 283 283 283 283 283 283 283 283 283 283 282 282 282 282 281
290 287 287 282 280 286 284 284 295 301 298 300 299 300 300 301 302 302 302 299 297 295 293 292 289 288 286 285 285 284 284 283 283 283 283 283 282 283 283 283 283 283 283 283 282 281 281 281 280

GFSSGP_sfc_thetae_015.txt.gz
Theta_e
339 332 314 307 295 295 292 296 297 299 301 303 304 303 303 304 304 300 322 332 338 342 349 352 356 356 352 349 345 342 339 337 337 338 343 337 335 332 334 335 333 331 331 330 330 332 333 333 334
331 324 310 301 292 286 289 295 298 301 303 304 304 304 304 307 316 318 324 335 342 346 348 348 356 354 352 348 345 342 339 336 337 336 336 334 333 335 334 333 333 332 331 330 330 329 329 329 331
324 316 304 297 290 288 289 296 298 302 303 305 304 307 306 311 318 320 323 338 343 343 346 347 355 353 351 347 345 342 340 337 336 337 335 335 335 335 335 335 335 334 332 331 330 330 330 331 331
315 309 302 294 292 295 293 297 299 300 303 306 305 304 311 314 318 323 334 339 340 340 342 349 354 354 352 347 345 343 340 338 336 337 336 337 339 340 339 340 339 335 334 332 331 330 330 331 333
309 303 295 291 293 296 298 301 300 300 301 303 303 303 307 316 322 327 335 338 337 337 340 348 354 354 351 348 345 343 341 339 336 336 337 338 339 340 342 342 338 336 334 332 332 332 333 333 333
305 301 292 291 293 297 299 302 300 299 300 302 303 305 307 316 321 324 334 333 336 337 341 347 352 353 352 348 346 344 342 341 336 336 337 338 337 340 341 340 338 337 334 334 335 335 335 336 336
303 297 293 292 293 297 300 304 300 298 299 302 306 303 306 312 321 323 326 333 335 338 341 344 347 349 348 347 347 346 343 342 340 338 339 339 339 338 341 341 339 337 337 336 336 337 336 335 336
306 300 293 294 294 296 302 303 303 299 299 305 307 303 304 311 318 322 322 334 335 339 341 342 343 344 342 342 345 345 344 343 343 340 339 339 337 336 339 342 341 339 338 337 337 336 336 337 338
308 297 294 295 296 299 303 302 305 306 302 305 305 308 308 312 321 320 323 328 331 337 338 341 341 342 341 341 342 344 344 342 341 339 336 334 327 326 329 333 336 338 338 338 337 338 339 340 338
305 298 297 301 301 300 303 303 303 303 303 303 305 309 312 317 319 319 320 325 327 332 334 338 338 338 337 341 338 337 338 336 334 332 328 328 325 323 325 327 333 336 338 337 337 338 338 332 329
303 299 303 304 306 306 304 303 305 302 300 304 305 306 308 313 317 319 319 320 327 331 332 337 336 336 336 337 334 334 332 332 331 329 327 326 326 323 323 323 323 324 325 326 328 326 323 314 315
297 303 306 307 309 308 305 306 303 303 303 307 307 309 308 309 313 315 317 318 319 323 330 334 335 332 333 333 332 332 330 329 328 328 328 325 323 320 321 324 328 328 328 319 314 312 308 307 306
298 301 304 307 308 308 309 307 305 305 307 309 309 308 308 309 308 309 311 312 315 319 326 331 332 331 333 331 331 330 329 329 328 328 328 326 322 325 327 321 315 313 312 310 306 303 302 301 301
299 300 301 304 305 306 305 305 306 306 307 307 307 307 308 308 308 307 308 310 307 310 323 329 331 332 332 332 329 330 328 329 327 326 326 329 329 319 313 312 310 308 307 303 300 299 298 297 298
301 296 299 300 302 302 306 301 302 307 308 305 305 306 308 307 308 307 308 308 310 313 319 326 329 330 330 331 329 330 329 329 325 321 324 322 313 311 310 309 306 303 300 298 296 296 296 295 296
296 293 288 296 301 303 304 293 303 308 307 307 304 304 305 306 308 306 308 309 312 314 320 324 331 330 329 329 330 330 323 315 312 311 311 311 309 308 306 302 300 297 296 296 294 295 294 293 292
294 286 287 292 301 302 301 296 302 306 305 302 302 303 305 305 304 305 309 309 311 312 316 322 327 329 327 323 320 315 312 310 309 308 307 306 305 304 302 299 296 295 294 294 293 292 293 291 292
284 286 286 288 296 297 297 297 301 304 304 303 304 305 303 302 304 305 307 308 309 312 313 314 324 324 315 311 310 308 307 305 305 303 302 301 299 297 296 296 294 294 293 292 291 290 291 291 290
290 288 286 290 296 293 292 294 297 302 303 304 301 302 302 300 302 305 306 306 309 311 312 312 319 313 312 309 307 307 303 301 299 299 298 296 295 295 294 294 293 293 291 290 290 290 289 290 290
289 287 287 290 294 293 292 291 296 298 300 304 305 304 303 299 302 304 305 307 311 313 313 315 312 311 311 309 304 303 302 299 297 295 294 294 294 294 293 292 291 291 290 289 288 288 288 288 290
287 285 286 286 290 292 290 287 289 295 299 303 306 306 307 302 302 303 305 308 311 312 313 312 309 309 308 305 304 301 299 298 296 292 291 292 293 293 292 291 290 289 289 287 287 287 286 285 286
284 291 290 289 286 280 289 279 286 291 295 299 303 305 302 300 302 304 307 308 310 311 312 310 310 307 306 306 304 302 297 295 293 291 290 290 291 291 291 290 289 288 288 286 286 287 286 285 284
287 292 290 290 287 284 286 283 284 293 293 297 300 303 301 301 303 304 308 310 310 308 308 308 307 306 303 304 304 301 298 295 292 290 288 288 289 289 289 289 287 287 287 286 285 284 284 285 283
294 290 289 290 286 279 283 283 283 286 292 295 299 302 300 301 302 305 306 307 305 305 306 306 306 303 302 301 299 299 296 293 290 288 287 287 288 288 287 287 286 286 285 285 285 284 283 283 283
290 286 279 278 278 276 285 283 285 290 293 297 299 301 299 301 302 304 305 305 303 303 304 304 304 300 299 298 297 295 294 292 290 288 288 287 286 286 285 285 284 284 284 285 284 283 282 282 281
287 285 279 273 273 275 285 280 285 294 297 299 299 300 298 301 303 305 306 305 303 302 302 302 301 298 297 295 293 291 290 290 289 288 287 286 285 285 284 284 284 283 284 283 283 283 282 283 281
287 283 288 282 283 280 282 286 294 297 297 298 297 298 298 300 303 305 304 302 301 300 299 299 297 294 293 291 289 288 287 287 286 285 285 285 285 286 284 283 283 283 283 283 282 282 281 281 281
288 290 282 283 274 273 278 282 285 290 294 296 296 296 298 301 303 303 301 300 299 296 294 294 295 292 290 288 287 286 285 285 285 284 284 283 283 283 283 283 282 282 283 282 282 281 282 281 281
286 284 286 285 280 272 273 279 292 293 295 294 295 296 298 300 302 301 300 299 297 295 293 291 290 289 287 286 285 284 284 284 283 283 283 283 283 283 282 282 282 282 282 282 281 281 282 281 281
290 286 285 281 274 279 279 281 293 295 295 297 296 299 302 302 301 301 299 297 295 293 292 290 288 287 286 285 284 283 283 283 282 282 282 282 282 282 282 282 282 282 282 282 281 280 281 280 280

GFSSGP_sfc_thetae_018.txt.gz
Theta_e
335 326 310 305 297 293 289 293 297 298 299 302 302 305 304 303 304 301 319 330 334 336 344 351 356 355 351 348 345 342 339 339 338 341 344 338 336 333 333 335 332 331 331 330 332 333 334 335 335
328 321 308 300 292 286 288 293 295 299 302 303 304 305 303 308 315 317 324 331 339 342 348 348 356 355 351 348 345 342 339 337 337 340 339 334 335 333 332 333 332 332 332 330 330 330 329 329 329
320 312 303 296 289 288 288 293 296 300 301 303 304 307 306 310 318 319 324 335 342 343 346 348 355 354 351 348 345 342 339 337 337 336 336 336 334 337 335 334 335 334 332 330 330 330 331 332 332
313 308 301 294 291 294 292 294 299 300 303 304 305 304 310 314 317 321 332 340 340 340 342 350 355 354 352 348 345 343 340 337 336 337 337 336 337 337 336 338 338 335 333 331 331 330 330 330 332
308 302 294 290 292 295 296 299 300 300 299 300 302 302 307 315 322 329 335 339 337 337 341 348 354 353 350 348 345 343 340 338 336 337 337 338 338 339 340 340 338 336 333 332 332 332 333 333 333
304 300 290 289 292 295 298 300 300 298 298 300 301 304 307 315 321 329 335 334 338 337 341 346 351 353 351 348 346 344 341 339 337 336 337 337 338 341 342 342 338 336 334 334 334 335 335 336 336
301 296 291 290 291 294 298 302 299 300 296 300 302 301 306 311 321 328 331 332 334 337 339 343 347 349 349 348 347 346 343 342 339 338 338 340 339 338 341 340 338 337 336 336 336 337 337 336 337
304 299 291 292 292 294 301 303 303 297 298 303 305 302 304 309 320 323 327 332 332 335 339 340 343 345 343 342 345 345 344 343 342 340 339 338 337 336 337 342 341 338 337 337 338 337 337 339 339
306 296 292 294 295 297 301 300 304 306 301 304 304 304 307 312 320 321 324 330 332 336 336 339 340 340 339 339 341 343 343 341 341 338 335 333 327 326 327 332 336 336 337 338 337 339 339 337 334
303 296 296 300 299 299 301 302 302 302 302 302 304 308 311 315 317 318 320 325 329 332 335 337 338 338 338 342 338 337 338 336 334 332 328 326 323 322 324 326 331 334 335 333 334 335 329 321 318
301 297 301 303 305 306 303 302 304 301 300 303 302 305 308 312 316 317 318 322 327 329 334 337 336 336 336 337 334 334 333 332 331 329 326 325 325 322 322 322 322 323 325 327 321 314 312 307 307
295 302 304 306 308 307 304 306 303 302 303 306 307 306 307 307 314 317 317 318 320 326 331 335 336 334 334 334 333 332 331 330 328 328 327 324 323 319 320 322 326 321 314 311 309 304 302 301 301
296 299 303 304 304 305 307 305 305 305 308 309 310 308 307 307 307 311 315 315 316 319 325 331 334 333 334 331 331 330 330 329 328 327 327 325 321 323 323 313 312 310 308 305 300 299 298 297 297
298 299 299 301 302 303 302 303 303 305 307 306 306 306 307 306 307 306 307 309 308 311 318 328 332 333 332 331 329 329 329 328 327 328 329 328 328 317 313 310 307 305 303 301 297 296 294 293 294
300 295 297 299 300 299 303 298 299 306 307 306 305 305 306 307 307 307 308 307 308 308 308 324 330 332 331 331 330 330 330 330 326 328 329 322 314 312 310 306 303 301 297 295 295 294 293 292 293
296 297 289 295 298 300 301 291 299 303 303 304 306 305 305 307 308 307 307 306 307 308 314 322 330 330 330 331 330 329 328 319 317 314 313 311 309 308 305 301 299 297 294 293 292 293 292 290 290
294 286 289 292 297 298 299 293 300 303 302 301 302 301 303 304 306 305 306 306 308 310 314 321 326 328 328 328 323 316 315 312 311 309 308 306 304 304 302 299 294 293 292 291 292 290 291 289 289
284 286 289 290 292 294 293 294 298 301 301 301 301 302 302 303 305 307 306 307 309 311 313 320 325 325 318 313 312 309 307 306 306 304 302 301 300 299 297 293 292 292 291 290 289 289 289 290 288
290 286 286 289 294 292 291 291 294 297 298 299 301 303 302 303 305 304 305 306 307 310 310 319 320 314 313 310 308 308 303 301 299 299 299 298 296 294 293 292 291 291 290 288 288 288 287 288 288
290 287 286 288 292 291 290 289 293 294 296 299 300 302 303 304 300 303 304 304 308 310 310 316 315 313 313 311 306 304 302 298 297 297 296 295 293 293 292 291 290 289 288 287 286 286 286 286 287
286 284 284 284 288 290 288 285 287 291 294 296 298 300 303 305 302 302 302 304 307 309 310 313 311 309 307 304 302 299 298 296 295 294 293 291 292 291 291 290 289 288 288 286 285 285 285 284 285
283 289 289 287 284 279 285 277 284 288 290 291 294 297 302 304 301 302 302 305 308 309 311 309 308 307 305 304 303 302 299 296 295 293 290 289 290 290 290 289 288 287 287 285 286 286 284 284 283
286 290 289 288 285 284 284 281 281 287 287 290 294 297 300 304 303 302 303 307 309 310 308 307 306 306 304 304 306 303 299 295 293 290 288 287 287 288 288 288 287 286 286 285 284 283 282 283 282
292 288 288 288 286 278 282 281 281 284 287 289 293 296 300 302 301 303 304 308 307 307 306 306 305 302 302 305 304 302 296 293 290 287 287 286 287 287 287 287 285 285 285 284 284 283 282 282 282
290 286 278 277 277 275 283 280 283 287 289 291 293 295 299 300 299 302 304 307 306 306 305 305 304 300 303 302 300 299 295 293 289 288 287 286 285 285 284 284 284 283 284 284 283 282 282 281 281
286 285 279 273 271 274 283 278 282 291 294 295 296 296 298 298 299 303 306 308 307 306 305 306 303 299 301 299 295 293 292 291 289 288 287 285 285 284 284 283 283 283 283 283 282 282 282 281 281
287 282 287 282 282 279 279 283 289 295 294 295 295 294 295 297 299 303 306 307 306 305 304 303 301 298 296 293 291 289 289 289 287 285 285 284 284 285 283 283 282 282 283 282 281 281 281 280 280
289 291 282 281 274 272 276 278 280 288 290 293 294 295 296 297 299 302 305 303 303 302 298 299 298 295 291 289 289 287 286 286 284 284 283 283 283 283 282 282 282 282 282 282 281 280 281 280 281
286 284 285 284 282 274 270 275 287 291 291 294 295 296 297 297 300 303 302 300 297 296 296 294 292 291 288 287 286 285 284 284 283 282 282 282 282 282 282 282 282 282 281 281 280 280 281 280 280
289 285 285 279 274 278 275 278 290 292 293 296 297 296 295 298 301 300 298 296 296 293 293 291 289 288 286 285 284 283 283 282 282 281 281 282 281 282 282 282 281 281 281 280 279 279 280 280 279

GFSSGP_sfc_thetae_021.txt.gz
Theta_e
334 327 315 313 304 300 296 298 302 302 304 308 307 308 309 310 310 308 330 336 336 342 348 352 356 355 351 348 346 343 341 340 339 342 344 340 337 332 333 335 333 332 332 331 333 334 335 336 336
329 321 315 307 299 294 296 299 300 304 306 306 307 311 309 312 320 323 329 335 339 344 348 350 356 355 352 348 346 342 340 339 338 343 342 337 335 332 333 334 333 333 332 330 330 331 330 330 330
322 314 310 303 296 294 296 299 302 305 306 305 308 312 312 315 323 325 331 337 342 344 350 350 356 355 352 348 345 342 339 337 338 340 340 335 335 335 333 333 334 334 332 331 331 331 332 333 333
317 313 307 300 296 298 298 300 304 305 308 307 309 309 315 320 323 327 335 342 343 346 351 352 355 354 352 349 345 343 339 338 337 336 337 337 337 337 337 338 338 335 332 331 331 331 331 331 332
312 308 300 296 296 299 301 303 304 304 304 305 306 308 312 320 326 331 338 342 342 346 349 351 355 354 352 348 346 343 341 338 337 338 337 336 337 338 340 342 339 336 333 332 332 334 335 335 335
308 305 296 293 296 300 303 305 305 304 304 305 307 309 313 320 327 335 340 341 343 345 347 350 351 352 351 349 346 344 341 339 337 338 337 337 338 342 341 341 339 337 334 334 335 336 336 336 336
306 301 296 295 296 297 301 306 304 304 304 304 309 307 313 317 327 336 338 340 342 344 345 349 350 350 349 348 347 346 343 341 339 339 339 340 338 339 342 341 339 337 335 336 337 338 338 337 338
307 304 296 297 296 297 304 306 308 305 303 308 311 307 309 316 327 335 336 336 338 342 344 346 349 350 349 346 345 345 344 343 341 340 339 338 337 335 338 341 340 338 337 337 338 338 340 339 338
309 301 296 297 297 300 305 304 308 309 307 309 310 310 313 318 324 329 332 334 335 337 341 345 347 349 347 346 343 343 342 341 339 337 335 335 336 333 332 333 335 336 336 337 337 338 333 329 324
307 300 299 302 302 302 304 305 306 307 306 308 309 312 314 319 322 324 327 330 333 335 338 343 345 347 346 343 343 343 342 341 340 337 336 335 333 331 329 329 330 332 333 332 332 323 319 317 316
305 300 303 305 307 308 306 306 308 306 305 308 308 310 312 315 320 321 324 326 331 335 338 340 343 344 345 344 343 342 342 340 339 337 335 334 331 331 331 331 331 333 328 319 314 312 312 311 311
299 303 305 307 309 307 306 308 307 307 308 310 310 312 311 313 313 320 322 324 328 332 336 340 341 342 343 343 341 341 339 340 338 337 334 332 331 328 329 332 325 315 314 309 309 308 307 306 306
300 301 304 305 304 304 307 305 306 307 311 313 313 314 312 313 312 313 319 323 324 327 334 338 341 341 341 340 340 340 338 338 337 336 334 333 331 329 320 316 312 309 308 306 306 304 302 302 302
300 300 301 302 303 304 303 303 305 306 310 311 311 311 312 311 313 313 313 313 316 323 326 334 338 340 340 340 338 338 338 337 336 335 334 331 329 319 314 310 308 304 303 303 302 301 300 299 299
302 297 299 300 301 301 303 298 299 306 308 307 308 310 312 313 314 312 314 314 315 315 316 323 334 339 338 339 338 337 337 336 334 333 332 330 319 314 310 306 304 301 300 301 302 301 299 298 298
297 297 290 297 299 301 301 291 300 305 305 305 307 308 309 311 313 315 313 313 315 314 313 314 327 335 337 337 336 335 335 332 328 326 320 315 313 310 306 302 300 299 300 300 299 300 299 297 297
293 286 289 292 299 299 299 294 302 305 303 303 304 306 307 309 311 312 312 312 313 313 314 318 327 332 334 335 335 333 328 321 317 314 311 310 308 305 302 300 299 299 298 298 298 297 298 296 296
285 287 289 289 294 295 293 293 297 300 300 301 302 303 305 306 308 312 313 312 312 313 315 320 327 332 333 328 321 319 313 310 309 308 305 305 303 301 300 299 298 298 297 296 296 295 296 295 294
290 289 287 291 295 292 292 292 294 298 298 298 300 301 303 305 309 311 311 311 311 314 316 321 327 329 322 318 315 313 311 305 303 302 301 300 299 298 299 297 297 296 295 294 294 295 293 293 294
291 288 288 291 292 291 290 289 293 295 296 298 299 300 302 305 307 309 309 310 310 314 316 324 326 321 321 321 316 313 309 303 300 299 298 298 297 298 297 296 295 295 294 293 293 293 293 292 293
288 286 286 286 289 291 289 286 289 293 295 296 298 300 301 303 304 307 308 308 310 312 314 322 319 318 317 312 306 303 301 298 297 296 295 295 296 296 296 295 294 294 294 292 292 292 292 290 291
284 290 289 288 285 280 288 278 287 290 292 293 293 295 298 300 302 306 308 307 309 312 315 319 315 313 310 311 308 307 305 299 298 295 294 293 295 295 294 294 293 293 293 292 291 291 291 291 289
286 290 288 288 286 284 284 281 285 289 288 291 295 296 296 299 302 305 307 309 310 313 314 315 312 311 309 311 310 311 304 297 294 293 291 292 293 293 293 293 292 292 291 290 290 290 289 290 289
293 288 288 288 286 279 283 282 283 286 288 290 293 296 298 301 302 306 308 309 310 313 313 312 310 308 308 309 309 307 298 294 292 292 290 291 292 291 291 291 291 291 290 290 289 289 289 289 288
290 286 279 277 278 277 284 282 284 289 292 293 293 294 297 299 303 304 305 307 310 311 310 309 309 306 307 309 306 302 296 295 293 293 291 290 290 290 289 290 289 289 289 289 289 289 288 288 288
286 285 279 273 274 277 283 279 284 291 295 295 296 297 297 299 302 303 305 308 310 311 309 309 307 305 305 305 303 299 297 295 293 292 292 291 290 289 289 288 288 288 288 288 288 288 288 288 288
286 282 288 281 282 278 281 284 288 291 292 296 297 299 298 297 300 302 306 309 310 310 309 308 306 304 303 300 295 294 293 292 292 291 291 290 289 288 288 288 288 288 288 287 287 287 287 287 287
289 290 281 282 273 273 278 279 282 286 288 294 295 298 299 299 299 302 306 309 310 310 308 307 305 303 298 295 294 292 292 292 290 290 289 288 288 287 287 287 287 287 287 287 286 286 286 286 287
286 284 286 284 282 275 274 278 286 287 291 293 296 298 299 299 299 302 306 307 307 304 304 302 300 296 293 292 290 291 289 289 289 288 287 287 287 287 287 287 286 286 286 285 285 285 285 285 285
289 286 286 280 278 281 278 279 292 294 294 296 296 298 300 300 300 304 302 300 301 300 299 299 296 293 291 289 289 288 287 287 287 286 286 286 286 286 286 286 285 285 285 284 284 284 285 285 284

GFSSGP_sfc_thetae_024.txt.gz
Theta_e
336 331 327 321 308 306 301 301 308 307 309 314 313 313 314 316 316 313 335 341 341 345 351 353 356 355 352 348 345 344 342 340 339 341 344 341 336 333 338 335 332 333 332 333 335 335 336 336 337
331 325 324 317 303 299 301 306 304 309 311 313 313 314 314 314 323 328 332 340 342 346 351 351 355 354 351 348 345 343 342 339 342 345 341 337 334 332 334 334 334 334 332 331 331 332 332 331 331
327 321 315 309 304 299 301 306 307 310 312 310 313 317 316 318 326 330 337 341 343 347 351 351 355 354 350 348 345 342 340 338 341 344 339 337 335 334 334 334 335 334 332 331 332 332 333 333 334
324 320 315 303 301 305 305 307 309 310 312 312 313 313 320 325 328 333 338 342 343 346 350 353 354 354 352 349 345 342 339 339 341 340 337 336 336 336 335 335 337 335 333 333 333 333 333 333 333
323 316 304 301 302 306 308 310 310 309 310 311 311 312 316 326 331 335 340 342 341 345 348 351 355 354 352 348 345 342 340 338 338 338 337 337 337 337 338 341 338 336 333 333 333 335 335 335 336
312 312 300 298 301 305 309 311 310 310 311 311 310 311 316 327 332 337 342 343 343 344 347 348 352 352 351 348 346 343 341 338 339 338 337 338 338 342 341 340 338 337 334 334 335 336 337 336 336
309 305 300 301 301 303 306 311 309 309 310 310 313 310 317 324 335 340 342 343 344 344 346 346 352 350 349 348 347 345 343 341 341 341 338 339 337 342 343 341 339 337 335 336 337 338 338 339 340
313 308 301 302 300 301 307 309 311 310 309 314 315 310 313 319 335 340 341 342 342 344 345 345 349 349 348 347 345 345 344 342 341 340 340 339 336 336 342 341 340 338 337 338 338 340 339 337 331
316 303 299 301 301 303 309 307 312 314 312 313 315 314 317 322 333 336 337 338 339 341 344 344 345 347 347 345 343 343 343 341 339 337 336 335 337 335 334 334 336 335 337 336 337 332 329 325 324
310 303 302 306 307 305 308 308 310 309 310 311 313 317 318 323 327 331 332 333 336 337 340 344 345 345 346 344 344 342 341 339 336 335 334 333 332 332 332 331 331 333 332 331 325 321 318 325 324
308 303 306 307 309 310 309 309 312 309 307 311 312 314 317 318 321 324 329 332 335 338 340 343 345 346 346 343 344 342 341 340 339 338 336 333 331 331 333 335 335 337 329 326 316 320 319 317 317
303 307 307 307 310 310 308 311 310 310 310 314 316 316 318 319 320 320 324 328 331 336 340 342 344 346 347 345 343 342 340 340 338 338 335 332 332 333 334 335 332 327 320 313 315 318 314 312 310
303 304 306 308 308 308 309 307 307 308 313 316 317 317 318 319 320 322 321 325 330 332 337 341 344 345 346 345 343 342 339 340 340 338 335 335 334 333 333 327 322 314 312 315 316 313 310 308 306
304 304 305 306 306 306 304 305 306 308 312 311 312 313 315 317 319 321 321 321 322 328 332 338 342 345 346 345 344 342 340 340 340 337 336 336 335 331 321 316 310 307 308 308 310 308 306 306 305
305 300 303 304 304 303 306 301 302 308 310 309 310 311 313 315 317 319 321 322 323 324 325 330 337 343 344 344 344 342 340 340 339 337 337 337 331 319 315 311 306 304 304 306 308 306 306 305 304
299 300 295 301 302 304 303 295 302 308 308 308 309 311 312 313 314 316 319 321 323 323 323 323 325 334 341 343 344 342 340 341 339 338 337 332 321 315 310 307 303 303 304 306 305 305 305 303 302
297 292 293 296 302 301 301 298 304 308 307 307 308 310 311 313 315 317 318 319 321 322 323 322 323 325 333 339 342 342 340 340 338 332 327 321 315 310 306 303 303 305 305 305 303 303 302 301 301
291 291 293 293 297 299 298 298 302 305 305 305 307 309 310 311 313 317 319 320 320 321 322 323 323 327 333 337 339 340 339 336 329 321 316 313 310 306 303 304 305 304 303 302 302 300 300 299 299
294 292 292 295 298 296 295 296 298 302 302 302 303 304 306 308 312 315 317 319 320 321 321 322 323 328 333 335 334 332 326 325 320 312 311 309 304 302 303 304 304 304 302 301 300 299 298 298 298
292 289 289 294 297 295 293 293 296 299 299 301 301 302 303 305 308 311 314 317 318 319 321 322 325 330 333 333 332 331 325 319 317 310 304 307 304 301 303 304 303 302 300 299 298 298 298 297 297
291 289 289 288 294 295 293 291 295 298 299 301 301 302 303 304 305 307 310 314 317 318 320 322 327 331 332 331 331 322 312 307 304 304 298 299 300 302 302 303 302 301 300 298 298 298 296 296 296
288 294 292 290 288 283 291 284 292 296 296 298 299 301 302 304 305 306 307 311 314 318 322 323 329 329 329 329 319 315 314 311 309 303 298 296 299 299 301 301 300 300 299 298 296 296 296 296 294
289 293 291 291 288 286 288 282 289 293 293 296 299 302 303 305 305 305 307 308 312 318 321 323 327 327 325 321 321 321 317 314 304 298 294 295 296 299 300 299 299 298 297 296 296 295 295 295 294
294 291 291 290 287 281 286 284 287 292 294 296 298 301 302 303 305 306 308 310 311 317 320 323 324 322 321 322 321 321 315 304 297 294 293 293 296 298 298 298 298 297 296 295 295 294 294 294 294
292 287 281 279 279 279 288 286 288 294 296 297 298 300 302 304 304 306 308 310 313 315 319 321 321 320 320 321 320 318 309 304 301 295 294 296 296 297 296 296 295 295 295 294 294 294 294 294 293
289 287 282 276 278 281 287 282 288 296 298 299 300 302 305 306 308 307 308 311 313 315 318 319 319 317 319 319 315 308 306 303 301 298 299 299 297 297 296 295 295 294 293 293 293 294 294 293 293
288 284 291 283 285 280 284 288 293 296 296 297 298 302 303 305 308 307 308 310 313 315 317 318 318 316 317 315 308 300 299 298 297 299 298 297 297 295 294 294 293 293 293 292 292 293 292 292 292
291 292 282 284 276 275 282 284 285 290 293 296 298 300 303 305 306 307 308 309 313 316 318 318 317 315 315 312 303 297 297 295 298 295 295 294 295 294 293 293 292 292 292 291 292 291 291 290 291
287 285 287 287 284 278 277 282 293 292 294 295 297 300 303 304 306 307 307 311 314 316 317 315 315 313 309 305 300 296 294 293 295 293 294 295 293 293 292 292 291 291 291 290 290 290 290 289 289
292 288 287 281 280 282 282 283 294 295 297 298 298 300 303 305 305 307 308 311 313 314 313 312 310 307 305 300 297 292 292 292 295 292 294 293 292 292 291 291 290 290 289 289 289 288 289 288 288

GFSSGP_sfc_thetae_027.txt.gz
Theta_e
338 330 328 322 308 307 303 305 308 307 308 314 316 314 314 318 315 312 337 341 341 347 353 353 356 354 351 347 344 343 342 340 340 343 346 341 339 338 338 335 335 334 333 335 337 336 337 337 337
331 326 324 316 304 300 302 308 305 308 312 315 315 315 314 315 324 331 334 340 342 348 350 351 356 354 351 347 345 344 340 340 342 344 342 338 334 336 335 336 336 333 333 333 334 334 334 334 334
329 324 314 309 304 300 302 308 309 311 314 313 313 318 318 319 327 331 339 341 342 347 349 351 355 353 350 347 344 342 341 341 344 343 340 337 335 335 336 336 336 333 333 333 333 334 334 334 334
323 319 314 304 302 306 307 309 310 310 313 314 315 313 321 328 329 335 340 340 342 346 349 352 353 353 351 347 344 342 339 339 346 342 340 336 335 335 335 336 337 334 333 334 334 335 335 335 334
323 315 305 302 302 306 310 311 311 309 311 313 314 313 317 328 334 338 339 340 341 345 350 351 354 353 351 347 344 341 339 340 341 339 337 337 336 337 338 339 338 335 334 334 335 336 336 336 336
312 312 301 298 302 307 310 312 311 310 312 312 312 314 318 331 333 338 341 339 341 344 347 350 351 351 351 348 345 342 340 339 339 339 338 340 338 340 341 341 338 336 335 335 335 337 338 337 338
310 307 301 302 302 304 308 313 310 310 311 311 315 311 319 326 336 339 340 341 341 344 345 348 350 349 348 348 347 345 343 342 341 340 339 340 338 344 343 341 339 337 336 337 338 338 338 340 339
313 308 302 302 300 302 309 311 312 311 310 316 316 310 314 324 337 339 339 340 340 342 343 345 348 350 347 346 345 344 344 342 342 342 342 338 336 342 343 342 340 339 338 339 339 339 338 334 329
318 305 299 302 302 304 310 308 313 315 312 314 316 316 320 324 335 336 336 337 338 339 341 342 346 347 345 344 343 343 342 340 339 338 337 335 335 336 337 335 337 337 338 337 334 330 328 327 325
310 302 302 306 307 306 309 309 310 310 310 311 314 318 320 324 328 331 332 332 335 337 339 342 343 344 344 342 342 341 339 337 332 332 335 334 334 334 333 332 334 336 334 329 325 321 321 324 325
309 302 306 307 310 311 309 309 312 309 308 311 311 315 318 320 324 326 330 332 334 337 339 342 343 343 344 342 342 340 340 338 335 332 331 331 331 331 331 333 332 333 330 327 322 322 321 320 318
303 307 308 309 310 310 308 311 309 310 311 314 316 318 318 318 320 321 324 328 331 334 338 341 343 344 344 343 342 340 338 338 337 336 333 330 329 329 330 332 334 331 326 321 321 321 317 315 312
304 306 307 309 309 309 310 308 308 309 314 316 316 317 317 318 319 322 323 325 329 331 336 339 342 344 345 344 342 341 338 338 338 337 334 330 330 330 332 332 328 323 319 319 319 317 314 310 308
306 306 306 308 307 308 305 305 306 308 312 312 313 313 315 316 318 320 322 322 324 330 332 338 340 344 344 344 342 341 339 338 338 337 334 333 333 333 331 327 320 314 312 312 313 310 308 307 306
307 302 305 306 306 305 307 302 303 309 310 309 310 311 312 314 316 317 320 322 324 324 329 332 338 341 343 343 343 341 340 339 338 337 335 334 335 331 326 317 311 308 309 311 310 308 307 307 305
301 302 296 303 305 305 303 296 304 309 309 308 309 310 311 312 314 316 319 321 325 325 324 326 332 338 341 342 343 341 341 339 338 337 335 335 334 325 321 314 309 306 309 309 307 306 306 305 304
299 294 296 299 305 303 302 299 305 309 309 307 308 310 311 312 314 315 317 319 321 324 325 325 326 329 335 339 341 341 340 337 337 336 335 336 328 322 317 310 306 307 308 308 305 304 303 302 302
294 294 296 295 300 300 299 298 303 306 306 307 308 309 310 311 313 316 318 319 319 321 324 324 325 324 327 335 339 340 338 337 337 337 336 330 320 312 309 307 308 308 307 305 304 303 302 301 300
297 294 294 297 301 298 296 297 300 303 303 303 304 306 308 309 313 316 317 319 320 320 321 322 323 325 326 331 334 337 334 335 334 334 328 320 315 310 307 307 307 308 306 304 303 302 301 300 299
295 293 293 296 298 296 295 295 298 300 301 302 303 304 306 307 309 311 313 316 318 319 321 321 323 325 327 333 337 338 334 329 331 325 319 313 311 307 306 307 307 306 304 302 302 301 300 299 299
294 292 291 291 295 296 294 292 296 300 301 303 304 304 305 305 306 308 309 312 317 318 320 322 323 326 330 333 337 333 319 315 312 313 311 310 307 306 304 306 306 305 305 302 301 301 299 298 298
290 296 294 293 290 286 293 285 293 297 298 301 302 302 303 304 306 307 308 310 313 317 322 323 324 327 332 335 332 327 316 312 310 308 307 305 303 303 302 303 305 304 303 301 299 299 298 298 295
291 295 292 292 289 287 289 285 291 296 295 298 301 303 304 306 307 307 308 310 312 315 321 324 325 328 332 332 332 327 318 320 311 306 302 300 301 302 301 302 303 302 301 299 298 297 296 296 295
295 292 291 291 287 280 287 287 288 292 295 298 301 303 303 304 305 306 309 310 311 314 319 324 324 328 331 331 328 322 322 316 305 303 301 298 299 300 301 302 301 300 299 298 297 297 296 295 294
293 288 283 281 280 280 290 287 289 295 297 298 299 301 303 304 306 308 307 308 310 313 314 322 323 326 328 328 324 322 324 313 306 302 300 298 296 297 299 300 298 298 298 297 297 296 295 294 293
290 289 283 277 280 283 290 284 289 297 299 300 301 301 303 303 307 310 311 311 310 313 315 319 322 324 324 324 324 325 316 311 306 303 300 300 298 298 301 299 298 297 296 295 295 295 294 294 293
289 284 291 284 285 281 285 289 294 297 297 298 299 300 301 304 307 308 311 311 310 313 316 318 321 323 323 324 324 320 312 305 303 300 299 299 299 300 298 297 296 295 295 294 294 293 293 292 292
291 294 283 284 276 277 284 285 287 292 294 297 297 299 301 304 306 308 310 310 311 313 316 319 321 321 321 322 320 313 306 302 300 300 301 299 298 297 296 296 295 294 293 293 293 292 292 291 292
288 285 287 288 286 279 279 284 295 293 294 294 297 300 302 304 305 307 309 310 312 313 317 318 319 319 320 317 309 305 301 299 298 296 296 297 295 296 295 294 293 293 292 292 291 291 291 290 290
293 288 288 282 281 284 283 283 296 296 296 297 297 300 303 303 305 306 308 311 313 315 317 317 318 317 317 308 302 300 298 295 298 294 294 296 294 294 294 293 292 291 291 290 290 289 290 289 289

GFSSGP_sfc_thetae_030.txt.gz
Theta_e
339 331 326 319 304 303 298 302 303 304 304 308 311 308 306 310 313 310 333 336 346 347 351 351 355 353 351 347 344 343 342 342 343 347 347 344 341 340 338 337 335 334 336 338 338 337 338 337 337
333 328 320 313 300 295 298 305 303 304 307 311 310 309 307 309 326 326 330 336 345 349 349 349 354 353 350 346 345 343 341 341 344 344 340 338 337 338 338 337 334 334 334 336 336 336 336 336 336
331 326 310 306 300 295 297 305 305 307 309 308 307 310 310 315 325 328 334 337 346 347 347 351 354 353 349 346 345 342 342 344 345 345 341 337 337 338 338 338 334 334 334 334 335 335 335 335 335
322 317 311 299 297 302 302 305 307 307 307 309 310 307 316 324 324 332 335 337 340 344 347 352 353 352 351 347 344 343 341 344 344 344 342 339 337 337 338 339 335 335 335 336 337 337 337 337 337
319 313 301 297 298 303 305 307 307 305 306 307 310 307 314 324 331 334 333 336 339 345 347 350 353 352 350 346 344 341 340 346 341 340 339 338 338 338 337 340 337 335 335 336 338 338 338 338 337
309 308 297 295 299 303 305 307 307 305 307 308 305 307 315 326 330 332 333 334 340 345 347 348 350 351 350 347 345 343 341 343 343 342 340 341 339 339 340 340 338 336 336 337 338 339 339 338 339
306 303 297 298 298 300 304 308 304 305 305 306 308 303 316 324 331 335 332 333 338 345 346 346 346 348 348 347 345 344 343 343 343 343 342 339 342 344 343 341 339 337 338 339 339 340 339 340 336
309 305 300 299 297 298 305 307 309 306 305 311 311 303 308 325 332 334 333 333 334 339 344 343 345 345 344 343 344 343 342 343 343 342 341 336 340 342 343 341 340 339 339 339 340 339 337 333 329
314 301 296 299 299 301 306 304 309 310 307 309 309 308 316 328 332 330 329 331 331 336 337 344 344 344 342 341 341 342 342 340 340 339 337 334 331 337 337 337 338 340 338 338 334 333 331 329 329
306 300 301 305 304 303 306 305 306 305 305 306 308 315 319 320 327 327 327 327 329 332 334 340 344 344 343 341 338 336 336 333 331 331 332 332 331 331 334 332 336 338 336 333 329 325 327 327 318
305 299 304 305 306 309 307 306 308 305 303 307 305 310 314 318 320 325 326 328 329 331 333 335 339 342 340 339 338 336 335 332 328 327 330 328 327 326 328 326 328 329 327 321 320 317 316 312 311
300 305 306 306 308 308 306 308 306 306 306 311 311 312 313 314 315 319 321 325 328 331 333 336 336 339 339 340 339 336 335 334 329 327 328 324 323 324 323 327 328 328 324 315 314 312 310 308 304
302 303 306 307 307 306 308 305 305 306 309 311 312 312 311 312 313 315 318 321 323 328 332 335 336 337 340 338 339 336 334 333 332 330 328 325 322 322 324 327 322 315 314 313 312 308 306 301 301
304 304 304 305 304 305 303 304 305 304 308 308 310 309 309 311 313 314 315 317 316 322 330 335 336 339 340 338 337 337 335 334 334 331 329 325 325 325 325 318 314 309 307 307 305 301 300 299 299
305 300 302 303 304 303 304 299 300 306 307 305 306 307 309 310 311 311 314 315 317 317 326 331 335 339 337 339 339 337 336 334 333 334 329 327 328 325 320 312 308 305 305 305 303 301 301 299 299
300 300 293 301 303 304 302 293 302 306 305 304 305 306 306 308 311 312 313 314 315 318 319 326 336 337 338 338 338 337 336 334 333 335 330 328 328 320 313 309 304 303 305 304 301 299 299 297 297
297 290 293 296 302 301 299 294 302 305 304 303 303 304 306 307 309 309 311 312 314 316 318 319 328 334 336 337 338 337 335 336 335 335 331 329 324 318 312 306 303 302 302 301 300 297 296 295 295
290 292 293 293 298 298 296 295 300 302 302 301 303 304 304 306 307 309 311 311 313 314 316 318 320 325 333 337 337 337 334 334 334 333 331 327 320 314 307 303 302 304 302 299 298 296 296 294 293
297 293 291 294 298 294 293 294 296 299 300 300 301 302 304 305 308 310 311 311 311 312 312 314 317 318 321 324 331 332 329 332 333 331 330 320 311 306 303 303 303 303 301 298 297 296 295 293 293
294 290 290 294 297 293 292 291 295 297 298 299 300 300 301 303 305 307 308 309 311 311 312 313 315 318 319 321 327 331 331 329 328 327 321 313 308 305 303 303 302 300 298 296 295 296 294 293 292
291 289 289 289 293 294 291 288 292 296 298 299 300 301 302 302 302 304 306 307 308 311 313 313 315 315 320 321 327 324 321 315 315 316 311 308 308 303 303 303 302 300 298 296 295 294 293 292 291
287 294 293 291 288 281 290 279 288 292 293 295 295 296 299 301 302 304 304 303 305 309 313 314 315 316 319 324 327 323 322 317 311 310 308 304 302 301 301 302 301 299 299 295 294 295 292 292 290
290 294 292 291 286 285 284 280 285 291 290 292 295 297 298 299 300 300 302 303 305 305 307 313 315 316 319 325 327 324 317 312 308 306 303 301 300 299 301 302 300 299 298 293 293 292 291 290 289
295 291 290 289 287 278 283 283 282 286 289 291 294 295 298 299 297 299 302 304 303 304 306 311 314 315 322 326 328 320 315 308 304 302 300 299 302 302 300 300 299 298 296 293 292 291 290 289 289
293 288 276 276 277 274 287 283 285 291 294 295 294 293 296 296 296 300 304 305 304 303 305 308 315 315 322 325 325 318 315 308 303 301 298 298 299 299 298 297 295 294 294 293 293 291 290 289 288
289 288 278 273 274 277 286 280 284 293 295 296 296 296 297 297 298 302 302 306 306 305 305 306 314 315 321 324 320 317 316 307 303 301 299 298 298 298 298 297 296 295 292 292 292 291 290 289 288
288 283 288 281 281 274 280 284 290 294 294 295 294 295 295 296 299 300 304 305 307 305 305 306 313 316 320 321 318 317 310 304 301 299 300 299 299 299 298 295 294 292 291 291 290 289 288 287 287
290 291 281 281 269 272 278 281 283 288 289 292 291 293 295 297 301 302 303 305 307 305 307 309 314 316 318 318 318 311 306 301 300 299 299 299 298 297 295 294 293 290 289 289 289 288 287 287 287
287 285 286 285 283 274 274 279 289 288 291 291 292 295 297 299 301 300 302 304 307 307 306 310 313 316 318 320 311 304 302 299 300 299 299 297 297 295 293 291 291 289 288 288 287 287 287 286 286
291 287 286 277 275 279 278 280 294 291 294 293 293 296 297 301 300 300 301 303 305 308 308 310 312 317 316 306 301 297 296 299 298 296 295 296 295 293 291 292 290 288 288 287 286 286 286 286 286

GFSSGP_sfc_thetae_033.txt.gz
Theta_e
337 331 322 312 299 297 293 298 301 301 300 303 306 305 303 306 309 307 329 342 346 349 351 351 354 353 350 347 345 344 344 346 347 347 346 344 341 339 337 335 335 339 340 340 340 341 340 339 337
331 328 313 305 295 290 293 300 301 301 305 306 307 305 304 314 322 325 329 345 347 349 349 349 353 353 349 345 345 344 342 343 348 347 343 341 340 338 336 335 335 336 338 338 337 337 338 337 337
331 325 305 300 294 291 293 299 301 304 306 305 304 306 305 315 323 326 332 346 348 347 348 350 353 352 348 346 344 342 343 347 347 345 342 340 339 340 338 335 335 335 335 335 335 336 336 336 337
318 310 305 294 293 297 299 301 303 303 305 308 306 304 314 323 325 330 334 347 345 345 348 351 352 351 350 348 345 345 346 346 345 344 342 342 340 340 340 336 336 336 337 337 337 337 338 338 337
314 306 295 292 294 297 300 303 304 302 303 304 306 303 312 324 329 331 334 346 343 344 348 349 353 352 350 348 347 345 346 347 345 342 339 339 339 339 341 337 336 336 337 338 339 339 339 338 339
304 302 292 292 294 298 301 304 302 303 302 303 303 303 313 325 327 329 331 341 345 344 347 348 350 350 349 347 346 344 347 346 344 343 341 340 341 340 342 339 337 337 338 339 340 340 340 340 340
301 296 292 292 293 296 301 305 301 303 302 303 304 301 315 322 327 330 330 343 344 345 345 346 346 346 347 346 344 344 347 346 344 344 343 341 342 344 342 340 338 338 339 340 340 340 341 339 336
303 300 295 294 295 295 302 302 305 304 302 307 307 302 312 323 330 331 328 342 343 343 343 343 343 344 342 341 343 343 343 344 344 344 340 339 341 342 343 341 340 339 340 340 341 341 338 334 330
307 295 292 296 297 299 304 301 306 308 304 306 306 309 319 328 330 327 325 329 339 342 342 342 342 341 340 339 339 341 341 341 340 340 335 335 336 337 337 336 339 341 340 339 337 337 334 330 329
301 296 297 301 302 300 303 304 304 303 303 301 306 313 319 327 326 325 325 325 330 336 339 341 341 341 340 341 337 335 336 333 333 333 331 328 331 333 335 334 337 340 339 336 333 330 330 327 317
300 296 303 305 305 305 305 305 306 302 299 303 303 308 314 318 323 325 325 326 326 330 338 342 342 342 339 338 336 333 332 329 328 328 330 328 327 330 328 328 331 329 328 324 322 317 313 309 307
297 302 304 305 306 305 303 306 304 303 303 307 307 309 310 312 318 322 324 326 326 329 331 341 342 342 339 338 335 333 332 329 325 325 328 324 322 326 324 324 325 325 322 315 312 311 307 303 300
298 301 304 305 304 303 305 303 302 303 307 308 308 308 307 309 311 314 318 322 326 329 331 333 340 339 337 336 335 334 333 332 327 325 327 323 323 322 322 324 325 318 315 312 309 304 301 299 298
300 301 302 303 303 303 302 301 302 303 306 304 305 306 305 307 310 311 312 313 316 327 331 334 334 339 337 336 335 334 334 333 330 327 326 323 323 321 322 317 314 310 308 305 302 299 299 298 297
302 297 300 301 302 301 303 297 298 303 304 303 303 302 305 306 308 309 312 311 314 314 330 333 335 338 337 336 335 335 335 334 331 330 327 323 323 322 317 312 308 306 305 303 300 300 298 297 297
297 297 290 299 301 302 300 292 300 303 302 301 304 304 304 306 306 307 309 310 311 314 321 333 336 337 337 336 335 336 336 333 331 331 329 324 324 319 313 309 305 303 303 301 299 298 296 295 294
294 287 290 294 301 300 298 292 301 303 301 299 300 302 305 305 306 305 308 310 311 311 314 327 334 336 337 337 337 337 334 332 331 330 328 327 320 315 312 307 303 302 301 299 299 295 295 293 293
289 288 290 290 296 297 295 294 298 300 299 298 298 300 300 303 305 308 308 307 310 312 312 314 330 335 337 337 337 335 330 333 333 331 328 325 318 313 308 304 302 301 300 297 296 294 293 292 292
295 293 289 291 296 292 291 291 293 296 295 297 299 299 300 303 306 306 306 306 306 307 308 312 318 332 335 335 333 333 329 331 332 332 327 322 317 310 306 303 301 301 298 296 295 294 293 291 291
293 289 287 291 294 291 290 290 294 295 296 297 298 297 298 301 301 304 304 305 307 308 308 308 312 321 332 334 335 331 327 327 329 329 323 316 311 307 305 303 301 300 297 295 294 294 292 291 290
289 287 287 287 291 290 288 285 288 293 295 297 298 299 300 300 301 300 301 303 304 306 307 310 309 314 319 326 327 323 320 317 317 316 313 309 308 307 304 302 301 298 296 295 294 293 293 291 290
286 292 291 290 285 279 287 277 284 290 291 293 293 295 298 299 300 299 300 299 300 302 306 309 311 311 315 316 324 326 326 323 317 315 309 307 306 304 303 301 299 298 296 294 293 293 292 292 289
289 293 290 289 284 281 281 277 282 287 287 290 291 292 294 298 299 299 300 302 303 301 302 306 310 312 313 317 324 326 325 318 310 307 305 306 304 304 303 302 300 299 298 293 292 293 290 290 289
294 289 287 286 283 271 280 280 279 283 287 289 290 292 294 296 296 297 299 301 300 300 300 303 307 309 311 317 323 325 319 309 306 305 302 302 302 303 303 303 301 299 296 294 293 292 291 289 288
291 282 271 271 275 273 283 280 281 288 291 291 292 293 292 294 295 299 302 303 303 303 304 302 305 309 311 317 323 321 314 311 307 304 301 301 300 301 300 300 299 298 296 294 293 291 289 288 288
287 284 273 270 271 275 283 278 283 292 295 294 295 295 296 295 296 300 302 303 303 304 304 303 303 308 312 322 321 318 311 309 306 304 301 301 301 300 299 298 298 297 295 293 291 290 289 288 287
286 279 286 278 278 270 278 281 287 291 291 291 290 292 292 293 296 299 301 302 303 303 304 303 303 309 316 320 317 314 309 307 304 300 300 300 300 300 298 298 297 296 294 293 291 288 287 286 286
288 289 279 275 266 270 275 277 281 285 288 290 290 292 295 296 297 298 300 302 303 304 304 304 303 310 316 317 316 308 306 303 301 299 298 298 299 299 297 296 295 294 292 290 289 286 286 286 286
286 285 286 282 277 272 272 277 286 287 288 288 290 291 294 297 298 299 300 302 303 304 305 306 306 311 314 314 309 305 302 301 299 299 299 298 298 297 296 295 295 293 290 289 287 286 286 285 285
288 284 283 274 273 276 274 278 293 292 290 293 294 297 299 300 300 299 300 302 302 303 306 308 307 312 311 306 304 301 301 300 300 299 299 298 296 295 295 293 292 290 289 287 285 285 285 285 285

GFSSGP_sfc_thetae_036.txt.gz
Theta_e
334 328 320 310 298 296 291 296 299 301 300 303 305 305 302 306 307 303 328 340 346 347 350 350 353 353 352 350 349 350 350 350 349 347 345 343 340 338 335 336 340 341 342 343 345 345 343 340 338
330 325 312 303 294 289 291 296 299 302 304 305 304 303 303 312 321 329 333 344 347 348 349 348 353 352 349 346 345 345 347 347 348 347 345 342 340 336 335 335 338 339 339 339 339 339 339 338 336
327 323 305 299 293 291 292 298 299 303 304 304 302 305 309 314 322 329 336 346 347 347 347 348 353 351 347 346 345 344 345 348 348 346 343 340 338 336 335 335 336 337 337 336 336 336 336 336 337
316 309 303 294 293 296 297 298 301 302 304 304 304 303 314 321 324 329 344 346 345 345 346 350 352 350 349 347 345 343 346 347 344 345 343 339 340 337 336 335 335 335 336 336 337 336 336 336 336
312 303 294 291 293 296 298 301 302 301 302 303 304 302 311 324 327 341 343 345 343 344 346 348 351 350 348 346 347 347 348 344 341 340 340 341 341 340 336 336 336 337 338 338 339 339 339 339 339
304 301 291 290 292 297 299 300 299 300 302 302 302 308 313 323 327 337 344 342 344 344 346 347 349 350 349 347 347 349 350 346 343 343 342 340 340 342 339 336 337 337 338 339 340 340 340 340 340
301 295 292 291 293 296 300 302 299 301 301 303 304 303 313 320 326 329 340 342 344 345 345 345 346 346 347 346 345 348 349 346 344 343 344 343 343 343 341 338 337 338 339 340 340 340 341 339 336
301 298 292 292 293 294 300 301 302 301 301 305 305 311 311 321 327 331 339 340 342 343 344 344 344 343 341 340 343 345 345 343 343 344 342 340 340 341 343 340 340 339 340 340 340 341 338 334 330
304 294 291 294 295 296 302 300 304 306 302 303 304 314 320 327 328 326 336 336 338 340 341 342 341 339 338 337 338 342 343 342 342 340 336 336 336 338 337 336 338 341 340 340 339 338 334 330 326
299 293 295 300 301 299 301 302 304 302 301 300 307 315 324 326 325 323 331 333 335 336 338 341 340 339 338 338 334 333 336 334 334 333 329 332 333 334 335 333 337 341 340 338 336 335 330 323 315
299 295 301 303 305 304 303 303 305 301 299 301 303 312 318 321 323 323 326 331 335 337 338 340 340 339 338 337 334 331 331 330 330 330 328 327 331 330 330 329 332 330 330 325 321 316 312 307 303
296 301 303 304 306 303 301 304 302 302 302 306 306 306 309 313 314 322 325 324 328 336 337 340 340 339 337 337 335 333 331 328 327 328 329 325 323 326 325 326 326 325 321 316 312 310 305 299 299
296 298 302 304 304 302 303 302 301 302 306 307 305 307 306 307 311 316 322 325 326 330 337 339 340 339 338 335 334 332 331 329 327 326 327 326 322 327 325 323 324 323 319 311 309 304 299 297 297
300 301 300 302 302 302 301 300 300 301 305 305 305 304 304 306 307 308 311 315 320 328 330 340 340 340 338 336 333 332 332 331 326 324 325 324 324 325 322 322 322 317 313 309 303 298 298 296 296
301 297 298 300 300 300 301 298 296 302 304 302 302 302 304 304 306 306 308 310 311 318 330 333 340 340 336 336 333 333 333 332 329 326 324 324 324 321 320 319 315 310 305 301 298 298 297 296 295
297 295 290 297 299 300 300 292 298 302 299 300 301 301 302 305 305 306 307 308 309 311 317 330 336 339 336 336 335 334 333 333 330 328 326 324 323 321 317 315 311 306 302 300 299 297 295 294 293
292 285 289 293 300 299 297 292 300 304 300 299 299 300 301 303 305 303 306 308 309 308 311 325 333 336 336 336 335 334 333 332 330 330 327 324 322 318 315 312 307 303 301 299 298 295 294 292 292
288 287 288 290 295 295 294 293 298 299 298 298 298 299 300 301 304 307 305 306 309 310 307 318 330 334 335 335 334 333 331 330 330 330 328 323 320 315 313 307 304 301 299 297 295 294 292 291 291
293 292 290 291 295 291 290 289 292 295 294 294 297 297 298 300 304 304 304 304 304 304 305 308 323 331 335 333 332 331 329 328 329 330 327 323 318 314 311 306 302 300 299 296 295 293 291 290 290
295 289 288 290 293 291 289 289 293 294 295 296 297 298 299 299 301 301 303 304 304 305 304 304 310 327 333 335 335 333 331 330 329 331 326 322 317 314 310 305 302 300 297 295 294 294 292 290 289
291 286 286 286 290 289 287 287 288 291 293 295 297 298 299 299 299 301 299 301 302 303 305 306 306 316 329 334 330 322 321 319 318 319 323 320 317 314 312 306 303 299 297 296 294 293 293 290 289
285 291 290 288 285 279 286 277 283 288 289 291 291 291 294 296 298 299 301 299 300 301 302 305 307 308 320 327 327 326 326 323 325 324 317 311 313 313 308 304 304 299 297 295 294 294 292 291 289
288 292 289 288 283 280 280 277 281 285 287 288 290 291 292 293 296 297 297 299 300 300 299 301 304 307 310 318 328 327 327 327 314 310 310 309 309 309 307 305 302 299 299 297 296 292 292 291 291
293 288 286 285 281 271 279 279 278 282 285 287 288 291 292 294 294 296 297 298 298 299 299 299 301 304 307 310 319 326 326 314 310 307 307 306 305 305 305 303 302 301 299 297 296 294 293 292 290
289 282 272 270 273 273 281 278 280 286 290 289 291 292 292 294 294 294 299 302 302 303 303 303 302 303 305 307 313 321 321 315 313 309 309 304 303 301 302 303 301 300 297 297 295 294 292 291 290
286 283 273 270 271 274 282 278 282 289 291 291 291 291 292 292 292 295 299 301 302 302 303 303 303 302 304 306 313 319 319 317 315 311 309 307 306 303 303 302 301 298 297 296 295 294 291 291 289
285 279 285 277 276 270 276 280 284 288 288 289 290 294 295 295 294 298 300 301 301 302 303 304 304 303 303 306 316 317 315 311 308 306 305 303 302 302 301 300 298 298 295 295 293 292 289 290 288
288 289 277 272 264 269 274 275 279 283 286 288 289 290 292 295 297 298 299 301 301 301 302 304 305 304 303 310 315 313 310 308 305 302 302 301 301 300 300 300 297 295 295 294 293 291 289 288 287
285 283 282 280 275 270 271 276 284 284 287 288 290 291 293 295 296 297 298 300 301 301 302 305 307 306 307 312 308 305 304 302 301 301 301 301 301 299 298 296 295 294 292 291 292 290 288 287 287
287 284 282 272 271 274 273 278 289 288 288 290 294 295 297 300 302 303 302 299 301 302 302 305 307 306 310 309 305 302 300 300 300 300 300 300 299 297 296 294 293 292 292 292 290 288 287 286 285

GFSSGP_sfc_thetae_039.txt.gz
Theta_e
331 326 316 308 297 295 291 295 298 299 300 301 302 302 303 304 305 301 326 339 344 347 349 351 355 354 354 353 353 353 352 350 348 347 344 341 339 335 337 341 342 344 346 347 348 347 344 341 338
329 322 310 302 292 287 290 296 298 300 302 304 302 301 305 310 320 327 331 341 346 347 348 347 354 353 352 352 351 351 351 350 348 346 344 341 338 335 336 339 338 341 342 342 341 340 339 337 335
324 318 304 298 292 289 289 296 299 301 302 301 300 304 307 311 321 329 332 345 346 346 346 347 353 352 350 348 348 348 349 348 347 346 343 340 336 335 335 337 339 338 338 338 338 338 337 337 337
314 310 303 294 292 296 296 297 299 301 304 303 302 306 314 322 325 330 342 345 344 344 344 349 352 351 349 348 346 345 347 348 347 345 342 339 336 336 335 336 336 336 336 335 335 335 336 337 337
310 302 294 291 294 296 297 300 299 300 300 301 303 302 312 322 328 340 343 344 343 342 344 347 351 349 347 346 344 346 347 348 344 342 341 340 338 336 336 335 336 336 336 336 337 338 338 339 338
303 300 290 289 293 295 298 299 298 298 299 302 300 308 311 321 335 339 343 342 344 342 345 346 348 348 348 345 345 348 348 345 343 343 340 341 340 337 336 336 337 337 338 339 339 339 339 339 339
301 296 292 291 292 294 297 300 298 299 299 301 302 307 312 318 329 341 340 340 343 344 344 343 344 345 346 345 347 348 348 345 343 344 344 343 343 341 337 337 337 338 339 339 340 340 340 339 334
301 297 291 291 291 293 298 300 301 299 300 304 310 306 309 320 328 338 338 339 340 342 343 341 341 342 341 340 345 346 346 344 342 343 342 341 340 341 341 339 339 339 340 340 340 340 337 333 328
303 293 290 292 293 295 300 299 303 304 301 302 303 312 316 324 334 335 335 337 340 341 341 343 340 339 337 336 338 343 343 342 341 340 338 336 334 336 337 335 338 341 340 340 341 339 333 329 327
298 292 294 299 299 297 301 300 302 302 300 299 306 317 323 324 332 332 333 334 335 337 339 341 340 338 336 338 334 334 338 335 335 333 330 331 332 334 335 332 336 341 341 340 339 336 329 320 306
298 294 299 302 303 303 301 301 303 300 299 299 300 307 313 320 320 331 332 334 335 337 339 339 340 338 336 335 332 331 332 331 331 330 327 329 331 331 330 329 331 331 332 327 323 317 311 305 301
295 300 302 303 305 303 299 302 300 302 302 305 305 306 306 313 318 321 329 333 334 336 337 339 340 338 336 335 333 331 331 328 327 328 327 326 326 327 326 326 326 326 323 319 311 308 302 299 298
296 298 302 303 303 301 302 299 300 301 305 305 306 306 305 305 306 314 323 326 331 335 336 338 339 338 336 334 333 331 330 329 329 328 328 325 324 326 325 324 324 323 318 313 310 303 298 296 296
299 300 300 301 301 301 300 299 299 299 304 304 303 304 304 304 305 305 312 321 324 333 336 338 338 338 337 335 333 331 331 330 328 328 328 327 324 325 325 322 322 320 317 310 306 299 296 295 295
299 295 297 299 299 299 300 296 295 301 303 301 303 301 302 303 304 304 306 309 316 324 331 337 338 339 337 336 334 332 331 331 327 326 325 327 324 323 324 322 320 318 313 307 298 296 296 295 295
296 294 289 296 299 300 299 291 298 301 299 299 299 300 301 302 304 305 306 306 308 310 321 332 340 339 338 336 334 333 331 331 329 326 323 324 324 322 320 320 317 311 304 299 297 296 294 293 293
291 285 288 293 299 297 296 290 298 301 299 298 299 300 300 301 302 303 306 305 306 308 310 322 334 338 338 336 335 333 331 331 329 328 324 322 323 321 319 317 314 306 301 298 298 295 294 292 291
287 286 287 288 293 294 293 291 297 299 298 297 297 299 300 300 302 303 304 305 306 305 306 311 327 334 338 336 334 333 330 331 329 330 327 323 321 319 317 313 308 304 300 297 296 294 292 292 291
291 290 288 290 294 290 289 288 292 295 293 293 294 297 298 300 303 302 303 304 303 303 303 305 320 329 334 333 330 330 328 329 327 329 329 324 321 318 315 312 306 303 301 298 295 293 292 290 289
295 289 287 290 292 289 288 287 292 294 295 296 297 297 298 300 299 300 301 302 303 304 303 302 308 327 331 333 333 332 331 330 330 329 328 323 320 318 314 310 306 303 298 295 294 294 291 290 289
294 289 286 286 289 288 286 284 287 291 292 293 296 298 298 298 299 301 300 299 301 301 303 305 303 312 329 333 333 323 323 319 320 323 324 323 321 317 316 312 308 303 301 297 295 294 293 290 288
287 290 290 287 284 280 286 277 284 288 289 290 291 291 293 295 297 298 299 297 297 299 301 303 305 305 315 330 331 328 327 324 325 327 325 317 318 316 316 312 307 304 301 298 298 295 293 291 289
289 291 288 287 282 279 280 277 282 285 286 288 289 290 291 292 293 294 296 297 298 298 298 299 301 304 306 319 329 328 327 327 325 323 319 314 313 314 314 311 307 304 303 303 300 295 295 292 291
293 288 284 283 280 271 278 278 279 282 284 286 288 292 291 291 292 294 294 296 296 297 297 297 299 300 303 306 316 325 326 319 315 311 316 310 309 310 309 308 306 305 304 302 300 298 296 294 293
288 282 272 270 271 272 280 278 281 285 289 289 289 289 291 292 294 292 296 299 301 301 302 303 302 303 302 304 306 318 325 317 317 316 317 311 308 306 307 306 304 304 303 301 299 297 297 294 292
284 282 273 270 270 273 280 277 282 287 288 289 292 291 293 294 295 297 298 299 300 300 301 302 302 303 303 302 304 309 318 320 320 317 316 313 312 311 308 305 303 302 299 298 297 296 295 295 291
285 277 283 276 274 270 277 280 283 288 288 288 289 291 291 293 294 296 298 299 300 300 300 302 303 303 304 304 302 308 315 318 315 313 313 312 310 307 304 304 301 299 299 298 296 294 293 292 291
287 288 277 272 267 269 273 275 278 282 285 288 288 289 291 293 295 296 296 298 300 300 300 301 303 305 306 305 304 309 314 315 314 309 307 304 303 303 303 302 301 298 296 295 294 292 291 290 290
284 282 281 280 276 271 271 276 283 283 285 287 289 291 293 297 300 300 299 298 298 299 300 300 303 305 306 306 307 307 305 304 302 302 300 301 300 300 301 300 298 295 293 292 291 291 291 290 289
286 283 281 272 271 273 275 277 288 286 287 290 292 296 300 303 301 298 300 300 297 299 300 303 304 303 306 306 304 301 299 299 298 298 298 300 300 301 299 296 294 292 292 292 291 291 290 289 288

GFSSGP_sfc_thetae_042.txt.gz
Theta_e
331 323 313 307 296 294 289 293 296 297 297 299 301 300 301 303 305 301 325 338 342 344 349 351 356 356 355 353 355 354 352 351 349 347 344 341 338 336 339 342 345 346 346 347 348 346 344 341 337
326 319 309 301 292 286 288 294 296 298 301 301 301 301 304 307 320 324 330 338 345 347 348 348 355 355 353 354 354 353 351 349 348 346 343 341 337 336 340 342 343 344 345 344 343 341 339 336 334
322 314 304 298 290 287 288 294 297 299 302 299 300 302 304 310 320 327 329 342 346 345 346 347 354 354 354 353 351 351 351 349 347 345 342 340 336 336 339 338 340 341 341 340 340 339 338 337 337
314 309 302 293 291 294 293 296 297 299 302 302 301 302 313 321 323 330 340 344 343 341 342 349 353 353 353 351 350 350 350 349 347 345 342 338 336 336 337 339 338 338 337 337 336 336 337 338 338
308 302 294 291 293 295 295 299 298 297 298 299 300 300 308 321 329 338 342 344 342 339 342 346 352 351 349 347 347 348 347 348 347 344 341 337 337 336 336 337 336 336 336 336 336 337 338 339 339
302 299 290 290 293 296 296 299 297 296 297 300 298 304 310 321 332 339 343 342 343 341 343 345 348 349 348 347 346 347 348 349 346 344 341 339 337 337 336 336 336 337 337 338 339 340 340 340 340
300 296 291 290 293 293 296 299 296 297 296 298 302 304 311 316 332 340 341 342 342 342 342 342 342 344 346 346 345 346 350 347 345 344 343 343 341 338 337 337 338 338 339 340 340 340 340 338 332
301 298 291 291 291 292 297 299 299 299 299 302 305 302 306 315 337 339 339 340 341 341 341 339 338 340 339 339 345 346 345 344 343 344 342 340 340 339 339 339 339 339 340 340 340 340 337 330 329
302 293 289 292 293 295 298 297 302 303 299 301 302 306 315 325 337 336 336 338 339 341 340 338 337 338 337 336 340 344 344 341 341 340 338 336 333 336 335 334 337 340 341 340 340 338 332 327 327
297 291 293 298 297 296 299 299 300 301 300 298 303 315 321 331 334 332 332 334 335 335 338 341 339 336 335 338 334 336 338 336 334 334 333 331 330 332 334 331 336 340 341 341 340 336 328 316 303
298 292 298 300 302 303 300 300 302 298 297 299 299 303 312 318 329 331 332 334 335 336 338 340 339 337 335 335 331 331 333 332 332 331 329 328 330 330 330 328 330 331 332 328 326 316 308 302 299
295 300 300 302 304 302 299 300 298 301 301 304 305 305 305 309 319 324 330 333 335 336 337 338 339 338 335 334 331 330 332 330 330 329 327 326 326 327 327 326 326 327 324 319 312 307 300 299 296
296 298 301 303 303 301 301 298 298 299 303 304 305 305 304 303 305 308 320 329 335 335 336 337 339 337 337 332 331 329 331 331 332 328 327 325 326 326 325 325 324 324 320 316 309 303 297 296 295
299 300 300 301 301 300 298 298 298 299 301 302 302 304 304 303 304 303 307 319 329 335 336 337 338 338 337 334 331 330 329 329 328 328 328 325 326 326 325 323 322 321 318 312 308 299 296 295 294
299 294 296 298 299 299 299 295 295 301 302 300 300 301 303 303 304 304 305 308 321 331 336 336 338 338 337 335 333 331 330 329 328 328 326 327 324 325 325 323 320 320 317 309 301 296 295 294 294
295 294 288 295 298 299 299 289 297 300 298 299 298 298 299 302 304 304 305 305 306 318 327 336 338 338 337 337 335 333 330 330 328 327 326 327 325 323 323 322 321 318 312 304 298 296 294 293 293
290 284 288 292 298 296 295 289 296 299 297 297 297 297 298 299 301 302 304 304 304 306 310 326 336 337 337 337 335 333 331 330 329 327 325 324 325 323 323 321 320 314 306 300 298 294 294 292 291
287 285 287 288 292 293 292 290 295 297 297 297 297 297 298 299 301 303 303 304 305 304 305 308 324 336 337 337 336 334 331 330 329 327 326 321 324 322 321 319 316 312 303 298 296 294 292 292 291
291 289 287 289 293 290 289 288 291 295 293 293 294 295 297 299 302 302 302 303 303 303 303 303 308 325 335 336 333 332 330 330 328 329 328 323 322 320 320 319 315 311 305 300 297 293 292 290 291
292 288 286 290 291 289 288 287 291 294 294 295 296 296 297 298 300 299 299 300 301 303 302 302 304 312 327 334 334 332 332 331 330 329 329 326 322 320 319 317 313 310 305 297 296 294 291 290 290
293 289 286 286 288 286 285 285 286 290 291 292 294 294 295 296 296 298 297 298 298 299 301 303 302 308 319 330 333 324 324 322 325 325 327 326 322 320 320 315 313 308 306 301 298 296 294 291 289
289 291 290 287 284 280 285 278 284 287 287 288 288 289 290 291 293 294 295 295 296 298 299 301 303 303 311 324 329 327 327 326 326 327 328 325 321 320 319 316 313 308 307 304 301 301 303 296 290
291 291 288 286 282 279 280 277 282 284 285 287 287 289 290 291 291 292 294 295 296 297 297 298 299 302 304 312 328 327 326 327 324 325 323 323 319 320 318 316 313 308 306 304 302 301 299 299 294
292 287 284 283 280 271 277 277 278 281 282 286 287 289 291 293 295 297 298 300 300 300 300 299 297 298 301 305 315 326 326 326 319 317 320 314 314 315 316 315 311 309 305 303 303 302 301 298 296
288 283 273 271 269 272 279 277 280 284 287 287 287 290 291 292 293 295 297 298 299 300 300 301 301 301 301 299 303 320 326 325 320 320 320 315 311 310 312 313 309 306 306 305 304 301 300 299 297
284 283 274 270 270 273 280 276 280 286 287 288 290 289 291 292 292 294 296 297 298 299 299 299 300 302 302 302 301 302 310 321 320 320 320 317 314 314 313 311 310 308 306 304 302 301 300 298 296
284 277 282 275 273 269 275 279 282 285 286 287 288 291 291 292 294 296 296 296 298 299 300 299 300 301 303 303 303 301 303 309 317 316 317 317 314 312 310 309 307 306 304 301 300 300 295 294 294
286 287 276 272 266 269 273 274 276 281 283 287 290 289 290 293 296 297 297 297 299 299 300 299 299 301 303 304 304 304 303 307 313 313 311 310 308 306 305 305 303 302 300 300 299 295 293 292 291
284 281 280 279 275 270 271 275 282 283 285 287 289 290 292 297 300 298 298 300 300 299 298 298 300 301 301 302 305 304 305 306 306 305 302 301 301 302 302 301 299 298 298 297 295 292 291 290 290
285 283 281 272 270 274 273 275 286 286 286 288 290 295 301 301 300 298 297 298 297 298 299 298 297 297 297 298 300 300 299 299 298 298 298 298 298 299 299 298 295 295 294 293 292 291 291 290 289

GFSSGP_sfc_thetae_045.txt.gz
Theta_e
332 321 317 314 304 301 295 297 301 302 303 306 307 307 308 309 312 310 335 342 343 345 351 352 357 358 358 358 356 355 354 352 349 346 343 341 339 339 341 344 346 344 344 347 348 346 343 340 336
328 320 315 307 299 293 294 299 300 303 306 306 305 307 311 312 324 329 335 343 344 349 350 351 356 357 356 357 356 354 352 350 349 347 343 340 337 338 342 344 347 348 348 346 345 342 338 336 337
323 316 310 304 295 293 294 298 301 304 306 305 306 309 310 314 325 332 338 345 347 349 350 352 356 356 354 354 356 353 352 350 348 346 343 339 336 338 342 343 344 344 343 343 342 340 338 338 339
318 314 307 298 295 297 298 301 303 303 306 306 305 305 316 325 326 335 342 347 347 348 349 353 354 353 353 354 354 352 351 349 348 344 342 338 336 338 338 341 341 339 339 339 339 338 338 339 339
312 308 299 296 296 299 301 302 303 303 303 304 305 305 311 325 336 341 344 346 345 346 348 349 353 354 353 352 352 352 351 349 347 345 342 337 337 337 339 338 338 337 337 337 337 338 339 340 340
306 304 295 294 296 300 302 304 303 302 303 305 304 307 313 331 337 339 343 343 345 345 347 348 349 351 350 350 349 350 350 349 347 344 341 338 337 337 337 337 337 337 337 338 339 340 341 340 339
304 300 296 295 297 298 300 304 302 302 303 304 307 306 314 324 337 339 341 342 342 346 346 347 346 347 347 347 347 348 349 350 348 346 343 341 340 338 337 337 338 338 339 340 341 341 340 336 332
305 302 295 295 295 297 301 302 304 304 303 307 309 306 309 323 338 339 340 339 341 345 345 345 346 345 345 344 344 345 347 346 345 344 342 340 338 338 339 339 340 340 340 341 341 340 334 331 332
305 298 293 296 295 298 301 300 306 307 305 306 308 311 319 327 337 336 336 337 338 341 344 345 344 344 343 342 341 344 343 342 341 341 338 337 339 337 336 335 337 340 341 341 341 337 330 328 332
302 296 295 299 301 299 302 303 305 305 303 304 308 311 327 332 334 332 331 331 334 337 340 342 343 342 342 340 342 345 344 341 339 340 340 340 340 340 337 333 336 340 340 341 341 333 325 317 315
300 296 299 301 302 304 303 303 305 303 302 305 304 308 318 328 332 331 331 333 334 336 338 339 341 342 341 340 340 342 343 339 338 339 339 338 337 339 339 336 336 339 335 339 336 326 320 312 311
298 300 301 303 305 304 303 304 303 304 305 308 309 309 309 324 326 330 330 333 334 336 337 339 343 341 341 341 338 338 340 339 337 337 337 336 336 336 338 336 336 338 338 333 329 321 313 309 306
298 300 303 305 304 303 304 302 302 302 306 307 307 308 309 309 312 323 332 335 335 335 337 338 340 339 339 339 338 337 337 339 337 337 335 335 335 334 335 336 335 335 335 330 323 314 309 306 305
301 301 301 303 303 303 300 300 301 303 305 305 305 307 307 308 310 310 311 323 335 337 337 339 338 340 339 336 337 336 335 337 338 337 336 334 334 334 335 335 333 333 332 328 321 312 307 306 304
300 297 299 300 301 301 302 297 297 303 304 304 304 304 306 307 309 308 311 311 321 335 339 339 339 340 339 337 338 337 336 335 336 336 335 334 333 334 335 334 332 332 330 325 317 308 305 303 302
297 297 291 298 299 301 300 291 299 302 302 302 303 303 303 305 306 308 309 309 311 318 333 339 340 339 339 338 337 338 336 336 334 335 335 334 332 333 334 333 331 331 328 321 314 307 304 303 303
293 287 289 293 299 298 298 292 299 302 300 300 301 301 301 303 304 306 307 308 310 310 313 329 339 339 339 338 337 336 336 335 335 333 333 333 333 331 332 332 331 330 326 318 311 305 304 302 301
288 287 290 290 294 296 294 293 298 299 297 298 299 300 302 302 304 307 308 308 309 309 310 312 328 338 341 340 338 336 334 334 336 333 332 331 331 330 330 330 330 328 324 318 308 305 302 303 302
292 290 289 292 294 293 292 291 294 296 296 296 297 299 300 301 303 305 306 307 307 308 308 308 310 324 338 336 335 334 331 332 332 333 332 329 329 329 329 328 328 326 323 318 311 304 301 299 300
292 289 289 292 293 292 289 289 293 296 296 297 297 297 298 299 300 301 302 303 303 305 307 307 307 310 322 335 337 336 334 333 333 333 332 331 328 327 328 328 326 324 321 315 308 304 300 300 299
293 290 289 289 290 290 287 288 289 292 293 293 293 292 294 296 295 297 299 300 300 301 303 305 307 308 312 325 335 335 333 329 332 330 330 331 328 327 326 326 325 322 320 314 309 305 304 299 297
290 292 291 288 287 284 287 282 287 288 289 289 292 293 294 295 297 298 300 302 302 302 302 302 304 306 308 316 329 332 328 326 329 330 331 330 330 326 325 325 323 321 319 316 310 305 305 304 298
291 293 289 287 284 284 283 282 285 286 287 288 291 293 294 296 297 299 301 303 304 305 305 304 302 302 305 308 321 330 329 329 331 331 330 330 328 327 325 324 322 319 318 318 313 306 304 305 303
292 288 286 284 283 279 281 280 282 284 287 288 291 293 294 295 297 300 302 303 303 305 306 306 306 306 304 305 308 322 329 329 328 328 327 328 326 324 324 323 321 320 317 315 311 310 308 306 305
289 287 279 276 275 278 281 280 283 286 289 290 291 292 294 295 298 300 300 301 303 303 304 305 305 305 307 306 305 307 318 328 328 328 327 327 321 320 321 322 321 319 316 316 313 310 308 306 305
287 286 280 274 274 276 281 278 283 288 289 292 293 292 293 296 298 300 301 301 302 303 304 304 304 304 305 307 308 307 307 312 325 326 327 326 323 322 323 321 321 319 316 313 312 310 309 307 305
286 283 284 277 276 275 278 281 284 288 288 290 291 294 295 297 299 300 301 301 302 303 303 303 302 303 305 307 308 309 309 308 310 317 324 325 323 321 320 319 318 316 313 311 310 309 307 304 302
288 287 280 277 272 273 275 276 279 283 287 289 291 292 294 297 301 302 301 301 303 302 303 302 302 304 305 305 307 308 309 309 310 311 316 320 320 317 315 314 314 311 308 307 306 304 302 299 296
285 283 281 280 277 274 273 277 284 286 288 289 290 292 295 300 300 301 301 302 302 302 301 301 300 300 301 302 304 305 305 306 308 310 311 312 311 311 310 309 307 305 304 304 301 298 296 293 291
287 284 282 276 274 275 275 278 288 287 289 289 291 293 300 300 299 299 299 300 301 298 297 297 298 298 298 299 301 303 304 305 305 304 304 305 306 306 305 303 302 301 300 298 295 293 292 291 290

GFSSGP_sfc_thetae_048.txt.gz
Theta_e
336 329 329 323 308 306 301 301 307 307 308 311 312 311 312 314 315 312 340 345 344 348 352 353 358 358 360 359 357 355 353 351 349 346 343 342 342 341 342 346 344 344 344 348 347 345 342 338 339
333 324 325 318 303 298 300 305 304 308 310 312 311 311 314 315 327 333 339 345 346 351 353 353 357 359 359 358 355 354 352 350 349 346 343 339 338 340 343 348 348 347 348 347 344 341 337 337 340
327 323 315 309 304 299 300 305 306 308 311 311 311 314 315 317 329 335 343 346 347 350 351 354 357 358 359 357 355 353 351 350 349 347 342 339 337 343 345 346 347 346 344 343 341 338 338 339 340
321 319 316 304 300 304 305 307 308 308 310 311 311 310 320 331 331 338 346 346 347 349 350 354 356 355 355 355 355 353 351 349 347 345 342 338 337 342 342 343 342 342 342 341 340 338 340 340 340
321 317 306 303 302 305 307 308 309 307 308 309 310 309 313 332 341 343 347 347 347 347 349 351 355 355 353 354 354 354 351 349 346 344 342 337 337 339 339 340 339 339 338 337 338 339 339 340 340
312 314 303 300 302 307 309 310 309 308 308 309 309 310 316 336 340 344 347 347 348 347 347 348 348 351 352 352 353 353 351 349 347 345 340 338 338 338 339 338 338 337 338 338 339 340 340 340 339
310 307 303 303 303 304 307 311 308 308 308 308 312 309 318 330 342 343 344 347 348 348 346 346 347 347 348 349 350 351 351 349 348 346 342 341 340 339 338 337 337 337 339 340 341 341 340 336 333
312 309 303 304 302 302 309 309 310 308 307 313 313 309 313 326 341 342 341 342 343 347 345 345 345 346 347 347 345 346 348 348 346 345 342 339 338 339 339 340 340 339 340 341 341 340 334 332 334
313 303 300 301 302 303 307 306 309 311 309 310 312 314 324 330 339 338 338 338 340 344 345 345 344 344 344 341 341 343 344 344 342 341 338 335 335 336 336 336 339 341 342 341 341 335 331 333 332
305 300 300 306 306 304 305 306 308 308 308 309 311 317 330 334 334 333 333 333 336 338 342 345 345 343 342 339 340 338 343 345 343 339 339 338 337 336 333 333 337 340 341 341 340 332 327 324 326
305 300 304 304 306 306 306 307 310 307 306 309 309 314 324 331 332 332 333 336 336 339 340 342 344 343 341 339 339 339 344 342 341 338 337 338 338 339 338 335 335 338 335 338 337 330 326 322 321
301 304 304 306 307 306 305 309 307 308 308 312 314 314 315 327 331 332 332 335 335 337 340 340 342 344 342 341 340 339 341 342 340 339 336 338 337 338 338 336 334 336 337 337 338 332 326 321 318
302 303 305 306 307 307 308 306 306 307 311 313 313 313 314 314 323 334 336 337 338 337 339 340 341 345 343 342 341 340 339 341 341 340 338 336 336 336 338 338 336 334 336 336 335 331 323 319 316
305 304 304 305 306 306 304 305 306 307 311 310 311 311 313 314 315 318 326 334 338 340 340 340 341 343 344 340 343 342 341 340 341 340 340 337 336 336 336 337 337 336 335 335 333 329 322 318 315
305 300 302 304 304 303 306 301 301 308 310 308 309 310 311 313 315 315 318 319 323 331 338 342 343 343 342 340 340 343 343 342 340 340 340 339 337 335 335 335 336 337 336 333 332 327 321 316 313
300 300 294 300 303 304 303 294 301 307 307 306 308 309 310 311 312 314 316 317 318 319 322 332 339 343 343 341 341 341 343 343 341 341 340 339 337 336 335 335 335 337 336 332 330 324 318 315 312
297 290 292 295 303 301 301 295 302 305 305 305 307 308 309 310 312 313 315 316 317 318 318 319 330 337 341 342 341 341 341 342 343 341 340 339 338 336 335 334 335 336 335 331 328 324 320 315 312
291 291 293 292 298 300 298 297 301 305 304 304 305 307 308 308 310 313 315 316 316 317 318 318 320 328 336 341 340 340 338 338 343 342 341 340 338 337 336 334 334 335 334 331 327 322 318 316 314
296 293 291 295 297 297 297 297 300 303 304 303 305 306 307 308 310 310 310 311 311 312 314 316 316 319 326 332 337 336 334 335 336 339 342 340 338 337 336 334 333 333 332 331 327 322 316 311 312
295 292 292 295 296 296 295 295 299 302 302 301 301 302 303 304 304 304 307 309 307 308 310 312 314 315 317 324 333 337 337 337 339 337 336 337 338 336 336 334 333 332 331 331 329 323 315 314 309
294 292 293 293 294 294 293 294 294 295 297 298 299 299 300 302 304 306 309 310 311 310 309 308 310 312 314 317 323 332 337 338 336 336 333 335 336 336 336 335 334 333 332 330 329 324 317 313 308
291 297 296 293 292 289 292 287 291 292 294 296 299 300 302 304 307 308 309 310 311 312 313 312 310 309 311 313 314 319 327 329 331 332 334 336 334 334 335 334 334 333 332 328 328 324 320 319 309
293 296 294 292 292 290 289 288 290 292 291 294 298 300 302 305 306 307 309 309 311 313 313 314 314 313 312 311 312 315 321 328 329 330 332 333 334 332 331 331 331 331 330 328 327 322 319 320 316
295 292 290 290 290 286 288 286 287 289 292 294 297 300 302 304 306 308 310 310 311 312 313 313 313 313 313 313 311 312 316 323 326 329 330 333 333 330 329 328 329 330 329 327 326 323 319 318 317
294 292 285 284 283 284 285 284 289 292 294 296 297 299 302 305 306 308 308 308 309 310 311 311 311 311 313 313 314 312 312 316 322 326 328 330 331 329 326 327 326 326 327 327 326 323 318 317 315
290 291 287 280 279 282 284 282 288 293 295 297 298 299 300 304 307 307 307 307 307 308 309 310 309 309 310 312 313 315 315 314 314 319 324 328 328 330 330 326 326 326 326 325 324 322 319 316 312
290 288 288 283 282 282 285 286 290 291 293 295 298 300 302 304 306 306 306 307 307 308 308 309 308 309 310 311 313 314 315 316 315 316 317 321 325 327 329 328 324 324 324 321 319 316 316 314 314
292 292 286 286 279 279 282 282 286 289 291 294 297 299 301 305 305 306 306 307 307 307 307 308 307 307 307 308 310 311 313 315 316 317 317 318 320 323 324 323 323 321 318 316 314 313 313 311 310
288 288 286 287 284 280 279 283 290 292 294 293 296 299 302 304 304 303 304 305 307 306 305 305 305 305 305 305 307 309 311 312 314 314 314 315 317 318 318 318 318 316 313 311 309 307 306 305 299
291 289 288 285 281 282 282 285 292 294 295 295 297 300 303 305 303 301 300 301 304 303 303 303 302 302 302 303 304 306 309 310 311 311 311 310 311 311 312 311 310 309 307 306 304 299 298 294 291

GFSSGP_sfc_thetae_051.txt.gz
Theta_e
336 335 328 323 308 307 303 304 308 307 308 313 314 312 311 314 314 314 340 345 345 348 352 354 358 360 360 359 357 354 353 351 349 347 344 343 343 342 343 345 344 342 346 348 346 344 340 340 340
333 329 324 317 304 300 302 308 305 309 312 314 314 314 313 313 327 336 339 345 346 349 352 351 358 359 360 357 355 353 352 350 347 345 342 339 339 342 348 348 346 345 348 347 343 339 338 340 340
332 328 316 309 304 300 302 307 308 311 312 313 313 316 316 319 331 336 345 345 347 349 350 354 358 359 359 357 356 353 351 350 347 344 341 338 340 345 348 349 348 347 345 342 339 338 339 340 340
324 320 317 306 302 306 307 308 309 310 312 313 313 312 321 332 333 341 346 345 347 348 351 354 357 358 358 356 355 353 351 350 347 345 341 337 341 344 346 345 344 344 343 341 339 339 340 340 341
324 317 306 304 304 307 310 310 310 309 310 311 312 311 317 335 341 344 344 344 346 346 352 352 356 356 356 355 354 353 351 348 347 345 341 337 340 341 344 341 341 341 340 339 339 339 340 340 341
314 315 303 301 304 308 310 312 310 310 311 310 311 312 320 339 341 344 346 345 347 345 348 349 351 353 352 353 353 353 351 349 347 346 340 337 339 339 340 340 339 339 338 338 339 339 340 340 338
311 309 304 305 304 306 309 313 309 309 310 310 313 310 322 335 343 345 346 347 347 347 345 346 346 346 348 349 350 352 352 350 347 345 341 340 341 341 339 338 338 338 338 339 340 341 340 336 334
313 311 305 306 304 304 311 311 312 310 309 315 314 309 314 329 343 344 344 346 346 346 344 344 345 346 346 347 347 348 349 348 347 343 342 339 338 339 339 339 339 339 340 341 341 340 335 333 333
315 304 301 303 304 306 312 309 313 314 311 311 313 315 325 330 341 339 338 339 343 344 344 344 343 345 344 344 344 344 345 345 343 341 338 335 334 335 335 336 339 342 342 342 341 335 333 335 334
307 303 303 308 308 307 310 309 310 308 308 309 311 318 329 332 336 336 334 334 337 341 343 343 343 342 342 339 342 339 339 345 342 340 337 334 334 333 332 334 338 339 341 342 339 333 331 332 328
305 300 306 307 307 307 308 308 310 308 306 309 309 314 323 330 333 334 335 337 336 339 342 343 344 343 341 338 338 336 337 343 344 340 337 334 335 335 333 334 334 336 335 337 337 331 325 324 324
301 305 305 307 307 306 305 309 307 309 309 313 313 316 316 325 330 332 333 337 338 339 339 341 344 343 341 339 338 337 340 341 339 339 336 335 336 337 334 332 331 334 335 335 337 335 329 325 323
302 305 306 307 307 307 307 306 306 308 312 314 315 314 314 315 321 332 335 337 338 338 341 340 342 344 343 340 339 338 338 340 340 339 336 335 336 335 337 335 334 332 335 335 336 334 329 325 322
305 305 305 306 306 307 305 306 307 309 313 312 312 312 313 314 316 320 330 335 336 338 340 342 340 342 345 342 341 341 340 340 341 340 339 335 335 335 336 336 336 334 333 334 333 332 329 323 320
305 300 303 304 305 304 306 301 303 309 311 309 309 311 311 312 314 316 320 323 331 336 340 342 342 344 344 344 343 342 343 342 341 341 340 338 336 335 335 335 336 336 335 333 332 331 328 323 319
300 301 294 301 304 304 303 295 304 309 308 307 308 309 309 311 312 314 317 320 322 323 324 332 340 343 343 343 343 342 344 343 342 342 341 340 338 336 335 334 334 336 336 335 332 330 326 321 318
298 291 293 296 303 302 301 296 303 307 306 306 307 308 309 310 311 313 314 317 319 320 321 322 325 332 340 342 343 342 341 343 344 343 342 341 339 338 336 334 335 334 336 332 332 329 324 321 318
290 291 293 293 299 300 299 298 302 304 304 305 306 307 308 308 310 313 314 316 317 318 319 320 320 321 327 335 339 343 340 340 342 344 343 342 341 340 337 336 335 334 334 333 332 329 326 323 319
295 293 292 295 299 298 297 298 300 303 304 304 305 306 306 307 311 313 313 313 313 314 315 317 318 319 320 326 330 339 337 336 336 342 344 342 341 340 339 337 335 335 333 333 332 329 325 321 320
295 293 292 296 298 297 296 296 300 302 302 304 304 305 306 307 308 308 308 311 310 310 311 313 315 317 319 320 324 332 338 336 337 337 339 342 342 341 339 338 336 334 332 332 331 329 324 320 318
294 292 292 293 296 297 296 293 296 297 300 300 301 302 302 304 305 307 309 311 312 312 313 311 311 313 316 318 320 323 333 337 337 337 337 336 338 341 340 338 337 335 333 331 331 330 324 317 315
291 297 296 295 293 287 296 286 295 294 296 298 300 302 303 305 307 308 309 310 312 313 316 315 314 313 312 314 314 316 319 325 332 334 335 336 337 335 336 335 336 335 334 332 331 331 327 320 314
294 299 296 295 293 292 292 289 292 294 292 295 299 302 304 306 307 308 310 311 312 314 315 316 316 315 315 314 313 314 314 318 324 329 331 331 334 336 334 333 333 333 332 331 331 330 328 321 319
299 296 294 294 292 286 292 290 288 290 293 295 299 302 304 305 308 309 311 312 312 314 314 315 313 314 315 315 315 313 313 314 317 323 327 328 331 334 335 331 330 330 329 329 329 330 327 322 321
296 293 286 284 284 285 289 287 292 294 297 298 299 301 304 306 308 309 309 310 310 311 312 312 312 312 313 314 314 315 315 313 314 317 322 326 328 330 332 330 328 327 328 328 328 326 325 322 320
293 293 288 281 282 285 286 284 290 296 298 300 301 303 304 306 308 308 308 309 309 309 310 311 311 310 311 313 314 315 315 315 315 315 315 321 324 327 330 331 328 327 326 326 326 324 323 321 319
289 288 292 286 286 284 286 289 292 294 295 298 300 302 304 306 307 307 308 309 309 308 309 310 309 309 310 311 312 313 315 315 316 317 317 317 318 322 326 329 328 325 325 324 324 322 320 319 317
295 296 287 289 281 280 285 286 287 289 292 297 299 300 303 306 307 307 307 307 308 308 308 309 308 308 308 308 309 310 312 313 314 315 316 317 318 319 320 323 324 323 322 322 319 317 316 315 313
290 290 290 290 286 283 281 284 291 292 294 295 297 300 303 306 305 305 304 305 307 307 307 306 306 305 305 306 307 308 310 311 312 313 313 313 314 315 316 317 319 318 318 317 314 312 311 310 306
294 292 292 287 284 285 284 285 293 296 297 297 297 301 304 306 304 303 302 303 305 305 305 304 303 303 303 304 304 305 306 306 307 307 308 310 309 311 311 310 312 313 311 309 308 303 303 299 295

GFSSGP_sfc_thetae_054.txt.gz
Theta_e
335 331 330 319 305 303 299 301 304 304 303 307 310 306 305 307 317 313 334 338 347 345 350 355 359 359 360 359 356 355 354 351 349 348 347 345 344 342 345 344 345 345 349 348 345 342 342 341 341
331 330 322 313 300 295 297 304 303 304 308 309 308 307 306 315 331 331 334 340 346 347 348 349 358 360 360 358 355 354 352 349 346 344 343 341 341 347 348 346 345 348 349 346 341 340 341 340 341
329 328 313 306 301 296 298 304 304 308 308 308 308 309 309 319 330 333 340 340 346 347 348 353 359 360 359 357 355 354 352 348 346 343 341 340 344 349 349 349 349 348 345 341 340 340 340 340 341
322 319 313 302 299 303 303 304 306 307 307 309 308 307 321 331 330 337 340 341 344 345 349 355 358 359 358 356 355 354 352 349 345 343 340 340 346 348 347 346 345 346 345 341 340 340 340 341 341
322 314 302 300 301 305 306 307 305 305 306 308 306 306 320 331 338 339 338 343 341 347 349 353 357 358 357 355 354 354 353 349 346 343 339 339 344 346 344 343 343 342 341 340 340 340 341 341 340
313 312 300 297 301 306 307 307 305 304 307 306 304 308 321 334 337 338 339 340 342 347 348 350 352 355 355 353 352 353 352 350 348 343 339 339 342 344 342 341 341 340 339 339 339 340 341 341 338
308 305 301 301 302 304 307 308 304 304 303 305 306 304 325 333 338 339 339 340 340 344 345 344 344 347 349 350 351 351 352 349 347 345 342 342 342 342 340 340 340 339 339 340 341 341 340 337 335
311 307 301 303 302 303 309 308 309 305 304 309 308 306 315 332 338 340 341 340 340 339 342 341 340 342 344 346 347 348 348 346 346 343 341 338 337 339 340 340 340 341 341 342 342 340 336 334 334
314 301 298 301 303 305 310 306 309 310 306 305 306 317 323 337 338 335 335 336 338 339 337 339 340 340 342 342 343 346 346 344 342 339 337 334 330 332 334 335 338 341 343 344 341 336 334 336 335
305 299 301 308 308 305 309 308 307 305 305 303 305 319 326 333 333 331 330 329 332 335 336 337 339 340 340 341 340 339 341 341 339 335 331 329 328 329 331 333 337 340 342 342 340 336 335 332 325
304 299 306 308 307 306 307 307 308 303 302 304 304 309 324 326 327 330 331 332 332 335 337 337 336 336 335 333 336 333 334 338 339 336 332 330 328 327 330 330 331 331 332 335 333 328 322 319 320
299 304 305 307 307 305 304 308 304 304 304 309 311 312 316 323 325 327 329 332 333 335 336 338 339 336 334 332 331 330 332 337 339 339 333 329 328 327 325 328 327 329 330 330 331 327 322 319 316
301 302 304 306 306 305 306 304 302 303 307 310 312 311 309 308 315 327 329 332 333 334 336 338 338 338 336 332 331 330 330 338 336 333 331 330 329 329 329 327 326 328 329 328 331 329 326 318 316
303 304 304 304 305 306 302 302 303 304 306 308 308 306 307 308 309 310 325 329 331 333 336 338 340 338 339 335 333 331 332 333 335 333 332 329 329 329 330 329 327 325 326 328 330 330 323 318 315
304 299 301 302 303 303 305 299 300 305 306 306 305 305 307 308 308 307 311 316 325 333 335 338 338 338 337 338 336 335 336 336 334 335 334 333 329 329 329 329 328 328 327 326 326 325 323 317 314
299 299 293 300 302 303 302 292 302 306 304 304 303 303 304 307 308 307 309 312 314 316 317 333 340 339 339 339 339 337 337 338 336 336 336 334 332 330 328 328 328 329 329 326 325 323 321 316 311
296 289 292 296 302 301 299 293 301 305 304 302 302 303 303 304 305 306 307 307 311 313 315 316 318 328 338 339 337 337 337 337 339 339 336 335 334 332 330 327 327 328 327 327 326 323 320 314 311
289 289 292 292 298 299 297 295 299 301 300 300 300 300 301 303 304 306 308 308 310 310 311 312 315 316 317 325 335 338 333 336 337 338 338 336 335 333 331 329 327 327 326 326 325 322 320 315 313
294 292 290 295 299 296 295 296 298 300 300 299 300 300 301 302 305 306 306 305 306 307 307 308 310 313 313 314 319 334 334 335 335 338 337 338 335 334 331 331 329 328 327 327 327 323 319 315 313
292 290 290 294 297 296 294 293 296 299 299 301 299 299 300 301 302 303 306 306 306 305 305 305 306 309 312 313 314 319 334 335 335 334 336 335 337 336 333 331 331 329 327 325 326 325 321 315 314
291 290 290 290 295 295 292 289 293 297 297 298 298 296 298 298 300 303 305 306 307 308 309 309 309 308 308 309 311 312 314 330 329 329 330 334 335 334 336 335 332 327 327 325 325 326 321 317 312
289 294 294 294 290 284 293 279 289 293 293 295 295 295 296 299 302 305 305 306 306 308 311 312 312 310 308 307 307 307 308 309 321 329 333 333 333 333 333 332 332 334 332 329 327 325 323 317 312
293 297 295 294 291 288 288 283 286 291 290 292 295 297 300 301 302 304 306 307 308 309 309 310 310 310 310 310 308 306 306 308 310 313 320 326 328 331 331 331 331 330 332 330 329 326 326 323 317
299 294 293 292 290 282 288 285 283 287 290 292 295 298 300 301 303 305 307 307 307 308 308 308 309 309 309 310 310 308 306 305 306 307 311 318 322 324 328 328 329 329 329 329 328 329 325 325 321
295 289 280 280 279 279 288 285 286 291 293 294 295 297 300 302 303 304 304 304 304 304 306 307 307 307 307 307 308 308 308 308 307 306 308 311 316 321 324 325 326 327 328 328 328 326 326 324 320
290 289 281 276 278 280 285 280 285 292 295 297 299 299 301 301 303 303 303 304 304 304 305 306 305 305 306 306 307 308 308 309 310 310 310 309 310 313 320 323 323 324 325 324 325 325 325 324 322
289 286 289 282 281 279 281 284 288 292 293 295 297 299 299 302 303 302 303 304 304 303 304 304 303 304 304 304 304 305 307 307 308 309 310 311 312 314 314 315 318 322 324 324 323 323 322 322 319
292 295 285 281 274 276 280 281 281 286 288 293 296 297 300 303 303 302 301 302 304 303 303 303 302 301 302 302 302 304 305 306 307 307 307 308 309 311 311 312 313 316 319 320 320 319 318 317 314
288 288 289 286 282 276 275 278 286 288 290 292 294 297 299 302 302 300 299 300 301 302 301 301 300 300 299 300 300 300 301 302 302 302 302 304 305 307 308 309 309 310 314 314 314 313 312 311 307
292 291 290 283 282 279 278 280 290 291 293 294 293 299 301 303 301 299 298 299 300 299 299 298 298 298 298 299 298 298 298 298 297 297 298 298 297 300 302 304 303 303 302 301 302 302 301 300 296

GFSSGP_sfc_thetae_057.txt.gz
Theta_e
335 331 323 314 300 297 293 298 298 300 300 302 305 305 303 309 317 310 332 343 346 350 356 357 360 360 360 359 357 356 355 353 351 350 348 346 342 344 344 345 346 349 349 345 343 343 342 342 340
332 330 317 306 296 290 293 298 299 301 305 305 307 305 310 317 328 329 332 344 346 350 353 354 358 360 360 358 356 354 352 348 346 345 344 342 346 347 346 346 348 350 346 343 342 341 341 341 339
329 325 309 301 295 292 293 299 300 303 306 305 303 306 313 318 329 330 336 343 346 345 348 354 358 359 359 357 356 354 350 346 344 343 341 343 349 349 348 349 350 347 343 341 340 340 340 340 340
319 313 308 297 295 300 300 301 302 303 306 307 305 313 323 329 330 336 339 346 344 345 349 355 358 359 357 356 356 354 349 346 344 341 341 346 349 349 349 348 347 346 344 341 340 340 341 341 340
320 312 298 295 297 301 300 304 303 302 304 304 303 310 320 329 335 336 337 345 344 346 350 354 358 358 357 355 354 353 352 347 344 341 340 346 347 347 347 345 344 343 342 340 340 341 341 341 339
310 311 297 294 297 302 303 304 303 301 303 302 306 316 321 330 332 333 338 345 347 347 350 353 355 356 354 353 352 352 351 350 345 341 339 344 346 344 344 343 342 341 341 340 340 341 342 340 338
306 304 298 298 299 302 304 304 301 302 300 301 305 314 321 330 335 336 336 345 346 346 347 348 350 351 350 350 349 350 351 349 347 344 342 344 344 343 342 341 341 340 340 340 341 341 340 337 336
311 306 299 300 299 302 308 305 305 304 301 306 307 312 317 330 336 337 337 339 343 343 343 340 341 343 344 346 347 347 347 346 345 343 341 339 339 340 341 341 342 341 341 341 342 341 337 335 335
315 301 297 300 302 304 311 307 306 307 304 304 310 317 331 335 336 334 333 334 335 339 339 339 338 339 341 343 344 345 344 343 341 339 336 334 331 333 335 335 338 342 343 343 342 338 336 337 335
307 301 299 305 307 305 309 309 309 303 302 302 314 328 333 334 331 328 328 329 328 332 335 337 337 339 340 343 340 340 342 338 334 333 331 328 327 329 332 331 336 341 342 343 341 337 337 333 325
304 300 305 306 308 309 307 309 309 301 299 302 307 318 327 329 329 329 327 328 329 329 335 335 337 338 338 340 338 336 337 337 334 331 330 327 327 326 328 329 332 331 333 336 335 331 326 323 321
299 304 306 308 309 308 304 306 306 301 302 308 306 320 322 324 325 328 328 329 330 332 332 336 337 333 333 338 334 332 333 336 336 333 330 327 323 324 328 328 327 327 329 329 327 324 321 316 316
301 302 305 306 305 304 305 303 301 300 305 309 309 309 311 318 323 325 329 331 332 332 334 335 336 336 331 331 331 328 332 335 338 336 333 329 325 324 326 326 325 326 327 328 328 326 323 318 315
303 304 303 304 303 303 301 300 302 301 305 305 307 305 304 305 307 318 325 328 330 332 333 335 336 336 336 330 328 327 328 334 336 334 332 330 327 328 326 324 324 325 326 327 329 328 326 320 315
302 299 301 302 301 301 303 299 298 303 303 302 301 302 306 305 305 304 311 325 328 332 335 335 336 337 335 335 332 330 329 332 332 331 331 329 327 327 328 326 324 324 324 327 325 327 324 317 315
298 298 292 299 301 302 301 293 300 303 301 302 301 299 301 305 306 306 306 307 313 320 332 336 339 337 335 335 336 333 335 335 333 333 332 331 330 327 326 326 326 327 325 324 322 322 320 315 312
295 288 291 294 300 301 298 293 300 302 300 301 300 301 301 301 302 304 305 304 305 309 312 326 336 335 334 335 336 335 335 335 336 338 336 333 332 329 327 326 326 326 326 324 323 321 320 314 310
288 288 292 291 296 298 296 294 299 299 299 299 299 299 298 301 302 304 304 304 305 305 306 307 312 320 334 337 335 334 334 334 335 336 336 335 332 331 328 327 326 326 324 324 323 321 318 315 312
294 291 291 294 298 296 295 295 298 299 297 297 297 298 299 300 302 302 302 303 304 303 303 303 305 307 310 311 320 330 332 331 330 334 337 336 335 332 329 329 327 325 325 325 324 322 319 314 311
292 290 289 293 297 295 295 293 297 297 297 298 298 297 297 298 299 303 304 305 306 306 307 307 306 306 306 309 309 317 330 332 334 334 332 334 333 332 331 328 327 325 324 322 323 323 318 318 313
290 288 288 289 292 293 291 289 292 295 297 298 297 296 296 296 298 301 303 305 307 307 308 309 308 308 307 306 307 308 309 319 327 327 328 331 332 332 333 331 329 328 324 324 322 323 321 319 314
286 292 292 292 288 283 292 279 286 292 292 294 294 294 293 298 301 303 305 305 307 307 308 309 309 309 309 307 305 303 304 304 311 319 328 329 330 331 331 331 330 327 327 326 325 323 321 316 314
291 295 293 291 288 287 286 281 286 290 288 291 293 294 297 299 301 303 304 307 308 308 308 308 308 308 308 307 307 304 303 303 305 306 307 313 326 330 330 330 327 326 325 326 325 325 324 323 322
298 293 291 289 287 279 286 283 282 286 290 290 292 296 299 300 301 303 305 306 305 305 306 306 306 307 307 306 306 306 305 304 304 304 304 306 311 318 324 327 328 327 325 327 327 326 324 324 323
294 288 277 276 274 276 285 283 285 290 291 293 294 295 298 300 301 302 303 303 303 303 304 306 305 304 305 305 306 306 306 306 306 306 305 306 307 310 313 321 325 322 323 324 325 324 325 323 322
291 288 278 273 274 277 284 281 285 290 293 296 297 297 298 300 301 302 302 302 302 302 303 303 303 302 303 303 303 304 305 306 307 307 307 308 308 309 311 312 313 318 321 321 323 324 324 324 321
289 282 288 280 279 274 280 283 288 291 292 294 296 297 297 299 301 301 302 302 301 301 302 301 300 300 300 300 301 302 303 303 304 305 305 306 307 310 309 309 310 311 317 318 318 318 321 321 321
292 294 283 279 273 274 277 279 282 286 289 292 294 295 297 300 300 300 299 300 301 301 300 300 299 298 298 298 299 300 299 300 299 299 298 299 301 305 305 306 306 308 311 312 314 316 317 316 316
289 288 288 286 279 275 274 278 285 289 290 291 294 296 298 300 299 298 297 298 300 299 298 297 297 297 297 297 297 297 297 296 296 295 295 295 296 298 299 301 301 301 301 301 304 306 307 309 306
292 289 289 281 280 278 276 278 289 289 290 293 294 297 299 301 299 297 297 298 297 297 296 296 296 296 296 296 295 295 294 294 293 293 293 294 293 294 295 295 296 295 297 296 297 298 298 298 296

GFSSGP_sfc_thetae_060.txt.gz
Theta_e
333 329 322 312 299 296 292 296 296 298 299 301 303 313 314 312 314 304 331 341 349 352 356 357 360 360 360 358 357 356 355 354 354 351 348 344 342 344 344 346 349 349 345 344 342 342 342 340 339
329 325 314 304 295 290 292 297 298 300 304 304 304 305 315 317 326 331 334 346 350 353 355 356 359 360 359 358 356 354 351 349 348 347 344 343 347 345 346 347 350 347 344 342 341 340 340 339 338
326 321 308 299 294 291 293 297 299 302 303 303 303 311 315 319 327 330 339 345 350 351 352 355 359 359 358 356 355 352 348 345 344 343 342 347 348 347 346 349 349 344 342 341 339 339 339 338 337
318 311 305 297 294 298 297 300 302 302 303 305 309 314 323 328 329 335 342 346 345 343 348 353 358 358 357 356 354 351 347 344 342 342 345 350 350 348 351 349 346 345 343 340 340 340 340 339 338
317 307 297 293 296 299 302 304 302 301 301 302 305 313 319 330 333 340 341 343 342 345 350 352 357 357 356 356 353 351 347 345 342 341 347 349 348 349 348 345 344 342 341 340 340 341 341 339 338
309 308 294 292 296 301 303 305 301 301 300 304 317 317 318 331 330 340 343 342 346 346 350 353 354 355 355 354 353 351 349 346 342 341 346 347 347 346 345 344 343 342 341 340 341 341 341 339 337
306 302 296 295 298 301 305 307 300 301 299 300 316 314 321 326 334 337 342 344 346 348 349 351 351 351 349 350 350 350 350 347 345 343 346 347 345 345 344 342 342 341 341 340 341 341 340 338 336
310 305 298 298 298 299 308 308 306 302 300 304 318 316 318 327 335 337 342 342 343 345 346 344 345 346 344 345 346 347 348 346 344 342 342 340 341 341 343 342 342 342 341 341 341 341 339 336 335
315 300 295 298 300 302 308 305 310 307 302 310 314 319 328 334 334 334 333 335 337 340 341 341 340 341 341 342 342 344 344 343 341 339 337 335 332 335 336 336 338 341 342 342 341 340 337 337 335
307 300 298 304 305 305 308 306 307 303 303 311 322 329 333 332 330 329 330 330 330 333 335 338 338 338 338 343 340 339 339 336 334 332 330 329 328 329 333 331 336 341 342 342 342 339 337 334 324
306 300 304 306 308 310 308 307 310 304 299 306 319 324 328 327 327 328 328 331 330 330 333 335 335 337 337 338 337 337 337 334 331 330 328 326 327 325 327 326 330 331 333 335 337 332 328 322 320
300 305 307 308 309 309 306 309 305 305 302 307 320 327 325 325 326 326 327 328 330 331 332 333 334 334 335 337 336 336 336 334 330 329 328 325 322 323 324 325 327 327 329 329 329 325 322 318 319
300 303 306 309 309 309 310 306 305 305 306 306 315 320 322 323 325 327 329 329 329 330 333 334 334 332 332 334 334 331 333 335 335 331 330 327 323 322 325 325 326 325 326 328 326 324 323 318 314
304 304 304 305 304 307 305 306 306 304 304 303 306 306 306 315 321 322 327 328 329 331 332 334 335 335 330 329 330 329 329 331 335 335 333 330 326 324 325 325 325 325 326 327 327 327 325 322 316
303 299 301 302 302 302 305 300 300 305 304 302 300 301 304 305 304 318 324 326 329 332 333 332 334 336 334 331 327 325 327 331 332 335 335 333 326 325 325 324 324 324 324 325 326 326 325 323 320
297 298 292 299 301 302 300 292 300 304 301 301 299 298 300 303 304 304 307 321 325 330 332 334 337 335 334 334 334 330 329 328 331 332 332 332 331 326 326 325 324 324 322 324 323 325 323 321 318
294 288 291 295 300 300 298 292 299 302 299 299 299 300 301 301 302 303 304 301 305 313 319 332 334 335 335 334 334 334 332 332 334 332 331 330 329 327 327 327 327 325 324 322 322 320 320 318 314
288 289 292 292 297 298 296 293 298 298 296 298 299 300 300 299 301 301 302 303 303 303 304 307 313 323 333 333 332 332 332 332 333 334 335 333 330 329 326 325 325 325 324 323 320 320 318 317 317
293 291 291 293 297 296 295 293 297 298 294 295 297 298 299 299 299 300 300 300 303 304 303 302 304 304 307 315 324 328 328 330 329 331 335 334 334 331 328 326 325 324 323 324 323 321 318 318 312
293 289 289 293 297 295 293 293 296 297 296 297 297 297 297 297 299 301 303 304 305 305 306 306 305 305 304 306 307 313 326 329 331 331 331 332 331 332 331 327 326 324 323 322 321 320 317 317 313
289 289 287 288 292 292 291 288 291 294 294 297 298 297 297 297 299 301 302 304 306 306 306 308 308 307 306 305 305 306 307 313 325 326 327 329 330 330 329 330 328 325 323 323 320 320 318 320 312
286 292 292 290 288 284 290 280 285 291 292 293 293 294 295 296 299 302 303 304 305 305 306 307 307 307 308 307 305 302 302 303 307 312 319 318 326 327 329 328 328 328 325 323 323 322 320 318 319
289 293 291 290 287 285 285 281 283 286 288 290 291 292 293 298 300 302 303 305 306 306 304 304 306 306 306 305 306 304 303 302 303 304 304 305 309 316 324 327 326 324 326 325 324 322 319 320 321
295 291 289 288 286 279 284 282 280 284 287 290 291 293 297 298 300 302 303 305 303 303 304 304 304 304 305 305 305 304 304 304 303 304 305 305 306 311 312 316 322 324 323 322 322 322 321 321 321
293 286 279 278 278 276 284 282 286 288 290 291 292 295 297 298 300 301 301 301 302 302 303 304 303 302 303 303 303 304 305 305 305 305 305 306 306 307 308 310 311 314 319 321 321 320 318 318 318
290 286 277 273 274 277 283 280 286 289 291 293 295 297 297 298 299 301 302 301 301 302 301 301 301 300 300 300 301 302 302 303 304 304 304 304 305 306 307 307 308 310 314 316 317 317 317 318 317
290 286 287 279 277 273 279 283 287 289 289 292 293 296 296 298 299 300 300 300 300 300 300 299 299 298 298 298 299 298 299 298 298 297 298 300 301 305 305 305 305 306 308 311 316 316 317 314 314
292 292 282 278 272 272 276 277 281 285 288 292 293 295 296 299 299 299 299 299 299 299 298 298 298 297 297 297 297 297 296 296 295 295 294 295 296 298 300 301 301 301 300 302 304 305 305 309 309
290 289 286 284 279 274 273 277 284 288 291 292 295 295 296 299 299 297 297 298 299 298 296 296 296 296 296 296 295 294 294 294 293 293 292 293 294 294 295 296 295 295 295 296 297 298 298 300 300
291 289 289 282 276 275 275 277 287 288 291 294 295 297 298 300 298 296 296 297 297 295 294 294 295 295 295 295 293 293 293 292 291 291 291 292 292 293 293 293 293 293 293 293 293 293 294 294 295

GFSSGP_sfc_thetae_063.txt.gz
Theta_e
331 326 320 310 299 296 291 295 296 297 297 300 303 309 307 315 310 303 329 340 347 351 355 356 359 359 359 358 357 356 356 355 353 350 347 344 345 344 346 348 348 345 344 342 341 342 341 340 340
326 322 312 303 294 289 291 296 297 299 301 303 309 309 316 315 324 329 333 345 350 352 354 354 359 359 358 356 355 354 351 349 349 347 343 344 344 345 345 349 348 345 343 340 340 340 339 339 341
325 319 306 298 293 290 291 297 298 301 301 301 304 315 317 318 329 331 336 348 351 351 353 355 358 358 357 356 353 350 348 346 346 344 343 347 345 346 346 350 346 344 341 339 339 339 338 338 339
317 311 304 296 293 297 296 298 302 301 302 303 312 314 321 327 328 334 345 349 349 347 350 355 357 358 356 355 352 348 346 344 343 342 346 350 347 346 350 349 345 344 341 339 339 339 338 338 339
316 306 296 292 295 299 300 303 302 300 300 301 310 314 317 327 334 341 344 346 344 344 347 353 357 357 356 354 351 349 345 343 342 343 348 351 349 350 350 345 343 342 340 339 340 340 339 338 338
308 306 292 291 294 299 302 304 303 298 300 314 316 316 316 328 334 338 342 341 346 346 348 351 353 355 355 353 352 350 346 343 341 345 348 347 347 348 346 343 342 341 340 340 340 340 338 337 336
305 300 294 294 296 298 302 307 300 299 299 302 319 314 317 324 329 339 338 341 344 347 347 348 349 351 351 352 350 349 348 346 343 346 348 348 346 345 344 343 342 341 340 339 340 340 338 337 335
309 302 296 298 297 298 305 306 308 302 299 307 320 315 316 326 333 339 340 341 342 345 347 345 346 347 346 347 347 347 346 345 343 343 344 343 341 342 343 342 342 342 340 340 340 340 338 336 335
316 300 295 297 299 301 307 304 309 311 302 312 317 319 327 332 337 336 335 337 339 341 341 342 342 341 340 340 342 345 344 343 341 339 338 336 334 335 336 336 338 341 342 341 340 340 338 337 334
307 299 298 303 305 304 307 308 307 305 305 311 320 328 331 332 334 333 333 333 332 334 337 339 339 339 338 342 338 338 339 336 334 332 331 329 329 330 333 331 336 340 341 341 341 341 338 334 323
307 300 303 305 307 310 308 308 308 303 301 302 315 325 326 327 329 331 331 333 333 334 334 336 335 336 337 338 336 335 334 332 330 329 328 326 327 326 327 326 329 330 333 333 336 333 328 323 319
302 306 306 308 310 308 306 310 306 304 303 308 306 325 324 325 326 328 328 329 329 330 332 333 334 334 334 335 335 335 334 331 329 328 327 324 322 322 323 323 325 326 328 328 329 326 324 321 319
300 304 307 310 309 309 309 306 305 304 308 310 308 324 321 322 323 325 329 329 329 330 331 331 332 333 334 333 333 333 333 333 331 328 328 325 322 320 322 323 324 325 325 326 326 325 323 320 316
303 304 306 307 307 309 305 305 305 305 307 304 316 319 320 321 322 322 326 327 327 330 332 333 333 332 332 333 332 332 331 333 333 331 329 327 324 322 322 323 324 324 324 325 326 325 323 322 319
302 299 302 303 304 304 307 300 300 306 307 302 302 303 306 314 319 322 326 327 328 329 332 333 334 334 330 332 332 329 330 331 332 333 332 330 327 323 323 323 323 324 323 324 324 324 324 322 321
296 298 292 299 302 303 304 295 303 308 306 302 300 300 300 302 303 308 322 326 327 329 331 331 336 334 331 330 329 328 327 327 329 332 333 332 330 326 323 323 323 324 322 322 322 323 322 322 321
291 287 290 294 302 301 300 294 302 308 306 303 300 299 301 300 300 300 302 306 312 325 328 331 332 333 333 332 332 330 327 326 327 328 330 331 332 329 326 324 324 323 322 321 322 320 321 319 320
287 287 291 291 297 298 296 294 299 302 301 302 304 299 299 300 300 301 301 300 302 303 306 315 323 326 332 332 331 331 331 330 331 331 329 329 329 328 326 326 325 324 323 320 318 320 317 320 320
291 290 290 292 298 296 295 294 297 298 296 295 296 296 298 299 297 299 299 300 303 302 302 302 304 304 310 324 326 326 327 329 328 330 333 333 332 329 326 325 324 324 323 323 322 319 317 316 312
291 289 289 293 296 296 294 294 298 299 296 296 296 295 296 296 297 300 303 303 304 304 304 305 305 305 303 305 307 316 324 327 328 328 329 331 331 332 330 327 326 324 322 321 321 319 317 316 312
287 287 288 289 292 292 291 289 293 297 295 296 297 296 296 296 298 300 301 303 305 305 305 306 305 305 304 304 303 304 305 309 318 322 324 327 328 329 329 329 328 326 322 322 321 319 318 319 312
285 291 291 290 289 283 291 282 287 291 293 294 295 294 295 295 298 300 302 303 303 304 305 306 305 305 306 305 304 301 301 301 304 307 310 308 310 316 322 325 325 325 324 321 321 320 319 317 317
289 291 291 290 287 284 284 282 286 286 287 292 295 292 293 294 298 300 302 304 305 304 303 303 304 304 305 304 304 303 302 302 303 304 304 305 306 312 313 315 321 322 323 323 322 320 317 318 317
294 290 289 288 286 278 284 283 282 284 287 288 293 291 292 296 298 300 302 304 302 302 302 302 303 302 303 303 303 304 303 303 304 304 305 305 306 308 309 311 311 315 322 322 320 320 318 317 317
291 284 278 278 278 277 284 282 287 289 289 290 291 291 293 296 298 299 301 301 301 301 301 302 301 300 300 302 302 303 303 302 302 303 303 303 304 305 305 306 307 309 312 316 317 317 316 315 317
290 284 277 273 275 277 283 280 285 291 291 292 293 293 295 296 298 299 300 300 300 300 300 300 299 298 298 300 299 299 300 301 300 300 301 300 302 303 303 304 305 306 308 315 317 315 314 314 314
289 282 285 277 276 274 279 282 287 289 290 289 292 294 294 296 298 299 299 299 299 299 298 298 297 297 297 298 297 296 296 296 295 295 295 296 296 301 301 301 301 301 301 304 309 310 310 312 312
291 291 283 277 270 271 276 277 281 284 287 289 291 293 295 297 298 298 298 298 298 298 297 296 296 296 296 296 295 294 293 293 293 293 292 293 294 295 296 296 296 296 297 298 299 299 300 304 302
290 288 286 284 278 274 273 277 284 285 288 289 292 294 295 297 298 297 298 298 298 297 295 295 295 295 294 294 293 292 292 292 292 291 291 292 292 293 293 293 293 293 293 294 294 295 295 296 297
294 291 286 278 275 274 274 277 286 285 288 292 293 296 296 299 298 296 296 296 296 295 294 294 294 294 294 293 292 292 291 291 290 291 291 292 291 292 292 292 292 292 292 292 291 291 292 291 291

GFSSGP_sfc_thetae_066.txt.gz
Theta_e
332 325 317 309 298 295 289 294 296 299 300 300 301 305 304 313 310 304 327 338 346 350 354 355 359 359 359 358 356 356 355 355 352 349 347 346 345 346 348 347 346 345 342 341 342 342 341 341 341
329 322 311 303 293 287 290 296 296 298 302 310 308 311 314 313 324 328 333 342 348 351 353 353 358 359 358 357 355 355 352 350 349 346 343 343 344 345 349 349 346 344 341 340 341 340 340 342 342
327 317 306 298 291 289 290 296 298 301 301 300 310 317 315 316 327 331 333 347 350 350 352 354 358 358 357 355 354 351 350 348 346 344 345 345 345 345 350 348 345 342 339 339 339 339 339 341 340
318 311 305 295 291 296 294 297 300 302 300 301 310 314 320 326 329 332 345 349 347 349 349 355 357 358 356 354 352 348 347 345 344 342 347 346 346 346 350 347 344 341 339 338 339 338 338 339 339
315 307 297 292 294 297 298 302 302 300 299 299 310 311 315 327 334 343 347 348 345 347 350 353 357 357 355 353 351 348 345 344 343 346 350 348 347 348 349 345 343 341 339 339 339 339 339 339 339
308 304 293 290 294 298 301 303 302 299 298 310 314 313 313 325 333 342 345 344 346 345 348 352 354 355 353 351 350 348 344 342 343 347 349 350 350 350 347 343 342 340 339 339 339 339 339 338 338
307 299 294 293 295 298 301 306 301 301 297 297 317 310 314 320 332 337 338 341 344 345 345 347 351 351 351 350 349 348 346 344 345 347 349 347 347 347 345 342 341 340 339 338 339 339 339 338 337
309 303 295 296 297 298 305 306 306 304 300 305 315 311 314 325 334 337 338 339 341 343 344 342 345 347 347 346 347 346 345 344 343 345 345 342 341 343 344 342 343 342 340 339 339 339 338 337 336
314 300 294 296 299 300 307 304 308 309 303 307 322 319 325 331 337 336 337 339 341 343 344 341 341 341 342 343 343 344 343 341 340 340 339 337 334 335 335 336 338 342 342 340 339 339 338 336 333
306 299 297 302 304 303 307 306 305 304 303 306 307 325 329 335 334 332 332 332 334 337 339 340 339 338 337 341 339 338 339 336 333 332 331 331 330 330 333 332 335 340 341 341 340 341 339 332 322
305 300 302 304 308 310 307 307 306 302 300 302 303 307 325 331 332 332 332 333 334 334 335 338 337 337 337 337 335 334 334 332 330 329 328 327 327 326 327 325 327 329 331 332 334 332 327 323 319
299 305 306 308 310 308 305 309 305 303 303 307 307 309 323 325 329 330 331 332 330 331 333 334 335 335 334 335 334 333 332 330 328 328 327 324 322 322 322 322 323 325 326 327 327 327 325 322 320
297 303 307 309 309 308 309 305 305 305 307 307 308 313 321 322 324 324 327 330 329 329 331 332 332 333 333 332 333 332 332 331 329 327 327 324 321 320 320 321 321 323 324 325 324 325 324 321 319
302 304 306 308 308 308 305 303 305 305 307 306 306 308 319 320 322 322 327 328 328 329 330 332 332 332 332 332 331 332 332 332 330 328 328 326 323 321 320 321 322 322 323 323 324 324 323 322 320
302 301 304 305 306 306 306 301 299 306 306 304 304 301 307 315 321 323 325 326 327 328 331 332 332 332 330 331 331 331 331 332 332 331 329 328 326 323 321 321 322 323 323 323 322 323 323 321 321
297 299 294 301 304 305 302 294 302 308 304 303 304 301 300 302 304 316 323 326 327 328 329 331 335 333 330 330 331 331 329 329 330 331 330 330 328 326 322 321 321 323 322 322 321 321 320 321 320
295 287 288 294 303 302 299 294 302 308 304 303 305 302 300 301 302 302 303 314 324 325 328 329 331 332 332 329 328 328 328 326 327 328 329 330 331 328 325 323 323 322 321 320 320 319 320 318 318
286 285 286 289 297 300 297 294 301 305 305 302 305 305 300 300 301 301 301 300 301 303 312 320 329 330 331 331 330 329 328 326 326 326 327 328 329 329 325 325 323 322 320 319 318 319 318 319 319
290 288 288 290 298 297 296 295 297 301 302 302 303 304 301 300 299 298 298 298 301 302 302 303 307 304 317 326 326 325 326 327 328 328 330 330 328 327 325 325 326 325 322 323 321 318 316 315 314
291 287 286 290 295 296 294 294 297 297 300 302 302 304 303 297 297 298 298 300 303 303 303 304 304 304 303 307 310 320 323 325 326 327 328 328 329 330 329 325 324 323 322 321 320 319 316 315 312
287 287 286 287 291 291 292 290 292 297 300 299 300 299 296 296 296 298 299 301 303 304 304 305 304 305 305 303 303 303 304 307 313 318 321 320 320 325 327 327 327 326 323 322 320 318 317 317 312
285 291 290 289 287 283 290 281 288 294 296 296 299 300 296 295 296 299 300 301 302 303 304 305 305 305 305 305 303 301 300 300 302 304 305 305 307 310 314 317 321 323 323 322 321 320 318 316 317
288 291 289 288 285 283 283 282 285 287 292 296 299 299 296 295 295 298 300 302 303 302 302 303 303 304 304 304 304 303 302 301 302 303 305 306 307 309 310 311 311 318 321 323 322 319 317 315 316
293 289 288 286 284 275 283 283 282 284 289 290 293 297 297 295 294 298 301 302 301 301 301 301 301 301 302 303 304 303 303 303 303 304 304 305 306 306 306 307 307 309 311 318 322 323 320 316 316
289 284 276 275 275 274 282 281 286 289 288 290 292 292 292 293 295 298 300 299 299 300 300 301 300 299 301 301 301 302 302 302 301 302 302 302 303 303 303 304 304 306 308 316 316 317 318 319 318
286 284 276 273 274 275 281 279 285 291 292 291 293 293 292 294 296 298 299 299 299 300 299 299 298 297 299 298 298 298 299 298 297 297 298 297 298 300 301 301 302 301 303 306 314 318 317 318 316
288 284 283 276 274 272 278 282 286 289 290 290 289 292 292 294 296 298 298 298 298 298 298 297 296 296 297 296 295 294 294 295 294 294 294 295 294 298 297 297 297 297 298 301 305 306 308 309 307
290 289 282 276 270 271 274 276 280 285 287 289 289 291 293 296 297 298 298 298 298 298 297 296 296 295 295 295 294 293 292 292 292 292 292 292 292 293 294 294 294 294 295 296 297 297 298 301 301
289 285 284 282 278 273 272 277 284 285 286 286 289 292 294 295 296 297 297 297 297 296 295 294 294 294 293 293 292 291 291 291 291 291 291 291 291 292 292 292 292 292 292 292 293 293 294 298 297
290 288 285 278 275 274 273 277 286 285 286 287 290 293 295 297 297 297 296 296 295 294 293 293 293 293 293 292 291 291 290 290 290 290 290 291 290 291 291 291 291 291 291 290 290 290 290 290 290

GFSSGP_sfc_thetae_069.txt.gz
Theta_e
335 327 320 314 303 300 294 297 302 302 302 306 308 308 313 318 314 308 335 343 345 351 355 356 359 359 359 358 356 355 356 354 351 349 347 346 347 349 348 347 346 343 343 344 344 343 344 343 343
332 323 316 308 298 293 294 300 300 303 306 313 311 319 319 319 329 330 337 345 348 352 354 354 358 359 359 357 355 355 355 351 349 346 345 345 346 348 349 347 345 341 341 342 342 342 343 343 342
328 318 310 303 296 293 293 300 303 306 307 306 316 322 322 322 331 334 340 348 350 352 353 354 358 359 358 357 355 352 350 349 346 344 345 345 345 349 350 347 344 340 340 341 340 341 342 341 341
320 314 309 299 295 299 299 302 305 306 306 306 317 319 326 330 334 338 347 350 350 351 353 355 357 358 357 355 353 350 349 347 345 347 347 345 345 349 350 346 342 340 340 340 339 340 340 341 341
317 310 299 297 297 301 302 305 306 304 304 305 316 317 323 331 338 345 347 349 347 350 353 355 356 356 354 353 351 349 346 344 345 348 348 347 346 349 348 344 342 340 340 340 339 340 340 340 340
311 307 297 294 297 301 304 307 306 305 304 312 319 321 323 334 338 342 348 347 346 349 353 353 353 354 353 352 350 348 345 344 347 351 350 349 349 350 346 343 342 341 340 341 340 339 339 339 339
309 303 297 296 297 300 303 309 306 305 303 303 322 318 325 331 338 343 344 345 347 351 352 353 353 351 349 349 349 347 346 345 347 349 350 350 349 347 345 342 342 341 340 340 341 340 339 338 337
311 306 298 298 298 299 307 308 309 307 306 311 320 315 320 330 338 341 343 344 348 349 349 351 352 350 348 347 346 345 344 343 345 346 344 341 341 343 345 342 343 341 339 339 340 340 339 337 336
313 300 296 298 299 302 308 306 310 311 308 316 318 324 328 335 339 339 340 342 343 345 348 348 349 349 348 347 344 343 342 340 341 342 339 339 343 343 341 337 339 342 341 339 339 339 338 335 332
307 300 299 304 305 304 308 307 307 307 305 306 308 312 327 334 335 333 333 333 336 338 342 346 347 346 347 345 345 344 342 339 337 340 343 342 341 341 340 335 336 340 341 341 339 340 338 333 332
307 300 303 305 309 310 308 307 308 306 303 306 305 308 315 331 332 331 333 334 335 338 340 344 345 345 344 344 344 343 342 340 338 336 338 338 338 338 338 338 337 339 334 340 340 340 340 334 331
302 306 306 309 310 308 306 309 306 307 307 310 308 312 311 327 330 330 332 334 335 336 340 343 344 344 343 342 343 342 341 339 337 336 335 334 334 334 334 334 334 334 337 337 338 337 337 334 331
302 305 307 309 309 308 309 305 306 306 309 310 310 310 320 324 327 330 334 335 336 337 339 341 342 342 342 341 341 341 340 339 338 336 334 333 332 330 331 331 331 331 334 335 335 335 334 334 332
304 304 306 308 308 308 306 305 306 305 308 308 309 308 308 321 326 327 330 333 334 337 337 339 339 341 341 340 340 340 340 340 338 336 335 334 332 331 328 327 328 329 331 332 332 332 332 332 332
304 300 303 305 307 306 307 302 302 307 308 307 307 308 307 306 317 326 329 331 333 335 337 337 338 339 338 339 340 340 340 339 339 338 337 335 334 332 330 329 328 330 331 330 331 331 331 331 331
298 299 294 303 306 305 304 295 303 308 307 306 307 308 307 307 305 310 325 330 333 334 335 337 337 337 337 337 338 338 338 339 339 339 339 338 336 334 332 330 330 330 330 330 330 330 329 329 329
296 289 292 296 305 303 301 297 303 308 307 305 307 307 306 306 307 307 306 315 330 332 333 334 337 337 337 337 336 337 337 337 337 337 338 338 337 335 333 332 332 331 330 329 328 328 328 327 328
288 288 291 292 300 301 298 297 302 305 306 306 306 306 306 307 308 307 305 305 308 316 325 332 334 336 337 337 335 334 334 334 335 335 335 336 335 336 335 334 333 331 330 329 328 327 327 327 327
291 291 290 294 300 299 297 296 300 304 304 305 307 305 306 306 307 305 305 304 305 306 310 319 328 326 332 333 333 333 333 334 335 334 334 333 333 333 333 333 333 331 328 330 329 328 325 325 325
292 290 289 293 298 298 297 296 299 301 302 304 306 305 305 306 302 303 304 304 306 306 307 308 310 309 314 324 327 331 332 332 333 334 334 334 335 335 334 332 331 330 329 328 328 327 326 325 323
289 288 288 289 293 295 294 292 295 298 301 303 305 306 305 304 301 301 302 304 306 307 308 308 309 308 309 308 309 309 310 313 318 322 325 312 314 320 327 330 332 332 329 328 329 327 325 324 323
287 292 292 290 289 286 293 284 291 295 296 299 302 304 304 303 299 301 302 304 306 307 308 308 308 308 309 309 308 307 307 307 307 309 310 311 314 315 316 317 319 324 327 328 327 326 324 323 322
289 292 291 290 287 287 286 285 288 292 293 296 299 301 303 304 301 301 303 305 306 306 307 307 307 307 308 309 309 308 307 307 307 309 310 311 312 312 312 313 314 316 320 322 322 325 323 322 323
292 290 288 287 287 282 285 286 285 288 291 295 300 302 303 304 302 301 303 305 305 305 305 306 305 305 307 308 308 308 308 308 309 309 309 310 311 310 308 309 311 313 314 316 319 321 323 322 321
291 286 280 281 280 278 284 283 288 292 292 293 295 298 300 301 299 300 302 303 303 303 304 304 304 303 305 305 306 306 306 307 307 307 306 306 307 307 305 306 307 308 309 313 317 320 321 321 320
289 286 279 274 276 278 283 281 287 293 294 294 294 294 295 295 297 299 303 303 303 303 303 303 302 302 302 302 301 302 302 302 301 301 302 301 301 302 302 303 303 303 305 308 313 316 316 317 316
288 283 285 278 277 277 280 283 288 290 291 292 293 293 294 295 297 300 302 303 303 302 302 302 301 301 301 300 299 298 299 299 298 298 298 299 298 300 299 300 300 300 301 303 306 308 310 308 308
290 290 283 280 273 274 277 279 283 287 289 289 290 292 294 296 298 300 301 301 302 302 301 300 300 300 299 298 298 297 296 296 296 296 296 296 296 297 297 297 297 298 298 300 301 302 303 304 303
289 286 285 284 280 277 275 280 286 288 288 287 288 291 294 296 299 300 300 300 301 300 299 298 298 298 297 297 296 295 295 295 295 295 294 294 295 295 295 295 295 295 295 297 298 298 300 300 299
291 287 286 280 277 276 277 280 289 288 289 288 291 294 295 298 299 300 300 299 298 298 297 297 297 297 296 295 295 294 294 294 294 293 294 294 294 294 294 294 293 293 294 294 295 295 295 295 295

GFSSGP_sfc_thetae_072.txt.gz
Theta_e
339 333 330 320 306 305 300 301 307 305 306 312 312 312 320 322 315 314 342 346 346 348 353 357 359 359 359 358 355 355 354 353 350 349 348 348 350 348 348 346 343 343 345 345 345 345 345 344 343
336 327 323 315 302 297 299 304 304 307 311 316 318 320 320 321 332 335 338 346 347 350 354 355 359 359 359 356 355 354 352 350 348 347 346 347 350 349 348 346 342 342 343 343 344 344 344 343 343
332 324 314 307 302 298 299 304 308 310 312 314 317 326 325 326 335 337 344 347 349 351 352 356 359 359 358 356 355 355 351 348 346 344 345 345 349 351 348 344 341 341 342 341 343 343 342 342 342
326 320 316 302 299 303 303 308 309 310 310 312 317 321 331 336 337 341 347 347 348 350 351 355 357 358 357 356 354 351 349 347 345 347 345 346 348 351 347 343 340 340 340 340 341 341 342 342 343
325 317 304 300 301 304 307 309 311 310 309 310 318 320 326 337 342 346 346 347 347 348 351 354 357 357 355 354 352 349 347 346 347 348 346 347 348 350 346 343 341 341 340 340 340 341 341 341 342
314 315 301 298 300 305 308 311 310 310 309 316 319 323 327 339 341 344 347 347 348 348 350 352 353 354 353 352 350 348 345 345 349 350 348 348 351 348 345 343 341 341 341 340 340 340 340 340 339
312 307 301 301 301 302 305 312 310 310 307 313 326 320 330 334 342 345 345 347 347 350 348 352 352 351 349 349 348 347 346 348 348 352 351 350 349 347 345 342 342 340 341 341 340 339 339 338 337
314 310 303 303 300 299 309 310 312 310 310 320 328 320 325 336 341 344 344 344 348 348 347 351 351 350 348 346 345 344 344 345 347 346 344 343 342 343 345 343 343 341 340 340 340 339 338 337 335
317 305 301 302 301 303 310 309 312 314 314 314 316 323 329 336 340 340 341 343 343 346 347 349 347 348 348 346 343 342 341 342 343 342 339 339 344 344 342 338 340 341 339 339 339 339 337 333 333
310 304 303 308 308 305 310 311 310 310 312 311 314 320 326 337 337 337 338 338 340 343 346 348 348 348 347 345 345 345 341 337 336 340 342 342 343 343 343 338 337 338 339 339 339 339 337 333 335
308 301 308 309 309 312 310 310 311 310 309 311 310 315 317 333 334 334 337 336 338 342 343 347 348 348 347 346 346 345 344 343 341 340 340 338 337 339 339 340 340 341 336 341 339 339 337 335 335
304 307 309 309 311 310 308 311 309 310 312 314 314 318 316 329 331 332 335 339 340 339 340 347 348 347 347 347 346 345 344 343 342 341 340 340 337 336 334 334 335 335 335 338 339 336 335 334 334
304 306 309 310 311 311 311 308 308 309 313 315 315 316 324 324 329 332 334 338 341 341 343 347 348 348 347 347 346 346 344 343 343 343 341 340 339 336 335 333 332 332 333 335 336 335 333 332 332
306 307 308 310 310 310 307 307 308 310 313 313 313 314 315 320 330 331 331 333 336 341 343 346 346 346 347 346 346 345 345 344 344 343 343 341 340 338 336 335 330 331 332 335 336 336 335 335 334
307 302 306 307 309 307 309 303 304 312 312 311 312 313 314 314 315 328 333 336 339 342 344 344 344 345 345 346 347 346 345 344 344 344 343 342 341 340 337 336 335 332 335 334 335 335 335 335 335
301 302 296 305 308 307 307 299 306 312 310 310 312 313 314 313 313 313 323 334 339 341 342 343 342 343 344 345 345 344 344 344 344 344 345 344 342 341 339 337 337 338 336 336 335 335 334 334 334
299 292 295 298 307 305 305 300 306 310 309 308 311 312 313 313 314 314 312 317 335 339 340 339 341 341 342 343 343 344 344 343 344 344 344 344 343 342 340 338 338 339 338 337 336 335 335 334 334
291 293 295 296 303 304 302 301 303 308 309 309 310 312 313 312 313 315 314 312 314 332 338 339 340 341 343 343 343 342 342 343 344 343 343 343 343 342 340 339 339 339 337 337 337 336 337 335 334
296 295 293 297 303 301 300 300 302 305 306 307 309 310 312 312 315 313 314 312 312 315 323 333 337 340 341 341 340 340 339 341 341 342 342 341 340 339 338 338 339 339 337 337 337 336 334 333 334
296 294 294 299 303 302 300 300 303 304 306 307 307 310 311 313 313 313 312 311 311 313 315 319 327 336 337 339 340 341 341 341 342 343 341 341 340 340 340 340 339 339 337 337 336 335 332 332 334
295 293 294 294 300 301 299 296 299 304 305 307 308 309 311 313 313 312 311 310 312 313 314 315 317 318 320 326 327 326 326 326 329 334 336 323 322 325 329 332 333 334 334 332 333 333 329 326 330
291 297 297 296 295 289 299 288 296 300 301 303 306 308 309 311 313 311 309 308 310 313 315 315 315 314 314 314 315 317 320 318 317 317 317 317 318 319 319 320 322 325 329 329 330 332 330 328 325
293 298 296 296 293 292 292 289 293 298 297 301 304 306 308 310 312 309 308 308 310 313 314 314 314 314 314 315 315 315 314 314 314 315 315 316 317 316 316 317 319 320 322 324 324 324 324 326 325
297 295 295 295 293 285 290 290 291 294 297 299 304 306 307 309 310 310 310 310 311 313 313 313 312 312 314 315 314 314 314 313 314 315 315 316 317 316 313 313 315 316 317 319 320 320 322 322 323
297 293 284 282 283 283 289 289 292 297 299 299 300 304 308 310 310 310 307 309 310 310 311 311 312 311 312 312 313 313 313 314 313 313 314 313 313 313 312 311 312 312 313 315 318 319 320 322 322
294 293 286 278 280 284 288 285 292 299 300 299 300 302 302 303 306 307 308 309 309 310 310 309 310 309 310 310 310 310 311 312 311 309 310 309 309 309 307 308 308 308 309 311 315 318 320 319 317
292 289 291 285 284 284 288 290 295 296 298 298 298 299 301 303 304 303 304 308 309 309 309 309 309 308 308 308 307 307 307 307 307 305 307 306 305 304 305 305 305 306 306 308 311 314 315 314 311
295 295 287 289 280 278 283 285 288 293 295 296 297 297 299 301 302 303 304 307 308 309 309 309 308 307 306 306 306 305 304 303 303 304 303 303 303 302 303 303 303 303 304 305 307 309 310 310 309
292 291 291 290 288 283 281 286 294 294 295 295 297 299 300 301 302 304 305 307 308 308 307 307 307 305 304 304 303 302 302 301 302 301 301 301 301 301 300 300 301 301 301 303 305 305 305 305 304
294 293 293 287 284 286 285 287 295 296 296 296 299 300 301 302 304 305 306 306 305 305 306 305 305 305 304 303 302 301 300 300 300 300 299 300 300 300 299 299 299 299 299 300 301 300 301 301 300

GFSSGP_sfc_thetae_075.txt.gz
Theta_e
340 335 330 323 306 305 301 305 310 306 309 314 315 315 319 323 316 319 340 344 347 349 353 355 359 359 359 356 354 353 351 351 349 348 349 350 349 348 345 343 344 346 346 346 346 346 345 344 342
339 330 325 315 302 298 300 308 306 310 312 315 317 317 319 322 333 335 337 344 346 350 351 353 359 359 358 355 354 353 351 349 349 347 348 351 349 348 344 342 343 344 344 344 345 344 344 343 343
334 328 315 306 301 298 300 306 308 312 313 314 314 323 324 328 335 335 342 344 348 350 351 354 358 359 357 355 355 353 350 347 346 346 347 349 350 348 344 341 342 343 343 344 343 343 343 344 344
327 321 317 303 299 303 305 307 311 311 311 316 317 316 331 338 336 340 343 344 347 349 352 356 358 358 357 356 356 351 349 346 345 346 346 347 351 348 343 341 341 341 341 342 342 342 342 344 344
327 317 304 302 302 305 308 311 311 309 313 312 317 320 327 339 342 344 343 344 346 346 354 355 357 357 356 354 353 351 348 347 347 346 346 347 351 347 343 341 341 341 341 341 341 341 341 342 343
315 314 301 299 302 306 309 312 311 310 311 315 315 322 328 340 341 342 344 344 346 347 349 353 353 354 353 352 350 348 346 346 349 348 347 348 350 346 344 342 341 341 340 340 340 340 340 340 341
313 307 302 303 302 303 307 313 310 310 310 316 323 318 331 336 342 344 343 345 345 349 348 350 351 350 349 349 348 347 347 349 349 351 350 351 348 347 344 343 341 341 341 340 340 339 339 338 337
315 309 303 303 301 301 309 311 313 312 311 324 326 318 324 336 342 346 344 343 344 347 347 349 349 348 346 344 345 345 346 347 349 349 347 344 343 343 345 344 342 340 340 340 340 339 338 336 335
316 303 301 302 303 304 310 309 313 315 315 317 320 326 329 338 342 340 340 341 341 343 347 349 346 346 343 344 341 340 342 344 342 341 340 339 342 342 340 339 341 341 339 339 339 339 336 334 333
307 302 304 310 309 307 308 309 311 311 312 313 316 323 335 337 338 336 336 337 339 340 343 345 345 344 344 343 342 341 333 341 341 340 340 341 341 342 341 338 338 340 339 339 339 339 338 334 333
307 301 309 308 310 311 310 309 312 309 309 312 312 318 329 335 335 336 339 339 339 341 344 344 344 344 343 343 343 343 341 336 336 337 338 336 336 338 337 339 339 340 335 339 338 337 337 335 333
302 307 306 308 312 312 309 311 308 311 312 315 316 321 325 330 333 334 337 338 339 341 344 344 344 345 344 343 343 342 341 341 340 340 339 338 335 334 332 332 333 334 334 335 337 335 333 332 332
304 306 308 311 311 311 312 309 308 309 315 316 317 319 325 330 333 333 334 338 338 339 340 345 344 344 344 343 342 342 341 341 341 341 340 339 337 334 334 332 330 330 330 332 333 334 332 331 330
305 306 307 310 308 310 309 309 309 310 315 314 314 315 320 328 331 331 332 334 338 339 341 343 344 345 343 343 342 342 342 341 342 342 342 340 339 337 335 335 331 329 331 334 335 335 335 334 334
305 301 305 307 307 308 311 305 304 310 313 312 313 315 316 317 322 332 335 335 338 341 342 342 343 343 341 343 343 342 342 341 342 342 342 341 340 340 337 336 336 332 334 334 334 335 335 335 335
301 302 295 304 306 308 308 299 307 310 311 311 312 314 315 315 316 319 331 336 339 341 340 342 342 342 341 341 343 342 343 342 343 343 343 342 341 340 340 338 338 339 337 337 336 336 335 335 335
298 291 295 298 306 306 306 300 306 311 309 308 311 312 314 315 316 317 317 327 337 340 341 342 342 341 341 341 342 342 342 343 343 344 343 344 343 342 340 339 338 339 339 338 337 336 336 335 334
290 292 295 295 302 304 302 301 306 309 309 308 310 311 313 314 315 317 317 316 323 338 341 342 342 342 342 342 342 342 342 343 343 343 343 344 343 343 342 340 339 339 338 337 338 336 337 336 335
295 293 294 297 303 302 301 301 304 307 308 308 309 310 311 314 317 317 316 316 315 324 335 339 340 341 341 341 340 340 339 341 342 343 344 343 343 342 341 340 339 340 338 338 338 337 335 334 336
295 293 294 298 302 302 300 300 304 306 307 308 308 309 311 313 315 316 316 316 314 315 324 331 336 339 340 341 342 342 342 342 342 344 343 342 341 341 339 338 338 338 337 336 336 335 332 332 334
294 293 294 295 299 301 299 297 300 305 307 307 309 311 312 312 313 315 314 314 314 314 316 320 325 332 335 339 339 334 332 332 335 338 338 331 328 330 331 331 331 333 334 332 332 331 330 327 330
291 297 297 296 295 289 299 287 296 300 302 304 307 309 310 312 314 315 316 314 312 314 318 317 318 319 321 322 326 328 329 328 325 325 323 320 320 320 320 321 322 324 328 329 330 330 330 329 325
293 299 297 297 294 293 294 290 294 300 299 302 305 307 309 311 312 314 315 314 312 316 317 317 317 316 316 317 318 318 316 317 316 315 315 316 318 317 317 317 318 319 321 322 323 324 324 324 322
300 297 296 295 293 286 291 290 290 294 297 300 304 307 308 310 311 313 315 313 312 316 316 317 315 315 316 317 317 317 316 315 315 315 315 316 317 317 315 315 316 317 317 318 320 321 320 320 320
297 293 285 283 283 283 292 289 292 298 300 301 301 304 307 309 310 311 312 312 312 313 314 314 314 313 315 315 315 315 316 315 315 315 314 314 314 314 314 312 312 312 313 313 316 318 320 319 321
294 293 286 278 280 284 291 285 292 300 302 303 303 304 305 305 309 311 313 312 312 312 312 312 312 312 313 313 313 314 314 313 313 312 312 311 310 310 309 309 309 309 309 310 312 315 318 319 317
293 290 293 287 288 286 288 291 297 298 299 301 301 301 303 305 306 307 309 311 312 312 312 311 311 311 311 311 311 310 310 310 309 308 308 308 307 306 305 306 306 307 307 308 309 312 314 314 313
296 297 287 289 280 279 285 287 289 294 296 298 299 300 301 302 304 306 306 307 311 311 312 312 311 310 309 309 309 308 307 306 306 306 305 304 304 304 304 304 304 304 305 306 307 309 310 310 310
293 291 292 291 289 283 281 286 296 296 297 298 300 302 303 304 304 305 306 308 310 311 311 310 310 308 307 307 306 305 304 304 303 303 303 302 302 302 302 302 302 302 302 303 305 305 306 306 306
296 293 293 286 285 287 286 287 297 299 298 300 301 302 304 305 305 306 307 308 308 309 309 308 308 307 307 306 305 304 303 303 302 302 301 301 301 301 301 300 300 300 300 301 302 302 303 302 301

GFSSGP_sfc_thetae_078.txt.gz
Theta_e
337 337 333 322 306 301 297 300 308 309 311 317 315 310 313 323 319 313 335 341 349 348 350 355 358 358 357 356 353 354 353 352 351 351 349 348 347 344 344 345 346 347 348 347 346 346 344 343 344
330 332 323 314 298 293 295 304 306 308 310 312 315 315 318 322 330 329 332 343 348 349 348 351 358 358 358 355 353 353 350 349 349 350 351 350 347 343 343 343 345 346 345 344 345 345 344 343 343
327 330 312 305 299 294 296 304 306 310 310 312 312 319 325 326 330 330 338 343 347 347 348 353 358 358 357 355 354 351 349 349 348 349 351 350 347 343 342 343 343 344 344 343 344 344 345 345 344
323 321 314 300 296 300 301 305 309 309 308 312 312 318 330 337 330 335 339 344 345 345 351 355 357 357 356 356 354 350 348 345 347 348 349 351 347 343 341 342 342 343 344 343 343 343 345 344 343
322 317 301 299 299 302 304 309 308 307 308 309 316 318 325 336 341 338 337 344 343 348 351 354 357 357 356 355 353 351 348 347 347 347 348 352 347 343 341 341 341 342 342 342 342 342 343 343 343
313 314 297 295 299 303 307 309 307 308 308 312 313 320 327 338 339 336 338 341 347 348 349 352 353 354 353 353 352 351 349 349 348 350 350 351 347 344 342 342 341 341 341 342 341 341 340 341 342
310 305 299 298 299 301 306 309 305 307 306 313 315 313 328 334 340 341 338 341 346 346 347 349 349 349 349 349 348 348 349 350 350 350 350 350 347 345 343 341 342 342 341 340 340 340 339 338 337
313 308 300 301 299 301 307 309 312 310 310 321 321 313 323 332 341 344 341 342 343 345 346 346 345 344 341 341 344 346 347 348 350 348 347 344 342 343 344 343 342 342 341 341 340 339 338 336 335
316 302 298 300 302 303 308 307 312 314 314 314 320 322 333 339 340 339 338 337 341 343 345 344 344 342 341 338 339 343 344 344 344 343 341 339 337 339 338 338 340 341 341 340 340 338 336 336 334
306 301 302 307 306 305 307 308 308 309 310 312 316 330 334 337 335 334 334 334 337 340 343 345 343 340 340 339 333 332 340 338 338 339 337 337 336 336 338 335 338 340 340 340 340 340 339 335 328
306 300 306 308 310 311 307 308 311 308 306 309 309 323 332 335 334 332 335 335 337 339 343 343 342 341 341 338 336 330 329 334 334 334 334 333 335 334 335 333 333 333 333 333 337 335 335 329 327
301 306 306 309 311 310 308 309 307 309 308 312 314 326 329 332 333 334 335 336 337 339 341 342 343 341 341 340 337 337 334 331 329 331 332 329 326 327 327 329 332 331 331 331 331 331 331 327 326
301 305 307 309 310 309 311 307 306 309 312 313 315 324 328 330 333 333 334 337 337 338 340 341 343 342 341 340 337 337 334 334 334 334 334 332 329 327 326 323 324 324 323 323 326 327 326 324 323
304 305 306 307 307 307 305 307 307 307 313 311 313 315 324 329 331 328 329 332 336 337 337 339 341 342 342 340 338 338 337 335 335 335 335 334 331 329 327 327 324 322 323 324 327 327 327 327 327
303 300 304 305 307 304 308 304 302 308 311 309 310 312 315 317 322 328 331 331 337 338 339 338 339 342 341 340 340 339 337 337 335 336 336 334 334 332 329 328 326 323 325 326 326 327 328 327 329
299 300 293 301 305 307 305 295 304 308 307 307 308 309 311 313 316 323 332 332 334 336 336 339 342 340 340 340 340 339 338 335 337 336 336 336 335 335 333 331 331 332 328 329 328 328 328 327 327
296 289 292 296 303 302 301 297 306 308 307 306 307 308 309 311 312 313 320 326 334 335 334 336 339 337 338 339 340 339 338 337 338 337 337 337 337 336 334 333 332 333 332 331 330 329 329 328 330
289 289 292 293 299 299 298 299 303 307 305 304 305 307 308 309 312 313 313 313 321 332 335 337 337 336 336 338 338 338 337 338 338 339 338 340 339 339 337 334 333 332 331 330 330 330 332 331 331
293 291 291 294 301 300 298 299 302 304 304 304 304 306 307 308 312 313 312 312 311 320 331 336 336 336 336 335 334 334 334 336 336 337 340 340 339 339 337 337 336 335 333 333 332 330 328 327 328
292 290 291 296 301 300 298 297 301 303 304 305 305 306 307 309 310 310 312 310 310 311 324 330 334 334 334 336 334 335 335 336 337 338 338 335 335 336 336 334 334 335 334 333 333 332 330 330 329
292 290 291 292 298 300 297 293 296 302 303 305 307 307 309 309 309 310 310 310 309 308 313 323 326 331 334 334 331 329 327 329 329 334 333 323 324 325 325 327 329 329 331 330 330 329 328 326 327
289 296 296 295 293 287 296 281 293 297 299 303 303 305 304 307 310 311 311 310 308 310 312 312 317 319 320 321 326 325 324 324 319 320 318 315 316 316 317 317 317 317 319 322 325 328 325 322 320
292 298 296 296 293 290 291 284 288 296 294 299 301 302 304 306 307 310 310 310 309 312 312 312 313 314 314 314 316 317 313 311 310 310 311 312 313 313 313 314 314 314 315 316 317 317 317 318 316
298 295 294 295 291 279 288 286 285 289 294 297 301 304 304 305 305 307 309 309 308 312 312 312 311 311 312 312 312 311 310 309 309 309 310 311 313 312 312 312 311 312 312 312 313 314 315 314 315
296 291 280 277 276 277 288 285 287 293 296 295 297 296 300 305 305 306 308 306 308 310 311 311 311 310 311 311 311 311 311 310 309 310 309 309 309 310 307 308 307 307 308 309 309 311 312 314 314
291 289 280 274 275 279 287 280 286 294 297 298 299 298 301 300 301 304 306 306 307 310 310 310 309 309 311 311 310 311 310 309 308 307 306 305 304 304 304 304 305 305 306 306 307 308 310 314 313
291 287 290 284 284 279 283 286 290 295 294 295 295 297 296 298 300 300 301 305 307 309 310 309 308 308 309 309 307 307 307 307 305 304 304 302 302 302 301 302 302 302 303 304 305 305 307 309 312
294 295 284 282 274 275 281 283 284 288 291 294 294 295 296 297 298 300 300 303 306 307 308 308 307 307 307 307 305 305 303 302 302 302 300 300 300 300 300 300 300 300 301 301 302 303 305 306 307
291 289 289 287 283 277 275 280 290 291 293 294 295 297 297 298 299 299 300 301 304 306 306 306 306 305 305 304 303 302 301 301 300 299 299 298 299 298 298 298 298 298 298 299 299 300 301 302 304
295 290 290 280 281 282 280 282 292 294 295 296 296 297 297 300 301 301 301 302 303 304 304 303 304 303 304 303 302 300 299 299 299 298 298 298 297 298 297 297 297 297 297 297 297 298 298 299 298

GFSSGP_sfc_thetae_081.txt.gz
Theta_e
335 329 331 318 302 300 293 298 302 307 308 314 314 311 317 321 318 309 336 346 347 350 353 355 358 357 356 354 352 353 353 352 352 351 347 345 344 346 347 348 349 349 346 345 345 344 345 345 345
329 326 319 310 297 288 290 300 303 308 308 313 316 316 320 321 327 327 338 346 347 349 351 354 357 357 356 353 351 351 351 351 353 352 348 344 343 344 344 347 347 346 344 344 344 344 343 343 343
325 325 308 302 295 291 292 300 307 311 310 311 314 323 327 325 330 329 344 346 347 346 351 354 356 356 355 353 351 350 349 349 351 353 350 344 342 343 344 345 345 343 343 343 344 344 344 344 343
319 315 310 296 292 298 299 304 308 311 309 310 316 319 330 338 334 335 345 347 344 344 351 354 356 356 355 354 352 349 348 348 349 352 350 345 342 343 343 344 344 343 344 343 344 344 344 343 343
318 311 298 294 296 298 301 308 307 306 307 309 319 320 325 337 341 338 344 345 344 348 351 353 356 356 355 354 352 349 347 347 348 351 349 346 342 342 343 342 343 343 343 342 343 344 344 343 343
308 309 292 291 294 301 304 307 307 305 307 309 316 322 325 338 338 339 343 345 348 348 351 352 352 354 354 353 351 350 349 347 349 351 351 346 343 342 342 342 342 342 342 342 342 341 342 342 341
304 300 294 293 294 299 304 306 302 303 306 312 318 315 327 332 339 342 341 347 348 349 349 349 349 349 349 349 349 349 350 349 350 351 350 348 345 343 342 342 342 341 341 341 341 340 339 338 337
310 304 296 295 295 298 305 308 309 308 309 319 320 315 314 331 341 342 343 344 345 346 346 345 344 344 341 340 345 347 347 348 348 348 346 343 342 342 343 342 343 342 341 340 340 339 338 336 335
315 300 295 296 299 302 305 305 310 312 312 317 321 324 330 337 339 337 337 338 341 343 343 342 340 337 336 338 342 343 344 345 344 343 340 338 337 338 338 337 339 342 341 341 340 338 337 335 334
306 299 298 304 305 301 305 305 307 309 310 316 324 329 335 335 333 332 333 333 337 339 340 341 339 337 335 336 336 337 340 340 340 341 337 336 333 334 337 335 337 340 340 340 340 340 339 334 326
305 299 305 308 311 310 306 306 309 307 304 307 320 326 331 330 330 330 333 334 336 340 341 340 339 337 335 330 329 332 335 335 336 337 336 334 334 334 333 331 333 332 333 332 336 335 333 328 327
301 306 307 308 310 310 307 309 306 307 307 311 323 330 331 331 331 330 332 333 335 338 339 342 340 339 337 334 332 326 333 331 330 332 332 327 329 330 329 329 329 329 330 328 329 328 329 329 327
300 304 307 308 309 309 310 306 307 306 310 313 326 328 327 328 332 332 332 336 336 334 339 340 341 340 339 337 335 330 327 328 328 330 330 327 325 324 323 325 328 327 327 326 327 327 326 323 322
303 304 305 307 308 307 306 307 305 306 309 310 323 324 327 329 329 329 330 331 336 337 338 339 341 341 341 339 335 337 335 333 331 331 331 330 328 325 324 322 321 319 319 320 323 325 325 324 324
304 299 301 304 306 304 307 303 302 306 308 307 311 320 324 326 330 327 328 330 335 337 338 338 338 342 339 339 338 337 336 336 333 332 333 332 331 328 326 325 324 320 321 322 323 325 325 325 326
299 299 292 300 305 306 304 296 304 307 305 304 306 308 310 314 323 324 331 332 336 336 337 339 342 340 340 339 339 337 339 335 336 333 333 333 333 332 328 327 328 326 323 325 325 325 325 325 325
295 287 292 295 304 303 301 296 303 307 304 303 304 305 307 308 311 319 325 331 334 336 335 336 338 337 338 339 340 338 338 335 334 335 336 335 334 334 332 331 331 331 330 328 327 327 326 326 327
288 288 292 293 298 300 297 296 301 305 304 302 303 305 304 307 309 311 315 318 330 334 335 335 337 338 339 338 336 338 336 336 336 337 337 337 336 335 334 332 331 330 329 329 328 328 329 330 330
293 291 290 295 301 297 294 294 299 303 303 300 300 302 305 305 309 309 311 312 317 326 332 335 335 334 334 334 333 332 333 335 336 336 339 338 337 338 336 336 334 335 333 332 332 331 330 328 327
292 290 290 295 300 298 295 294 300 301 303 302 303 302 303 306 305 307 308 308 309 316 326 331 334 332 334 334 334 332 334 334 334 335 330 332 333 333 333 333 334 334 333 332 332 331 329 329 329
291 288 289 291 297 298 297 294 296 300 302 304 305 304 304 306 307 306 306 307 307 307 320 326 330 334 334 334 332 328 328 328 330 331 326 320 323 322 322 324 327 328 329 328 329 329 327 325 326
288 294 294 294 292 287 295 284 293 297 299 301 301 301 303 304 307 307 307 306 305 307 312 321 324 326 328 331 328 326 325 324 322 325 316 316 316 315 316 316 316 315 316 316 318 319 320 318 317
292 296 293 294 292 288 290 286 288 292 294 298 299 299 301 302 303 306 309 309 307 307 308 313 315 316 319 319 324 323 316 314 310 311 312 312 312 313 313 312 312 312 313 313 314 315 315 315 313
298 294 294 293 291 281 288 286 283 287 294 294 298 300 302 302 303 304 307 309 306 308 309 310 312 312 312 314 314 317 309 308 308 308 308 310 310 310 310 310 309 309 309 309 309 310 311 312 312
295 288 282 280 280 279 287 284 285 290 294 296 298 298 298 301 302 303 304 304 307 308 309 309 309 309 310 309 309 309 308 308 308 309 309 309 309 308 305 306 305 305 306 307 307 307 308 310 311
292 289 278 275 276 278 285 280 286 292 294 296 297 297 297 297 298 300 304 303 306 308 309 309 308 308 310 309 309 309 309 309 308 308 307 305 305 303 303 303 303 303 304 304 304 305 307 310 310
291 286 288 282 281 278 281 285 289 292 292 292 294 295 295 296 297 297 301 303 305 306 308 308 308 309 309 309 308 307 306 306 304 304 303 302 301 301 301 301 301 301 301 302 302 302 304 305 307
293 293 282 279 275 275 278 279 282 286 288 292 292 293 295 295 296 297 299 302 304 306 306 306 307 306 307 307 306 305 304 304 303 302 301 300 299 300 299 299 298 298 299 299 299 301 302 303 303
289 288 287 285 280 276 274 278 287 288 291 291 293 295 296 296 297 297 298 299 304 304 305 304 304 304 304 303 303 302 302 301 301 300 299 299 299 298 297 297 297 297 296 297 297 298 299 300 301
292 289 289 278 280 278 277 279 291 291 293 294 294 296 296 297 298 299 299 300 302 303 303 302 302 302 302 301 302 301 300 300 299 299 298 298 297 297 296 296 295 295 296 295 295 296 297 297 296

GFSSGP_sfc_thetae_084.txt.gz
Theta_e
333 329 325 317 302 299 291 296 303 305 310 313 314 312 321 319 314 306 337 343 348 349 352 353 357 356 355 353 352 352 351 351 350 345 345 348 350 350 351 350 348 345 346 345 346 346 346 346 346
329 326 320 308 297 290 293 299 300 305 310 315 316 320 323 318 325 334 338 346 349 349 351 352 356 355 354 352 351 352 352 351 350 344 343 345 346 348 347 346 344 344 344 344 344 344 344 345 346
325 324 308 301 296 291 293 299 301 308 310 316 314 327 326 325 330 331 342 347 348 349 351 353 355 355 354 351 351 351 351 351 351 345 342 343 344 345 345 344 343 343 343 343 343 344 344 344 345
319 314 311 295 294 297 297 302 304 310 312 311 318 318 329 337 334 338 344 345 345 347 350 353 354 354 353 352 351 350 351 351 349 346 342 343 344 345 344 343 343 343 343 344 344 343 343 344 345
317 309 299 293 295 297 301 303 306 306 312 312 317 318 323 334 341 343 343 342 343 347 350 351 353 354 352 351 350 350 349 351 350 346 342 343 343 343 344 343 343 343 343 343 344 343 344 343 342
307 308 295 291 294 300 301 304 302 305 306 315 318 318 323 337 337 341 343 343 347 348 349 351 351 352 352 350 349 348 349 350 352 349 344 341 342 343 343 343 343 342 342 343 343 343 342 341 340
305 301 293 293 293 298 301 305 303 304 304 310 323 316 326 329 335 341 341 345 347 348 347 348 349 349 349 349 349 348 349 349 351 350 347 344 343 342 342 342 342 342 342 341 341 340 340 338 336
309 305 295 293 293 296 304 307 307 306 310 317 320 312 320 329 337 341 342 343 346 347 346 344 343 344 342 343 346 347 347 348 349 348 345 342 340 341 343 342 342 342 341 340 340 339 338 336 334
312 299 295 295 295 299 304 304 308 312 312 318 321 322 328 333 334 337 337 339 343 343 343 342 338 336 336 339 342 344 345 344 344 342 339 338 336 337 337 337 340 342 341 340 339 338 336 336 334
305 298 298 302 302 300 303 304 306 309 313 319 323 331 332 326 329 331 333 334 338 339 340 340 337 334 334 341 337 337 342 340 340 340 336 335 333 334 336 333 337 341 341 340 340 339 338 333 324
305 298 304 307 310 310 305 305 308 306 303 311 321 325 330 329 328 328 330 334 336 338 339 339 336 334 331 335 333 335 336 337 337 338 335 333 333 331 332 330 332 331 332 331 334 332 331 327 325
300 305 306 308 309 309 306 307 304 306 306 316 326 329 330 327 326 327 329 333 334 334 338 338 337 334 329 331 332 332 334 333 333 335 335 331 329 330 328 328 328 328 329 326 327 327 327 327 326
300 304 307 309 309 308 309 304 303 305 309 318 328 329 329 328 329 328 330 331 328 324 328 339 337 335 331 329 329 328 330 331 332 331 331 328 329 329 328 327 327 326 327 326 326 326 326 326 326
302 304 305 307 307 307 304 306 304 305 309 320 323 324 327 328 330 329 326 328 324 323 330 339 337 337 334 333 331 326 327 329 328 328 329 326 326 324 323 321 324 325 322 325 321 325 324 321 321
302 299 302 302 304 305 306 302 302 305 307 315 316 318 325 326 329 329 330 330 332 332 336 339 338 338 337 335 334 336 331 330 329 329 329 329 327 325 324 322 320 318 318 318 320 322 323 323 324
297 298 292 300 304 306 302 295 303 306 303 304 308 310 316 321 325 326 329 331 333 335 337 339 342 339 337 337 336 337 336 334 333 333 331 331 331 329 325 324 325 323 319 321 321 323 323 323 324
293 288 291 295 302 303 298 293 303 306 303 301 303 305 307 310 314 322 329 331 333 334 335 337 339 339 339 338 339 337 337 335 335 335 332 331 332 332 329 327 328 329 327 323 325 325 325 324 326
287 287 291 292 299 300 298 297 302 304 304 301 301 302 304 307 309 318 325 328 332 332 334 336 338 338 339 339 337 337 336 334 335 335 334 335 333 333 332 331 330 329 328 328 327 327 327 329 328
291 290 289 294 299 296 295 297 300 303 302 300 300 301 302 305 308 310 314 317 326 328 330 332 335 337 337 334 332 332 332 333 335 338 338 336 335 335 332 333 333 333 331 331 331 331 330 327 329
292 290 290 295 299 296 295 295 299 302 301 301 301 300 302 303 304 307 307 308 318 325 328 330 333 333 334 334 333 332 330 331 333 334 333 334 336 335 333 331 331 332 332 332 332 331 329 328 329
291 290 290 291 296 298 295 292 295 299 301 302 302 303 302 304 304 305 305 306 306 314 324 329 331 333 333 333 332 329 330 330 328 327 325 326 327 327 326 326 327 326 327 325 324 325 325 322 321
288 294 294 293 291 287 296 283 291 295 298 298 299 300 302 303 304 305 305 305 305 306 317 327 330 331 332 332 330 327 327 326 328 329 320 319 320 318 317 316 315 317 316 315 316 317 318 318 316
291 296 293 294 290 289 290 283 288 292 292 295 299 300 301 302 304 305 306 306 306 306 307 320 325 327 327 328 329 327 324 322 318 317 315 314 314 313 313 313 312 312 313 312 313 313 313 314 313
298 293 292 293 290 283 287 283 284 287 293 294 298 299 300 301 301 302 304 308 306 303 306 312 316 318 321 321 325 324 321 314 314 314 314 313 314 310 309 310 309 308 308 307 307 308 308 310 310
294 287 279 280 280 278 286 285 286 290 293 296 297 298 299 300 300 301 302 303 304 304 305 308 310 310 312 316 316 320 315 313 313 311 311 311 309 307 306 306 305 304 305 305 305 305 305 307 308
291 287 279 275 277 278 286 282 286 290 293 294 296 297 296 294 297 299 302 302 304 306 306 306 307 307 308 308 309 310 311 310 311 310 309 308 308 306 305 304 304 303 303 302 303 303 304 305 306
290 284 288 282 280 276 281 285 289 291 291 293 293 293 292 293 295 296 300 302 303 305 307 307 306 306 308 307 308 308 308 308 307 307 306 304 303 303 302 302 301 301 300 300 301 300 302 303 304
290 292 281 279 274 275 277 279 281 285 286 290 291 292 293 294 295 296 298 301 302 304 304 305 305 306 306 306 306 305 305 306 305 304 302 302 300 300 300 300 300 299 299 298 298 298 300 301 302
288 286 286 284 280 275 274 278 285 288 289 290 291 293 294 295 295 296 297 298 302 303 304 304 304 304 304 304 303 303 303 302 301 301 300 300 299 299 299 298 297 297 296 296 295 296 297 298 299
290 287 285 277 277 276 276 279 288 289 291 292 292 294 295 296 298 297 297 299 300 301 302 302 302 302 301 301 301 300 300 299 298 298 299 299 298 298 297 296 295 295 295 294 294 295 295 296 295

GFSSGP_sfc_thetae_087.txt.gz
Theta_e
332 329 323 316 299 296 289 296 303 305 310 313 313 317 317 318 311 304 337 342 346 347 350 352 355 355 354 351 350 350 351 349 348 350 352 353 353 353 351 348 347 346 345 346 346 347 346 346 346
327 325 320 308 293 290 293 296 299 306 314 316 316 321 320 316 329 334 338 345 348 348 350 350 354 353 352 350 349 349 348 346 345 348 350 350 351 350 348 346 345 345 345 346 346 346 347 347 347
326 324 311 302 294 290 294 300 300 307 315 314 314 325 325 324 332 334 341 347 347 348 350 350 353 353 352 350 350 348 349 345 343 345 348 348 348 347 345 345 343 343 343 344 345 345 345 346 345
320 316 312 297 292 296 295 302 303 309 311 317 317 315 328 335 333 337 347 347 345 346 348 351 352 352 352 352 351 350 350 346 342 343 344 346 345 344 344 343 343 343 344 344 345 345 345 346 344
318 311 300 296 294 295 300 303 304 307 309 313 316 313 322 333 339 343 344 345 344 347 348 349 352 352 350 350 350 351 351 347 343 342 343 344 345 344 343 343 342 343 343 343 343 344 345 344 342
307 307 296 292 294 298 301 303 304 305 310 313 314 317 323 334 338 341 343 344 346 346 347 348 349 350 350 349 348 350 352 349 345 342 343 343 345 343 342 343 342 342 343 343 343 343 343 341 340
304 301 296 294 294 296 301 303 302 304 307 312 320 314 324 330 335 341 342 344 345 346 346 346 346 347 347 347 348 348 350 351 348 344 343 344 343 344 343 342 342 342 342 342 342 341 340 338 336
304 304 295 295 293 295 301 306 307 305 306 320 322 314 317 326 336 338 342 344 344 343 344 345 343 345 343 343 345 346 347 348 347 345 342 340 339 340 342 342 343 342 341 341 339 339 337 335 334
309 297 293 295 295 296 303 304 307 313 312 317 322 321 326 331 334 335 337 339 341 342 343 341 339 339 338 339 342 344 344 344 344 342 338 336 333 335 336 336 339 341 341 339 339 337 335 336 332
301 294 294 301 300 298 303 303 306 311 315 316 324 327 328 332 331 333 333 335 336 337 341 340 336 335 335 341 338 337 340 340 343 337 334 333 332 332 334 333 337 340 340 340 338 337 337 332 323
299 295 300 304 308 309 305 303 307 308 306 315 319 324 326 328 328 332 332 334 334 337 339 338 334 332 333 336 334 335 336 336 338 335 334 332 332 330 330 329 330 330 332 329 332 330 329 325 323
295 300 301 307 308 307 305 306 303 305 305 314 325 326 325 324 326 328 328 331 333 328 327 331 333 332 329 334 333 334 334 334 335 336 334 330 328 328 328 327 327 326 327 325 325 325 325 325 325
296 298 303 308 308 306 308 304 303 304 308 325 328 327 323 324 324 327 328 327 329 327 328 329 328 333 329 332 331 332 333 333 333 335 334 331 328 328 327 326 325 325 325 325 324 325 325 324 324
298 302 301 307 306 306 304 304 303 304 309 321 325 325 326 325 326 327 329 328 327 322 324 329 327 335 331 329 329 331 330 332 331 332 334 331 329 328 327 326 325 324 324 325 324 322 325 324 320
299 297 299 304 303 304 305 302 299 304 306 316 318 321 324 324 328 327 329 324 325 326 326 327 327 335 333 330 329 329 331 331 330 330 330 329 327 327 326 322 320 323 322 319 318 319 321 321 322
295 295 288 301 303 303 302 296 302 305 302 307 311 314 319 324 328 328 327 325 323 325 323 325 330 339 338 336 332 331 328 328 330 328 329 329 327 325 323 322 321 320 318 318 318 320 321 321 322
291 287 288 294 301 301 298 296 302 305 302 301 301 306 309 314 321 326 328 328 326 324 326 326 332 337 338 338 337 336 335 332 330 331 331 329 330 328 326 325 325 326 321 320 322 323 323 323 324
285 287 289 289 298 298 294 295 301 304 302 300 301 301 303 306 309 317 326 330 332 332 333 335 337 338 337 338 338 337 335 334 334 333 333 332 331 331 329 328 327 328 327 326 325 325 326 326 327
291 289 289 293 299 296 293 294 297 302 301 298 300 301 302 305 307 310 322 325 328 330 332 334 334 336 335 334 334 333 333 334 331 332 334 333 333 332 331 330 329 329 328 328 330 329 329 328 328
291 289 289 294 298 296 294 293 297 301 302 299 300 301 301 302 304 307 307 311 321 325 329 331 333 333 335 335 334 334 334 334 333 334 334 335 334 333 332 331 330 329 330 332 331 329 328 326 325
290 288 289 291 295 297 295 291 294 299 302 301 301 301 302 302 304 304 305 306 306 315 324 328 331 333 335 335 332 329 329 329 328 329 329 329 331 331 330 330 329 328 327 327 324 322 321 319 319
287 293 293 293 290 287 295 284 291 295 297 299 299 299 301 302 302 304 306 305 305 306 316 327 330 332 333 332 330 328 327 325 327 326 323 323 323 323 324 322 322 319 318 316 315 316 317 317 315
291 295 293 294 291 290 290 285 287 293 294 297 296 298 300 303 304 304 305 307 307 306 304 318 325 328 328 331 331 329 325 324 323 320 317 317 319 319 319 318 316 315 314 312 312 311 310 311 311
296 293 293 292 290 281 288 286 284 287 292 295 295 297 300 301 302 303 304 306 306 305 304 309 318 322 324 326 327 327 324 319 317 315 315 314 314 315 315 314 312 310 309 308 308 308 307 308 308
294 287 280 279 280 279 287 285 286 290 291 294 295 296 298 298 299 301 301 301 303 304 304 307 313 315 319 318 322 323 322 319 320 318 316 312 311 309 308 307 306 305 305 305 305 304 304 304 305
291 285 280 276 277 277 286 282 286 288 291 293 295 296 295 295 295 298 301 302 303 303 303 305 309 310 310 312 314 316 315 316 315 316 315 312 311 308 306 304 303 303 303 303 302 302 302 303 304
289 280 286 280 279 277 281 284 288 289 289 291 292 293 292 293 294 295 299 300 301 303 303 304 306 307 307 307 306 307 309 308 313 311 310 308 306 304 301 301 301 301 301 301 301 300 300 302 302
291 291 282 280 274 274 276 278 280 285 287 290 291 291 293 293 294 295 296 300 300 301 303 304 305 305 305 306 306 305 306 305 305 305 303 302 301 301 300 300 300 300 299 299 297 297 298 299 300
287 287 285 283 279 274 273 278 284 286 288 289 290 291 293 294 295 295 296 297 300 301 302 303 304 304 304 304 303 302 302 302 301 302 301 300 300 300 300 299 298 297 296 295 295 296 296 296 297
288 285 285 277 277 275 275 278 287 286 290 291 291 292 294 295 296 296 296 297 298 299 300 301 301 302 302 302 301 300 299 298 298 298 298 298 298 299 298 297 296 295 295 294 294 294 294 294 295

GFSSGP_sfc_thetae_090.txt.gz
Theta_e
329 326 322 317 299 294 289 296 300 304 307 314 313 315 315 314 309 302 336 343 345 346 349 351 355 354 352 349 349 349 349 350 352 354 355 355 354 353 351 349 347 345 346 347 347 347 346 346 346
325 324 319 309 295 287 291 295 300 307 313 317 315 318 318 315 326 334 338 345 346 347 348 349 354 353 351 349 349 349 348 348 351 353 353 353 353 350 348 346 345 345 347 346 347 346 347 347 346
325 324 308 303 296 289 290 296 301 308 314 315 314 323 322 321 332 335 343 347 347 346 348 350 353 352 351 350 349 348 346 346 349 351 352 352 352 348 346 346 344 345 346 345 346 347 347 345 345
317 315 311 298 294 296 293 299 304 309 313 316 316 312 328 331 333 340 346 346 345 345 346 351 351 352 351 350 349 346 344 344 346 347 349 349 347 345 344 344 343 344 345 345 346 346 346 344 346
314 308 297 296 295 296 297 300 304 306 310 313 315 312 322 334 338 344 344 345 343 346 346 348 352 351 351 350 350 350 345 342 343 344 345 345 344 344 344 343 343 343 344 345 345 345 345 343 343
303 305 294 291 296 299 298 301 302 305 309 314 313 313 321 334 339 343 344 342 344 345 345 346 348 350 351 349 350 351 346 342 342 343 345 343 344 343 342 342 343 343 344 344 345 345 343 341 341
300 298 294 294 295 296 299 301 299 302 307 311 317 311 322 330 336 341 343 343 342 344 343 344 344 345 346 348 348 349 349 346 344 344 345 345 342 341 341 341 342 343 343 343 343 342 340 338 337
302 301 293 296 294 295 300 303 303 303 305 316 320 313 313 329 334 339 341 342 343 341 343 343 341 341 340 340 345 345 346 345 344 343 342 340 339 338 340 341 342 342 341 341 340 339 337 335 334
305 294 290 293 296 297 301 302 307 310 314 317 319 320 324 330 329 326 336 339 337 338 341 342 340 338 338 338 340 343 345 344 342 340 337 335 333 334 335 336 339 341 340 339 338 337 335 333 330
298 292 292 299 299 296 301 304 305 311 314 316 321 325 328 327 323 322 328 333 336 337 338 340 338 336 336 341 337 336 340 343 341 335 332 331 330 331 333 332 337 340 340 339 337 336 336 330 322
296 292 297 301 303 305 304 304 308 308 309 316 318 321 323 324 321 321 322 327 334 338 334 331 332 333 335 336 335 334 335 337 340 334 331 330 330 329 328 327 329 328 331 328 330 328 326 323 322
291 297 299 302 304 306 304 307 303 306 307 313 324 324 323 320 320 320 318 326 333 329 328 329 328 332 330 334 333 334 334 334 338 333 332 329 327 326 327 326 325 325 325 323 323 324 323 323 323
293 295 300 302 303 304 307 304 302 302 306 323 325 323 323 321 321 322 322 331 332 328 328 329 330 328 332 329 331 334 333 333 335 335 333 330 328 327 327 326 325 324 323 323 322 323 323 323 323
295 297 298 302 301 305 303 303 304 303 307 324 323 321 324 324 326 327 327 329 330 327 325 328 330 329 330 328 330 332 333 333 333 335 334 331 329 328 328 326 325 324 323 323 323 322 322 323 321
296 293 298 296 299 303 304 300 299 304 307 316 321 320 322 323 327 326 326 325 323 324 323 325 329 331 330 330 328 330 333 332 331 332 333 332 330 329 329 327 325 325 324 324 321 319 320 321 322
291 293 288 296 295 299 301 295 301 304 304 306 312 318 321 323 324 326 327 324 321 323 323 325 330 330 333 332 332 332 330 331 331 331 330 332 329 328 327 325 322 321 320 319 316 317 319 320 321
289 285 288 291 297 300 298 297 301 304 303 302 303 307 315 321 323 325 326 325 324 325 324 324 327 330 334 336 336 333 334 331 330 330 329 329 328 326 326 323 322 322 318 318 318 319 321 322 323
283 285 288 289 296 296 294 294 299 302 301 300 301 302 304 312 319 324 326 325 324 324 324 324 326 330 334 336 335 336 336 334 333 331 330 331 329 327 325 324 324 325 323 322 321 321 324 325 326
289 288 287 291 296 294 292 294 297 300 299 299 299 301 302 306 309 318 325 327 325 323 324 324 324 330 331 332 331 333 332 334 333 333 333 331 330 330 327 327 326 327 327 326 326 326 324 327 325
290 288 289 293 295 294 293 292 297 299 300 301 301 301 301 303 305 308 320 321 328 326 325 326 326 332 334 333 331 332 333 334 334 334 333 334 333 332 331 330 328 328 326 327 330 330 324 322 322
289 287 288 289 294 296 293 289 293 298 301 302 301 302 302 303 303 305 306 312 317 324 329 330 330 332 333 333 333 329 328 328 329 331 332 333 333 333 331 330 329 328 327 327 324 323 322 318 316
287 293 293 292 289 285 294 283 288 294 296 300 298 298 300 302 303 304 305 305 305 310 321 327 329 330 332 333 331 328 327 327 329 330 328 325 326 325 327 328 327 324 322 322 320 318 317 316 314
290 294 293 292 290 289 288 285 287 292 292 296 296 297 299 301 303 304 305 306 307 305 305 315 323 325 327 329 330 329 328 325 324 324 322 320 321 322 322 321 320 319 318 317 316 313 311 311 310
296 293 293 291 290 279 287 284 284 288 292 295 298 298 299 300 302 304 305 306 306 305 304 303 311 320 324 325 326 326 325 323 322 320 319 319 318 316 317 316 315 313 311 309 308 308 308 309 308
295 288 281 280 280 278 286 283 285 291 292 295 295 295 297 298 300 301 302 303 304 305 305 304 307 311 318 321 323 324 322 321 321 319 318 317 314 311 308 308 308 306 305 305 305 304 303 304 304
290 286 281 275 275 278 286 282 285 289 291 293 295 293 295 296 297 299 300 301 302 303 303 303 306 309 312 315 316 317 317 318 318 318 317 315 313 311 307 306 305 304 303 303 302 302 301 302 303
289 283 287 281 280 277 281 284 287 289 290 291 292 291 292 292 293 295 298 298 300 302 303 303 304 308 309 308 308 308 310 311 312 313 313 313 310 308 305 303 302 301 301 301 301 300 300 301 302
289 290 282 281 276 274 276 277 280 285 287 289 291 292 292 293 294 294 295 298 300 301 302 303 304 305 306 306 305 304 305 306 308 307 307 307 305 303 303 301 300 300 299 299 298 297 298 298 298
286 285 284 283 279 275 274 277 284 285 287 288 289 292 293 294 294 294 295 296 299 301 301 302 303 303 304 304 304 303 302 302 302 301 300 299 300 300 300 300 299 298 297 296 296 295 295 296 296
287 284 283 277 277 275 275 278 286 285 289 290 291 293 294 295 295 295 295 296 296 298 299 300 301 302 302 301 301 301 300 300 299 298 298 299 298 298 298 298 297 296 295 295 295 295 295 295 295

GFSSGP_sfc_thetae_093.txt.gz
Theta_e
329 327 327 321 305 301 297 300 305 308 310 316 316 320 317 320 311 307 339 343 347 349 351 351 353 355 352 351 351 350 351 353 355 355 356 355 354 353 351 348 346 345 346 347 348 347 346 346 346
327 325 322 311 299 292 294 301 301 309 314 316 317 317 320 319 330 334 337 345 348 349 350 349 353 354 351 350 350 349 349 352 354 354 355 356 353 352 349 346 346 348 347 348 346 346 346 346 346
324 324 312 305 299 292 294 299 303 309 316 315 314 319 322 323 333 336 344 346 348 349 350 350 352 352 352 349 349 348 348 350 352 353 353 353 353 349 346 345 348 345 345 347 347 347 346 346 344
320 317 312 299 295 299 299 301 303 309 314 316 316 312 324 333 335 341 346 347 347 348 350 351 352 352 352 351 349 347 347 348 350 350 351 352 350 347 345 345 346 347 347 346 347 346 345 348 345
318 310 299 295 296 300 303 304 304 308 312 314 315 311 315 334 341 344 346 347 345 347 349 350 351 352 350 350 348 345 345 346 347 349 349 348 345 344 344 343 345 345 345 346 346 345 344 344 344
306 307 294 291 295 300 304 305 305 305 313 315 313 312 314 334 338 343 345 345 345 346 348 348 348 350 349 349 349 346 343 343 345 347 346 344 345 343 341 342 343 343 345 346 345 344 343 342 341
301 298 292 294 295 298 302 307 303 304 310 313 318 311 320 330 337 342 344 344 343 346 346 347 347 347 347 348 348 347 344 344 345 345 343 344 344 340 340 341 342 343 344 345 345 343 340 338 338
304 299 292 294 293 295 304 305 306 304 306 319 320 312 314 329 334 336 343 342 344 345 345 344 345 345 345 346 346 346 344 343 343 340 342 339 338 337 339 341 342 342 343 343 342 340 338 336 335
307 292 288 292 294 298 304 303 308 310 309 318 319 319 325 327 329 332 335 338 338 340 343 342 342 342 343 343 343 344 343 341 340 339 337 337 337 337 338 338 339 342 341 340 339 337 335 332 331
297 290 290 297 299 299 303 303 305 306 309 314 319 327 327 326 324 322 321 331 334 335 338 340 341 341 341 341 343 345 344 341 339 339 339 339 339 339 338 336 337 340 339 339 338 336 334 331 331
295 289 295 297 300 304 304 303 306 305 304 313 316 323 325 323 322 321 320 322 330 336 333 337 337 340 341 340 341 342 345 344 340 337 337 337 337 338 337 338 338 339 334 337 337 336 335 331 332
290 295 296 299 302 303 302 306 305 306 307 312 322 324 323 321 321 323 322 322 325 329 330 333 336 335 337 339 339 339 341 343 339 337 336 335 334 335 334 334 335 335 335 333 333 334 333 332 332
291 293 297 300 300 303 305 302 303 305 310 310 322 324 322 321 322 324 325 323 327 328 329 331 331 333 334 336 338 338 339 341 341 338 338 336 334 333 334 333 333 333 333 333 331 332 333 333 333
294 295 296 299 300 302 301 301 303 306 309 310 321 321 322 320 321 322 321 322 328 329 329 331 331 332 333 333 335 337 338 339 341 340 339 337 335 334 333 334 333 332 332 332 332 331 332 332 332
294 288 295 296 299 299 302 295 295 306 307 310 318 320 319 321 322 320 321 323 330 328 328 329 330 332 333 334 332 334 337 338 337 340 340 337 335 334 334 334 334 333 333 331 331 330 328 329 329
290 291 287 295 298 296 297 290 300 305 305 309 313 319 321 323 322 322 323 328 331 329 326 326 328 332 333 335 333 333 334 337 336 336 337 339 337 335 335 334 334 334 332 331 329 325 325 327 328
290 284 287 291 297 296 292 290 299 303 304 303 305 309 319 323 326 326 328 325 326 326 324 325 329 331 334 335 335 335 335 334 335 336 334 335 338 336 334 333 333 331 326 327 325 324 327 328 331
283 285 288 289 294 294 290 288 292 302 302 302 303 306 313 320 321 325 325 325 324 325 325 326 327 329 333 337 336 337 337 336 335 334 333 333 335 335 333 332 331 329 325 324 324 325 327 329 331
289 288 287 292 296 293 291 289 294 301 301 302 303 305 308 313 317 323 325 326 324 325 324 324 326 328 332 332 331 332 331 334 336 337 335 333 333 333 332 331 329 329 329 328 327 329 329 331 333
290 289 288 292 295 292 290 288 294 300 300 302 303 303 305 307 310 316 324 324 323 323 325 324 325 327 332 332 332 331 333 335 337 338 336 335 333 333 332 331 330 330 330 331 332 331 331 331 330
289 288 288 288 293 293 291 287 293 299 301 303 304 304 304 305 307 310 317 322 326 323 324 325 325 326 331 333 332 331 333 330 331 334 334 334 333 332 333 331 331 332 331 330 329 328 329 328 326
287 293 292 290 289 285 293 282 289 295 297 301 303 303 302 304 305 307 309 313 319 326 327 326 327 327 330 333 331 329 325 326 328 329 329 328 329 330 331 330 330 327 325 325 322 321 323 325 324
290 295 293 292 290 289 288 285 288 293 293 297 302 303 303 303 305 306 307 309 310 314 322 327 329 329 330 331 331 329 328 328 327 326 324 323 324 325 327 328 325 322 320 318 318 316 316 318 318
296 293 291 291 289 282 287 285 286 290 293 296 301 302 304 304 305 306 308 309 309 310 310 310 322 326 328 330 330 329 328 327 326 326 324 321 318 319 319 320 321 320 316 315 313 312 313 314 314
293 288 281 279 278 279 287 285 287 291 291 294 300 299 301 303 303 305 306 307 308 309 309 308 308 311 320 327 327 327 327 328 326 325 324 318 316 314 313 313 313 311 311 311 310 309 309 309 310
289 287 281 275 276 280 288 283 287 290 292 294 295 295 298 299 300 301 302 304 304 305 306 306 307 309 316 321 323 325 324 324 323 323 322 321 318 315 313 311 309 309 308 307 307 307 307 308 309
289 284 287 281 281 281 282 285 289 291 292 293 293 294 294 295 296 298 301 302 303 305 306 307 307 310 312 316 317 317 317 318 318 319 319 318 317 314 310 307 306 306 306 305 305 304 304 305 306
291 291 282 282 275 274 279 280 281 286 289 291 293 293 294 295 296 297 298 301 303 304 305 306 307 308 309 309 309 309 312 313 315 315 313 311 309 308 306 304 303 303 302 302 303 303 303 303 304
287 285 285 284 280 277 276 280 287 287 289 291 292 294 295 296 296 297 298 299 301 303 304 305 306 306 307 307 307 307 307 308 309 310 309 306 306 304 303 302 302 301 299 299 300 300 300 301 301
289 286 283 280 279 277 278 280 288 287 290 292 293 294 296 297 297 297 297 298 299 300 302 303 304 305 305 305 306 305 304 304 304 304 304 304 303 303 302 301 300 299 299 299 299 298 298 299 299

GFSSGP_sfc_thetae_096.txt.gz
Theta_e
331 332 333 324 306 305 300 302 310 309 312 320 319 317 319 323 316 315 342 344 345 348 350 351 353 353 353 352 352 352 352 355 355 355 357 355 353 352 349 347 346 348 348 349 350 349 345 345 344
330 328 326 318 302 296 298 306 305 309 315 320 320 319 317 319 332 334 339 344 346 348 350 350 353 353 353 351 351 352 352 355 354 355 355 354 353 351 348 346 347 349 350 348 346 345 346 346 345
324 326 315 306 302 297 297 305 307 311 315 319 318 319 317 321 333 337 345 347 347 348 350 349 353 353 352 350 350 350 352 354 354 353 352 352 352 350 347 349 349 347 349 348 348 346 346 345 342
321 320 315 302 296 301 303 306 308 309 314 318 319 313 320 331 333 342 347 347 348 348 349 351 352 352 351 352 351 350 351 353 353 352 352 352 351 347 346 349 347 347 349 348 346 346 346 344 341
320 313 300 297 297 301 306 309 309 307 310 316 318 313 315 332 336 344 346 347 345 347 348 350 352 353 352 351 350 349 350 350 351 351 350 350 348 346 346 346 347 347 348 347 345 346 346 344 342
307 307 295 292 295 300 305 310 309 308 310 312 316 315 318 329 330 341 346 346 347 346 347 349 348 350 351 349 348 348 349 349 349 350 350 348 347 345 344 345 345 346 347 346 345 344 343 343 342
303 300 294 294 294 297 302 310 308 308 309 310 319 313 319 323 327 339 342 346 346 347 346 347 348 347 347 347 345 346 347 347 348 348 347 346 345 341 344 344 345 346 346 346 345 343 341 340 340
305 301 294 295 293 294 302 306 310 310 308 315 321 313 315 324 329 337 332 343 345 345 345 345 345 342 342 347 344 343 344 344 345 344 342 339 338 339 343 342 344 346 345 345 343 341 338 336 335
307 294 291 293 294 296 303 302 309 313 311 312 317 321 324 330 333 329 326 327 341 343 344 346 343 341 340 344 344 342 342 341 340 339 336 336 338 338 339 338 340 343 344 342 340 338 335 333 333
298 291 291 297 298 298 301 303 305 307 308 309 313 324 330 332 329 324 321 321 322 337 340 342 341 340 343 342 345 342 338 339 338 340 337 337 338 338 338 337 338 342 341 340 338 336 334 330 331
296 291 295 297 299 301 301 303 307 306 304 309 310 316 326 328 325 321 321 321 323 335 336 338 338 338 339 342 345 344 340 336 335 338 339 338 337 338 338 339 338 338 334 335 335 334 332 331 333
291 294 295 297 299 300 298 304 303 306 307 312 315 317 326 325 324 322 319 320 322 324 335 339 338 336 336 342 343 344 343 340 338 334 334 335 334 334 334 334 335 334 333 332 332 331 331 331 333
292 293 295 297 297 299 302 301 303 305 311 313 314 316 319 324 320 321 321 322 324 324 332 338 340 338 338 336 338 342 344 341 340 340 336 334 332 331 332 332 333 333 334 333 332 334 334 333 334
294 294 294 296 296 299 298 300 303 306 311 312 313 313 316 322 322 319 321 321 323 326 330 333 339 339 339 337 337 336 342 344 342 340 340 339 337 334 335 335 335 335 335 334 334 335 335 335 335
296 291 294 295 296 297 300 297 299 306 309 308 311 312 316 321 321 321 320 321 324 327 330 330 334 337 337 337 337 337 336 339 342 342 343 341 339 338 335 337 337 336 335 334 335 334 334 333 334
288 291 286 294 296 298 299 291 299 306 305 306 310 312 316 319 322 323 323 324 326 330 329 330 332 334 338 338 337 337 338 337 337 342 344 343 340 339 338 338 338 337 336 335 333 332 329 331 333
288 285 286 291 298 298 297 293 300 301 301 301 309 312 316 317 322 324 326 326 331 329 329 327 329 329 334 339 337 337 339 340 339 338 338 341 342 340 337 337 339 338 336 334 333 330 329 330 333
284 287 289 289 295 296 294 294 298 299 300 300 309 312 315 317 320 324 324 329 329 329 328 328 328 329 333 338 339 337 336 337 339 340 338 337 340 341 338 337 338 337 335 331 331 329 331 333 335
286 289 288 292 297 295 294 294 295 298 300 297 308 311 316 316 322 325 328 328 328 327 326 327 328 330 334 337 335 335 335 337 337 337 337 338 337 338 337 337 337 336 333 331 331 331 332 332 335
289 289 289 292 295 294 293 292 297 298 298 297 307 309 314 315 315 316 323 323 324 324 324 325 326 328 332 334 334 334 335 337 339 340 340 339 337 337 335 335 335 334 333 333 333 334 333 332 335
291 289 289 289 293 294 293 290 290 295 297 299 306 307 311 314 312 314 317 322 322 322 324 326 326 328 329 333 334 335 336 337 335 336 338 340 338 337 336 334 333 334 336 334 333 331 330 330 332
288 294 293 290 290 287 294 282 288 292 298 304 305 306 307 311 314 314 315 322 323 323 326 327 327 327 329 334 333 331 330 328 331 333 332 330 334 334 332 333 331 330 330 329 328 327 328 331 327
290 296 294 292 290 291 290 286 288 295 297 301 305 306 306 308 310 311 313 320 324 325 326 327 328 328 329 331 331 331 327 327 329 329 326 325 325 328 329 330 328 325 323 323 321 321 321 321 320
298 295 294 294 292 285 288 287 286 289 292 298 303 305 307 306 307 309 310 312 314 317 320 328 329 329 330 329 330 328 327 328 327 328 326 325 324 323 324 325 325 324 322 320 320 321 317 315 317
294 292 284 282 283 281 288 287 287 291 294 296 300 304 307 308 306 307 309 310 311 311 312 312 316 325 329 330 331 331 330 329 328 328 328 325 321 320 322 323 324 323 320 318 318 316 315 315 314
290 290 285 278 280 283 290 284 286 295 297 298 301 300 304 306 307 304 305 307 309 309 310 311 312 312 316 325 329 329 330 331 330 330 329 326 323 324 322 321 321 317 317 316 316 314 313 312 312
291 288 291 286 289 285 287 289 295 295 295 295 295 298 299 300 302 303 306 307 309 311 311 312 311 313 316 321 325 326 329 328 328 328 328 325 324 323 321 319 316 311 310 311 312 310 310 311 311
293 294 287 289 281 279 283 286 287 292 294 296 296 297 298 300 301 303 305 306 308 310 311 312 312 313 315 316 318 319 322 323 324 325 324 322 321 319 316 313 312 309 309 309 308 308 308 308 308
291 290 289 289 286 283 281 284 291 292 294 295 297 299 300 301 301 303 304 306 307 309 310 311 311 311 312 313 314 314 314 317 319 321 321 318 315 312 310 308 307 306 305 305 305 305 305 305 305
293 290 289 288 283 283 287 285 293 294 296 298 297 299 301 301 301 301 302 303 304 306 308 309 310 310 311 311 313 312 311 312 314 315 316 314 313 310 307 306 305 304 303 303 303 302 303 303 302

GFSSGP_sfc_thetae_099.txt.gz
Theta_e
332 332 330 325 307 305 300 302 308 307 309 318 322 319 318 321 318 315 341 343 346 349 351 352 354 353 353 352 354 354 354 357 356 356 356 354 353 352 349 350 352 350 350 351 347 345 345 344 343
329 326 325 315 302 296 297 304 305 308 313 318 321 320 320 319 331 334 338 344 345 349 351 348 353 353 353 352 353 353 354 354 355 356 356 355 352 350 348 349 350 351 351 350 347 346 345 344 340
326 324 313 306 301 297 297 305 306 310 314 315 316 323 321 321 332 335 344 346 346 348 349 349 353 353 353 352 352 352 353 355 354 354 354 353 352 349 347 349 351 350 348 346 347 346 345 342 338
318 316 313 301 296 301 302 305 308 309 313 315 317 315 323 331 331 340 345 346 345 347 349 350 353 353 353 352 351 352 354 353 353 353 353 352 352 349 349 348 349 347 349 348 346 346 344 340 339
317 311 300 296 296 302 305 307 308 307 309 311 314 313 317 328 334 338 345 345 344 346 347 350 352 352 352 351 351 352 354 353 353 352 351 352 351 348 349 347 347 348 348 346 346 346 345 342 340
306 306 295 292 295 300 303 306 307 307 309 310 311 314 317 328 332 340 346 345 345 345 348 348 348 350 351 350 350 351 353 352 351 351 351 351 349 347 344 344 347 348 347 345 346 346 345 343 341
302 300 293 294 294 297 301 306 304 306 307 308 313 310 317 324 333 342 343 344 344 345 346 346 348 347 347 348 348 349 350 350 349 350 349 347 345 346 346 346 347 349 348 345 344 343 342 342 341
304 300 294 295 294 294 301 303 306 306 306 314 314 307 312 323 333 337 334 335 334 332 346 345 346 345 345 344 345 345 346 346 346 346 343 341 339 342 344 344 345 347 348 346 343 341 340 338 337
305 294 291 292 294 296 302 300 305 309 307 310 312 313 318 329 332 330 326 326 328 328 329 344 344 342 339 337 340 342 342 342 342 340 336 335 337 340 339 339 341 345 346 345 342 339 337 336 335
297 292 292 297 298 297 300 300 302 302 304 306 309 315 318 330 329 324 322 320 322 323 325 326 342 337 337 335 337 336 339 339 340 339 336 335 336 338 338 337 339 342 342 342 340 337 334 331 330
297 292 295 296 298 299 298 300 303 301 300 306 306 311 320 328 327 325 324 324 322 325 326 324 339 337 337 339 337 334 334 334 336 336 337 335 334 336 338 338 338 339 335 336 336 334 330 329 330
291 295 296 296 298 297 297 300 300 302 303 309 310 313 317 321 323 325 322 323 325 325 325 328 338 338 339 341 339 334 332 333 335 337 335 335 335 335 335 334 335 334 333 332 332 331 330 330 331
293 294 296 297 297 297 298 296 299 300 306 310 311 313 316 319 324 324 326 327 325 324 325 325 335 334 339 341 343 338 333 332 332 335 335 334 333 332 333 332 333 333 332 331 330 329 329 328 330
296 296 296 297 296 296 294 295 297 300 306 307 311 313 313 316 320 324 324 324 326 325 325 326 336 334 334 337 339 342 337 335 335 333 332 331 331 331 331 331 331 332 333 332 332 331 332 332 332
297 292 294 295 296 294 296 291 293 300 304 305 309 312 314 316 322 320 323 323 323 325 325 326 330 337 335 334 336 340 341 339 336 338 336 335 334 333 333 334 335 334 334 332 333 332 333 332 333
291 292 286 293 294 296 295 287 295 301 302 304 307 310 312 314 319 322 322 323 324 325 325 329 333 333 337 336 335 334 337 341 341 339 339 338 337 336 335 337 336 336 335 334 332 331 330 329 331
290 284 286 288 297 295 293 289 297 302 304 303 306 309 312 313 317 322 324 323 324 327 327 329 332 332 332 337 336 336 335 336 339 341 342 341 339 338 338 338 338 337 335 334 333 330 328 327 330
285 286 289 289 294 294 292 292 299 302 302 302 305 310 309 312 317 321 323 325 326 328 329 330 330 329 329 335 337 336 337 337 337 337 338 340 340 340 339 338 337 337 336 333 332 330 328 330 330
290 288 286 291 293 292 292 293 296 300 301 301 303 308 309 312 318 322 323 326 327 330 328 327 325 327 330 334 334 333 332 335 337 338 337 336 338 340 339 338 337 337 335 333 331 330 329 331 333
290 288 288 293 296 293 293 293 297 299 299 301 300 302 311 314 314 315 321 325 326 326 325 325 325 327 329 332 334 334 336 338 337 338 338 339 338 339 339 338 337 336 335 334 332 331 332 334 333
289 288 290 289 293 296 293 291 294 298 300 301 302 303 312 314 313 313 317 322 323 323 325 324 326 328 330 331 332 334 335 335 334 336 337 338 339 339 339 337 336 336 335 331 335 335 332 330 332
287 294 292 289 289 285 294 283 289 292 297 300 300 303 312 312 312 312 315 320 321 321 325 326 326 327 328 330 328 329 329 327 331 335 335 335 336 335 336 336 335 334 333 329 329 329 330 330 326
291 295 292 290 289 289 290 287 288 291 294 298 302 306 310 312 312 312 314 318 319 320 321 323 326 327 327 327 329 329 328 328 330 332 331 331 332 333 334 334 333 330 326 324 323 322 321 321 318
295 294 293 293 291 284 288 286 286 288 289 299 302 303 307 310 312 314 315 317 320 322 323 324 325 326 328 329 328 328 324 325 324 327 328 328 326 329 329 330 329 327 324 323 322 322 322 320 319
294 289 283 282 282 282 289 287 285 291 293 300 302 303 305 308 308 308 310 311 314 317 317 319 322 326 328 330 328 328 326 325 324 325 325 326 324 322 324 326 325 324 324 324 324 322 320 317 316
292 290 285 278 281 283 290 283 286 296 299 301 300 303 305 305 305 305 307 311 310 311 313 313 312 314 319 324 329 331 331 327 326 326 327 328 326 323 326 326 326 325 324 323 322 320 318 317 316
292 289 293 288 290 285 286 288 293 297 295 297 296 298 300 302 303 304 306 308 309 311 312 313 313 314 315 319 324 327 329 329 330 330 331 331 328 325 324 325 324 322 321 320 318 316 313 312 313
294 295 287 290 282 279 284 285 286 291 292 295 296 296 299 301 303 304 306 308 310 311 312 313 313 314 316 318 321 323 325 327 328 329 327 324 324 323 322 321 317 314 313 313 312 310 310 310 310
292 290 291 290 287 283 281 283 293 294 296 295 297 299 300 301 302 304 305 307 308 310 311 311 312 312 313 314 315 316 316 319 321 323 325 323 322 318 316 314 313 311 310 309 307 307 307 307 307
294 291 291 288 285 289 287 284 296 298 298 299 298 300 301 301 302 302 303 304 304 305 307 309 310 310 311 312 313 313 313 314 316 318 320 320 317 315 312 310 309 309 308 306 305 303 304 304 304

GFSSGP_sfc_thetae_102.txt.gz
Theta_e
329 329 329 321 304 302 296 299 305 303 304 309 313 314 314 316 318 313 337 339 346 347 350 352 355 354 353 353 355 354 354 358 357 356 356 354 354 352 352 353 352 351 351 347 346 345 345 345 344
326 324 320 312 298 292 294 301 301 305 308 310 313 317 316 314 329 334 335 341 347 348 349 349 354 354 353 354 354 355 353 357 356 355 356 356 353 351 353 353 353 353 352 347 345 344 343 341 342
321 322 310 302 297 293 294 301 302 306 308 309 311 318 318 317 330 334 340 342 347 347 348 349 353 353 353 353 353 354 355 355 355 355 355 355 354 350 351 352 352 352 350 348 346 345 342 339 338
315 312 309 297 293 297 299 302 306 305 307 309 311 313 322 326 329 337 342 342 344 346 346 349 352 353 353 353 353 354 355 354 354 353 353 352 353 350 352 351 350 348 348 348 346 343 340 339 339
313 308 297 293 293 298 302 304 306 303 304 306 309 309 316 325 334 340 340 342 343 345 347 348 352 353 353 352 352 353 354 354 352 353 352 351 352 351 350 348 345 348 349 347 345 343 342 340 339
303 303 292 289 293 297 300 303 303 302 304 305 305 306 311 326 327 336 342 341 343 344 346 347 349 351 351 352 351 351 353 353 352 353 352 351 351 350 345 343 342 349 347 346 346 345 343 341 340
299 297 291 291 291 294 298 303 300 300 301 302 308 303 308 323 328 338 342 343 337 338 345 345 345 347 348 348 349 349 353 351 351 350 349 348 346 343 343 342 347 348 347 346 346 345 344 342 340
300 297 291 292 291 292 299 300 302 300 300 307 309 302 302 319 333 337 335 335 334 333 332 330 333 343 342 343 346 345 348 348 348 346 345 342 340 341 343 342 345 346 347 346 345 343 341 340 340
302 290 287 289 291 293 299 297 302 304 301 303 306 306 314 328 334 328 325 325 327 329 327 327 327 326 339 338 341 343 343 344 343 341 338 336 336 339 339 339 341 344 346 345 343 340 339 337 335
295 289 289 294 295 293 297 297 298 298 298 299 303 308 311 326 326 325 322 318 321 324 324 326 327 326 326 337 338 339 342 341 340 337 334 334 335 336 337 337 339 343 343 342 342 339 337 333 325
294 288 293 295 296 297 295 295 298 296 295 299 299 303 308 318 323 322 320 320 320 324 324 325 325 326 326 325 334 337 338 338 338 335 334 332 334 333 335 336 338 337 334 334 335 332 328 323 323
288 293 294 295 297 296 293 296 294 296 297 303 304 307 309 314 319 322 321 322 321 323 323 325 326 325 326 327 330 329 333 336 336 334 332 330 331 333 333 332 332 331 331 329 328 328 326 324 324
291 293 295 296 296 295 296 293 293 294 300 303 305 306 311 313 315 320 324 324 324 321 323 326 329 330 332 336 331 329 328 329 332 331 331 330 330 328 331 331 331 329 327 326 325 324 322 322 322
294 294 295 297 297 296 293 293 294 295 298 300 303 304 309 312 312 317 322 322 324 324 324 325 333 334 335 336 335 328 327 326 329 330 331 329 329 326 326 326 326 325 325 324 324 323 324 323 325
295 290 293 294 295 294 296 290 290 295 297 297 301 303 308 311 314 315 322 323 325 326 325 326 332 334 333 334 333 336 332 329 326 326 326 326 327 325 325 324 325 326 327 326 326 325 326 326 327
290 291 284 292 293 295 294 284 292 296 295 294 299 303 307 309 313 316 321 322 325 324 324 327 330 328 329 332 333 336 335 333 332 330 328 328 328 328 328 330 330 329 328 327 326 325 325 324 324
288 281 284 287 295 294 292 286 293 296 295 294 297 303 305 307 313 319 322 323 324 324 324 326 327 324 327 330 333 333 334 335 333 334 333 332 332 331 331 332 332 330 329 327 327 324 323 322 322
283 284 287 286 293 293 291 289 293 296 295 295 301 302 304 307 311 320 322 324 325 325 325 327 326 324 327 330 332 331 331 332 333 336 337 336 334 334 334 334 333 332 330 328 327 325 324 323 323
287 286 285 288 295 291 289 289 292 297 297 298 299 302 305 307 312 320 322 322 324 325 325 326 327 327 328 328 328 329 328 330 329 331 334 338 337 337 334 333 333 333 331 329 327 325 323 322 328
288 286 285 290 295 291 290 289 293 296 296 298 298 298 302 306 313 316 320 321 323 323 324 325 324 326 328 328 329 329 331 332 334 335 334 333 334 336 336 335 333 333 331 330 328 325 324 326 328
287 286 286 287 290 294 292 288 292 296 299 299 299 300 302 307 312 313 316 318 320 322 323 323 324 325 327 328 328 329 329 329 331 331 332 333 334 334 334 333 333 331 331 329 328 329 327 324 325
285 293 292 290 287 284 292 280 289 292 293 296 298 300 303 310 312 313 314 318 319 322 323 324 324 325 326 327 326 325 323 322 326 329 331 330 332 332 332 331 331 330 329 328 327 328 324 324 322
288 294 292 291 288 285 288 284 287 290 292 296 297 301 309 310 311 311 314 316 320 320 321 323 324 325 325 325 325 324 322 324 325 326 326 327 329 330 331 330 329 328 327 325 324 323 322 321 317
295 292 292 291 288 282 287 285 284 286 289 295 303 307 309 310 312 313 314 318 318 320 321 322 322 323 325 326 325 324 323 323 322 323 324 325 325 325 326 328 327 326 325 324 322 321 319 320 318
293 288 280 280 281 280 287 285 284 290 294 298 301 305 308 309 309 310 311 313 315 317 318 320 321 321 323 324 326 325 325 323 322 323 323 323 324 323 324 326 325 324 323 323 323 322 320 320 318
290 289 282 277 279 283 288 281 284 295 297 302 303 303 303 303 304 305 308 311 312 314 314 314 313 314 318 324 325 325 326 324 324 323 323 322 323 324 324 325 324 324 324 323 322 322 320 316 314
291 287 291 284 287 283 285 286 291 294 295 296 298 301 301 302 303 304 305 306 307 308 309 309 309 310 311 314 320 325 327 326 324 324 324 323 323 326 326 325 325 324 324 323 321 319 317 314 312
292 295 284 286 280 279 282 282 284 288 293 296 296 297 299 301 302 304 306 307 308 308 308 309 310 311 312 314 315 317 320 322 326 327 326 324 324 324 322 323 323 323 323 321 318 316 312 311 310
290 288 288 287 284 279 278 281 293 292 295 295 296 298 298 299 300 301 303 305 305 306 306 307 308 308 308 309 310 310 310 312 315 317 321 321 321 320 319 318 316 314 313 313 313 310 308 307 305
291 289 288 280 281 283 281 282 296 296 296 297 296 297 298 298 298 298 299 299 300 301 302 303 305 306 306 308 308 308 308 308 309 312 314 317 317 315 314 312 312 312 310 308 306 305 306 304 304

GFSSGP_sfc_thetae_105.txt.gz
Theta_e
326 324 323 313 300 297 292 298 303 301 301 304 307 304 312 315 315 307 334 344 347 347 351 352 355 355 354 353 353 354 357 358 356 356 355 354 353 352 353 351 352 352 350 347 346 346 347 345 344
321 322 313 306 294 288 291 298 298 301 305 307 305 312 314 318 330 331 332 343 346 348 350 351 355 355 353 353 353 353 355 358 357 356 356 355 353 353 353 352 352 350 347 345 345 344 344 345 344
319 318 305 299 292 289 290 297 300 304 304 304 305 315 316 320 332 332 337 345 347 347 349 350 354 354 353 354 354 353 354 357 356 355 356 355 354 354 353 354 353 351 348 347 344 342 340 340 338
311 306 304 293 290 296 297 300 303 302 305 305 307 310 319 325 330 337 340 346 345 346 346 351 353 354 353 354 354 354 353 356 356 355 354 353 354 353 352 353 351 350 349 347 344 340 339 338 337
307 303 293 290 291 294 297 301 302 300 300 301 302 310 314 327 338 339 338 344 343 342 346 349 353 354 354 353 353 354 355 353 355 354 353 352 352 352 352 351 348 349 348 345 342 340 340 339 338
298 299 288 288 291 295 296 299 298 298 299 300 299 302 312 324 335 337 339 340 344 344 345 347 350 352 352 353 352 353 353 354 353 353 353 352 352 351 351 348 348 348 347 345 343 342 341 340 338
295 292 287 287 288 290 295 299 296 297 296 298 299 297 304 319 330 337 337 337 337 339 339 333 340 347 348 350 350 351 351 352 351 350 351 349 348 348 347 344 348 348 347 347 345 343 342 341 339
295 293 287 288 289 290 296 297 298 296 296 300 301 295 298 316 335 333 333 332 332 330 329 330 329 327 331 342 345 346 347 348 348 347 345 344 341 341 342 341 344 347 348 347 346 344 343 342 340
299 287 284 287 288 291 296 294 299 300 297 298 298 299 313 329 329 326 324 325 326 327 328 328 328 328 327 330 341 343 343 344 343 343 339 337 338 337 337 337 341 344 345 345 344 342 341 339 336
292 285 287 292 292 290 294 294 294 294 294 295 298 301 320 327 324 321 320 319 321 322 324 326 327 327 327 328 328 337 342 341 342 341 338 337 337 337 336 336 339 342 343 342 342 340 338 333 325
292 287 292 293 295 296 294 294 295 292 291 294 295 299 304 311 321 320 319 319 321 321 322 324 325 327 326 326 326 329 338 339 338 336 335 335 335 335 337 337 338 339 336 336 336 333 328 323 322
287 292 293 294 296 294 292 294 292 293 293 297 299 302 303 309 313 318 318 319 320 321 321 323 325 326 325 326 324 325 335 337 336 335 334 333 331 334 334 335 336 335 332 330 329 327 324 322 321
289 291 294 295 296 295 295 292 292 293 296 297 299 300 302 308 311 313 321 321 320 320 321 322 324 324 325 325 326 330 335 337 336 335 333 333 332 333 331 330 332 329 329 327 326 325 323 321 320
292 293 293 294 294 295 294 294 292 293 296 296 298 298 299 307 307 311 318 320 321 321 321 324 325 325 327 326 328 330 333 336 336 334 333 329 332 331 330 330 330 329 327 327 325 322 320 320 320
294 289 292 292 294 293 296 290 290 295 295 295 296 297 299 307 309 310 315 320 322 322 322 323 326 329 330 331 333 332 329 332 333 333 332 331 330 329 328 329 328 327 324 322 321 320 322 322 323
288 288 281 291 293 295 293 283 292 294 293 293 295 296 297 305 307 310 315 321 323 323 323 325 330 331 330 332 332 332 329 328 331 329 329 330 329 325 325 325 324 324 324 324 323 323 322 322 323
285 275 280 286 294 293 292 286 292 295 293 292 293 294 296 304 307 309 316 318 322 323 324 325 328 327 329 329 331 331 331 329 328 327 326 326 326 325 328 327 328 327 325 324 324 323 322 321 320
278 279 284 284 290 292 290 290 294 295 294 292 293 295 299 303 304 309 318 321 323 323 325 325 326 325 328 328 328 332 331 331 332 329 329 329 329 328 331 330 330 328 327 325 325 322 322 320 320
285 284 283 287 292 291 290 290 292 294 295 293 293 296 298 302 309 310 318 321 322 323 323 323 325 323 324 323 325 327 327 329 329 332 332 332 332 332 331 332 331 330 328 326 326 324 322 320 324
287 285 284 288 292 291 289 289 292 293 294 294 295 298 297 302 307 312 316 319 321 322 323 323 324 324 325 326 328 327 328 328 330 330 332 335 333 334 333 332 330 330 329 327 326 323 323 322 325
288 286 284 285 289 291 289 287 289 293 296 295 296 298 299 300 306 309 314 317 320 320 322 324 325 326 326 326 327 327 327 329 328 330 328 330 333 334 335 333 332 331 330 328 327 325 324 323 322
285 291 291 290 287 282 290 278 287 290 291 295 294 295 298 302 309 309 312 314 317 320 322 323 324 325 325 326 325 324 322 322 324 326 328 329 331 332 332 332 331 330 328 326 326 327 325 324 320
288 293 290 290 289 285 286 283 287 291 289 292 293 295 303 308 310 311 312 315 319 321 322 323 324 324 325 325 325 323 321 323 324 325 324 325 326 328 328 328 328 328 326 325 324 323 322 322 321
295 291 290 290 288 281 287 285 284 286 289 292 295 300 307 309 310 312 314 316 316 321 321 322 322 322 323 325 324 323 322 322 322 323 324 324 324 324 326 326 326 326 325 324 322 322 320 320 318
292 288 279 279 280 280 287 284 284 288 294 295 301 304 308 310 310 310 312 313 316 317 318 320 320 319 321 323 323 324 323 323 321 321 322 323 322 322 323 325 324 324 324 324 322 320 319 319 317
289 289 281 275 279 282 287 280 282 291 302 302 303 303 303 303 305 308 311 311 312 314 314 315 314 313 316 319 322 324 324 323 323 323 323 323 323 322 323 323 324 324 323 323 323 322 321 319 317
290 287 291 284 286 281 283 285 289 293 296 299 300 301 300 302 303 304 306 307 308 309 310 311 311 312 312 314 320 322 325 325 324 324 323 322 322 324 323 323 324 324 324 324 323 322 320 317 315
290 294 284 284 277 277 281 282 282 287 292 296 296 298 300 302 304 305 306 306 307 307 307 308 309 309 310 312 314 315 321 324 325 324 323 323 322 321 322 324 324 324 324 324 322 320 319 316 313
288 287 289 286 284 280 277 281 289 292 293 293 295 297 299 300 300 301 302 303 303 304 305 305 306 306 307 308 308 308 308 311 313 315 321 322 322 322 321 322 322 322 322 323 321 320 315 314 312
290 289 287 279 281 281 279 282 295 295 295 295 295 296 296 297 296 297 298 298 298 299 299 300 302 303 304 306 306 306 306 307 308 310 313 315 315 316 317 317 316 316 315 315 316 312 312 312 310

GFSSGP_sfc_thetae_108.txt.gz
Theta_e
323 321 319 312 299 296 290 296 301 300 300 302 304 301 302 307 311 305 332 341 345 346 350 352 355 355 354 354 354 357 357 357 357 357 355 355 353 351 351 353 352 352 349 349 347 346 344 347 347
317 320 311 304 292 288 288 296 298 300 303 303 304 304 310 313 329 329 333 344 345 348 350 350 355 355 353 352 351 355 358 357 356 355 356 355 353 353 351 352 351 349 347 347 346 344 343 345 345
313 316 304 298 290 288 288 295 298 302 302 303 302 306 313 321 330 330 335 345 347 347 349 350 355 355 353 353 351 351 356 357 356 355 356 356 354 354 352 352 351 349 347 345 344 344 344 342 340
309 306 303 293 290 294 294 297 299 300 301 302 303 300 317 324 332 336 341 345 345 346 348 352 354 354 354 355 354 351 354 357 356 355 354 354 353 353 354 352 349 347 347 344 341 340 339 337 339
306 301 290 288 290 294 295 299 299 298 297 298 299 299 303 327 335 339 343 345 343 344 347 350 354 354 355 354 354 353 353 356 355 354 353 354 353 353 351 351 349 348 348 343 340 339 339 338 339
297 298 287 285 288 293 295 297 295 295 296 296 296 298 302 323 332 335 342 343 344 343 347 349 350 352 353 353 353 354 355 355 354 354 353 353 352 351 351 350 349 348 345 341 340 340 339 338 338
294 291 286 286 287 290 293 295 291 292 292 294 296 294 300 321 329 334 335 339 341 341 337 339 345 346 349 350 351 352 353 351 352 353 351 350 349 349 350 349 349 347 344 343 342 341 340 339 338
295 292 286 288 287 289 295 295 296 294 293 299 298 291 294 304 331 331 333 333 331 331 331 330 331 332 332 339 345 346 348 348 350 348 346 344 343 344 347 345 346 347 347 346 345 342 341 340 338
297 286 283 286 288 290 293 291 295 297 294 295 296 296 304 322 327 325 327 327 328 328 328 327 327 328 329 328 335 341 343 344 345 343 340 339 342 339 336 336 342 345 347 347 345 343 343 341 337
291 284 286 291 291 288 292 292 293 292 292 292 295 300 303 307 315 320 319 321 323 324 325 325 326 326 326 329 325 330 339 339 341 341 341 340 337 336 335 335 338 343 343 343 343 342 340 334 325
291 286 290 292 294 295 294 293 294 291 290 292 292 295 300 306 311 318 318 319 322 323 325 324 325 326 327 326 325 326 334 338 337 337 339 337 336 335 334 336 337 337 335 336 337 335 329 323 320
286 291 293 293 295 294 291 293 291 291 292 295 296 297 300 302 308 311 315 319 318 320 322 323 324 326 327 329 327 325 328 334 337 336 336 335 334 334 334 336 337 335 332 331 329 327 324 321 320
288 290 294 295 295 294 295 292 291 291 295 296 297 298 297 301 306 308 312 319 321 319 320 322 323 324 325 325 326 325 327 332 337 335 335 335 334 334 333 334 335 334 329 329 327 325 322 320 319
290 291 292 294 294 294 292 292 293 294 295 295 296 296 296 298 301 307 311 317 319 319 319 321 322 323 324 323 322 324 329 333 337 335 334 335 334 333 333 331 331 331 328 327 326 323 322 320 319
293 288 290 292 293 292 294 289 290 295 295 294 295 296 297 298 303 306 309 313 319 320 321 321 322 323 323 323 324 325 327 334 335 335 334 333 333 333 331 331 330 328 326 326 324 322 320 318 318
287 286 280 289 292 293 292 282 290 293 293 293 294 295 296 296 300 305 309 313 320 320 320 322 326 328 325 324 325 326 329 333 335 335 334 331 333 333 331 330 330 328 325 324 321 320 318 320 320
282 274 279 284 293 292 290 285 292 294 292 292 292 293 294 295 299 305 307 311 320 322 321 322 323 327 329 328 330 330 329 330 333 334 333 332 332 331 329 328 327 325 324 323 322 321 321 320 320
276 277 282 282 288 290 288 288 293 296 295 292 291 291 294 297 299 304 306 314 320 321 321 322 325 328 327 328 330 330 328 328 329 330 330 330 330 329 327 325 325 326 324 323 323 321 321 320 320
283 283 282 286 290 288 288 289 292 295 294 291 291 292 294 297 302 306 309 317 319 319 320 322 323 323 325 325 325 326 325 327 327 327 328 328 328 327 327 327 327 327 325 324 323 323 320 319 319
285 284 284 287 290 289 288 288 292 294 292 293 293 292 294 296 300 305 310 316 318 319 319 322 324 322 324 325 326 327 328 327 328 329 330 329 329 329 331 330 329 328 327 325 324 322 321 320 321
288 285 284 283 288 291 287 286 287 292 293 293 293 296 297 297 299 304 310 313 317 318 319 321 322 321 323 325 326 326 326 326 325 327 328 329 331 330 331 331 331 329 328 326 325 322 322 320 322
284 291 289 289 287 281 289 279 286 289 290 293 293 293 296 297 301 307 310 311 314 318 321 323 323 324 324 325 324 321 318 319 322 325 326 327 329 331 331 331 330 329 328 326 325 325 323 323 320
287 292 289 288 286 284 286 282 283 290 289 290 292 293 295 299 306 310 309 313 316 318 320 323 324 325 323 325 325 322 320 323 325 325 324 325 325 327 329 329 328 327 325 324 324 323 323 323 321
294 290 289 288 287 279 286 284 283 286 288 291 293 295 298 305 308 310 313 315 316 320 320 322 322 322 324 324 324 323 323 322 322 322 322 323 323 324 325 326 326 326 325 324 323 323 323 322 322
292 287 277 276 278 277 288 284 284 289 292 293 296 301 305 309 309 311 311 312 317 319 320 321 321 320 323 323 324 323 322 322 321 322 322 322 322 322 322 324 324 324 324 324 323 321 320 320 319
288 287 280 275 277 279 287 280 284 290 301 303 302 302 304 304 306 306 308 310 310 311 313 314 315 316 318 319 321 323 323 322 322 322 322 323 323 323 323 323 324 323 323 322 322 322 321 320 319
289 286 290 283 285 281 284 285 287 291 296 299 299 300 301 303 304 305 306 307 308 309 309 310 311 312 312 313 317 320 323 322 322 322 322 322 322 323 324 324 323 323 323 322 322 322 321 320 319
290 293 285 285 278 276 280 282 280 285 291 295 297 298 300 301 302 303 304 306 307 307 308 308 308 309 310 312 312 315 320 322 323 323 322 322 322 322 322 321 321 320 322 323 322 322 322 319 317
289 287 288 287 283 278 276 281 288 289 292 292 295 297 297 299 298 299 299 301 302 303 303 304 305 306 306 307 307 307 307 310 313 316 320 322 322 321 321 321 322 322 322 323 322 322 320 318 318
291 289 288 280 280 281 280 281 293 294 294 294 294 296 296 297 298 297 297 298 298 298 299 299 300 301 304 305 305 305 305 305 306 308 310 313 313 314 316 317 317 317 318 318 319 319 317 316 316

GFSSGP_sfc_thetae_111.txt.gz
Theta_e
321 318 319 310 297 295 288 293 299 298 298 300 302 300 301 301 301 302 331 341 344 346 350 351 355 355 357 358 358 357 357 357 356 354 352 352 349 350 353 353 352 350 351 350 348 345 345 345 345
312 317 310 303 290 285 284 294 297 301 302 302 302 301 302 306 327 328 333 341 344 348 350 350 354 355 354 355 356 357 356 355 356 356 354 354 351 352 353 353 352 351 349 347 345 345 346 346 343
313 314 303 297 289 286 286 294 297 300 301 301 300 301 306 315 329 329 334 343 344 346 349 349 354 355 354 352 354 356 357 356 355 354 355 355 353 353 353 352 352 349 349 343 345 345 345 344 339
307 306 301 291 290 292 292 295 298 298 300 300 300 297 305 326 329 333 342 344 344 345 346 352 354 354 354 353 352 354 355 355 356 354 353 354 352 353 352 352 349 347 347 345 344 344 342 339 341
305 299 289 287 289 293 294 298 296 295 295 296 297 296 299 318 334 339 340 342 343 344 346 350 354 354 355 354 353 352 354 355 355 354 353 353 353 353 352 350 348 347 345 342 342 340 337 339 340
297 296 285 282 286 292 294 296 294 293 293 295 294 294 297 314 326 333 341 340 342 344 347 349 351 353 354 354 354 352 354 355 354 353 354 353 353 351 351 348 348 346 343 340 339 338 338 340 340
294 290 285 284 286 289 293 295 290 291 290 292 295 292 297 303 323 333 335 337 340 341 343 344 347 349 350 351 352 352 352 354 353 352 352 350 350 349 350 348 347 345 342 341 340 339 339 339 339
294 291 284 285 285 287 293 293 294 292 290 296 295 290 292 301 327 331 333 334 334 335 335 334 334 337 340 342 346 347 350 349 350 348 348 344 343 344 348 346 346 346 344 344 343 341 340 340 339
295 285 282 285 288 289 291 290 294 296 292 293 295 294 300 303 318 324 326 327 330 332 331 329 329 329 329 333 335 340 343 344 344 343 341 338 342 343 342 341 342 344 345 345 343 342 342 340 337
289 283 284 290 289 287 291 291 293 292 291 290 293 297 299 302 305 313 318 322 324 326 327 326 326 326 327 328 325 330 339 338 339 341 339 341 340 340 338 337 339 344 344 344 344 344 342 336 326
289 285 289 291 293 294 292 291 294 290 289 291 291 292 296 300 302 306 311 317 323 325 327 324 326 325 325 325 324 328 333 336 338 336 338 338 338 334 332 336 338 339 336 337 338 336 330 324 320
285 290 292 293 293 293 290 292 290 290 291 294 295 296 296 298 299 303 305 310 318 322 324 325 324 324 324 325 324 324 330 332 336 337 336 334 334 334 331 333 334 335 335 333 330 327 325 322 320
287 289 293 294 294 293 294 291 291 291 295 297 297 297 295 297 299 303 304 308 318 319 323 323 324 324 324 324 323 324 323 331 332 337 336 335 334 333 333 333 335 334 334 332 330 325 323 320 318
289 290 291 293 293 293 291 291 291 292 295 295 296 295 294 296 297 300 303 307 316 319 319 323 323 324 324 323 323 323 326 330 334 335 336 335 335 334 333 333 332 333 332 329 329 324 322 320 318
292 286 289 290 292 291 293 288 288 293 294 294 295 296 297 296 298 298 304 306 311 318 319 319 322 323 322 322 322 321 324 331 334 334 335 335 336 334 333 331 331 331 330 328 327 323 321 319 319
286 284 280 288 291 293 291 282 290 293 292 292 294 296 296 296 297 300 303 305 309 316 319 320 323 322 322 322 322 323 323 325 333 333 334 334 335 334 333 331 331 329 328 326 325 322 320 317 316
281 273 278 283 291 291 289 284 290 293 292 291 293 293 294 295 296 298 302 303 306 316 319 319 321 323 323 323 323 323 323 324 328 334 333 332 333 334 332 331 330 328 326 324 323 320 319 318 318
275 276 280 281 286 289 286 286 291 294 293 292 293 292 292 293 296 299 302 305 307 315 320 320 321 322 326 327 327 328 327 327 328 333 331 333 332 332 331 330 329 327 326 323 320 319 320 319 319
283 283 282 285 289 288 286 286 289 293 293 292 292 290 291 293 298 301 302 305 310 314 318 319 321 323 325 326 325 325 327 326 325 332 332 332 332 331 329 328 327 326 326 325 323 321 319 319 318
286 284 283 286 289 288 287 286 291 293 292 293 292 290 291 294 296 300 302 306 311 315 318 319 322 323 325 324 322 323 325 327 326 327 329 330 331 328 326 327 326 325 325 323 323 322 320 319 319
286 285 285 285 288 290 288 284 286 291 293 293 292 292 294 296 296 298 301 306 311 314 317 319 322 321 323 323 323 324 326 325 325 325 326 327 329 328 328 328 328 326 326 324 323 323 321 317 319
283 289 289 288 286 280 287 277 282 287 289 291 291 292 293 294 298 300 304 307 312 315 317 319 321 320 321 322 322 322 320 320 322 324 326 326 328 328 329 329 329 327 327 324 324 324 321 322 319
286 291 289 288 286 284 285 281 282 287 287 289 291 292 295 296 298 301 306 309 312 315 317 319 320 321 321 322 323 322 318 321 323 324 323 324 325 326 327 328 328 328 328 326 324 323 322 322 320
293 290 289 288 286 279 282 283 276 285 289 291 292 294 297 297 303 307 309 311 311 313 315 317 319 320 323 323 323 323 320 321 321 322 322 322 322 323 325 325 324 324 324 322 322 322 322 322 321
291 288 275 274 275 276 287 284 282 289 291 295 293 298 303 304 305 309 310 310 313 313 316 318 320 320 323 323 323 324 321 322 322 321 321 321 321 321 322 324 324 323 323 323 323 321 321 321 321
288 287 280 273 272 277 287 280 284 291 299 301 302 302 303 304 305 306 307 309 310 312 317 319 319 319 319 320 322 323 323 322 322 322 322 322 321 322 323 323 323 323 323 322 322 321 320 319 320
289 286 291 283 284 281 283 285 288 290 295 298 299 300 301 302 302 304 306 307 308 309 310 312 313 313 314 316 320 321 322 321 321 322 322 322 322 323 322 323 322 322 322 322 321 321 321 320 320
290 293 284 284 277 277 281 282 280 284 288 295 296 297 298 299 299 300 301 302 304 305 306 308 309 309 310 311 312 313 316 320 322 322 321 321 321 322 322 322 322 321 321 321 322 322 321 320 320
289 287 289 288 282 278 277 280 287 286 289 293 294 296 296 296 296 297 298 299 300 301 302 303 305 306 306 306 307 306 307 311 313 315 316 319 320 320 320 321 321 320 320 321 321 321 321 320 320
292 289 288 280 280 279 280 281 291 292 292 294 293 295 295 296 296 296 297 298 298 299 299 299 300 302 304 304 304 303 304 304 304 305 306 308 310 311 311 312 315 316 317 317 318 318 318 319 318

GFSSGP_sfc_thetae_114.txt.gz
Theta_e
317 317 317 308 297 292 286 291 296 296 298 298 299 299 298 299 300 298 328 340 342 345 350 352 356 358 358 357 357 357 357 356 354 353 351 351 350 352 352 349 349 350 351 348 345 345 343 346 344
310 315 309 301 289 282 282 291 296 299 301 300 299 298 299 302 315 327 330 340 344 347 349 349 355 357 358 358 357 355 357 356 355 351 353 351 349 352 353 351 351 351 351 349 345 345 345 345 343
312 313 302 295 288 283 283 292 296 298 299 299 298 299 301 311 327 327 333 341 345 345 347 348 355 356 356 357 356 355 356 355 355 354 355 353 351 353 353 352 352 351 349 346 347 346 345 341 341
307 305 300 290 287 290 289 293 296 296 298 298 297 295 301 318 321 332 338 342 343 342 345 350 354 355 354 355 357 356 355 354 354 354 352 354 354 354 352 351 350 348 346 345 346 346 343 340 342
304 297 288 285 287 291 292 296 295 294 294 294 295 295 296 309 319 331 336 342 341 344 343 349 354 354 354 353 355 356 356 356 355 354 353 352 353 352 351 350 349 348 346 344 345 344 339 341 341
296 294 282 281 285 291 293 296 293 292 291 294 292 293 296 305 314 327 334 338 342 344 347 348 351 353 354 353 352 354 356 356 355 354 354 353 353 351 351 348 347 345 344 343 343 340 339 341 341
293 288 283 283 285 288 291 294 292 291 289 291 292 290 295 300 304 328 333 335 338 342 343 343 346 348 349 351 352 350 353 354 354 353 353 350 348 349 350 348 346 344 342 341 340 339 340 340 340
295 289 284 284 285 286 290 292 292 290 289 295 293 289 291 298 304 319 329 332 332 335 337 337 340 343 342 343 348 348 349 350 351 350 348 345 343 345 348 345 345 345 343 343 342 341 340 341 340
294 285 281 284 287 287 290 290 293 295 291 292 293 292 299 300 305 310 319 325 330 331 332 332 334 337 338 337 340 343 346 346 345 344 341 339 342 343 341 341 342 343 343 343 342 342 342 340 337
288 282 283 288 288 286 290 290 291 291 290 289 292 296 297 299 300 301 306 315 321 327 329 329 329 329 331 331 332 336 340 339 340 340 339 340 340 341 342 338 339 343 343 343 343 343 342 335 325
288 283 288 290 292 292 290 289 292 289 287 290 290 292 295 297 298 299 301 308 317 322 328 328 327 326 326 325 325 330 335 337 337 337 337 337 339 338 339 339 339 339 336 338 339 338 331 325 322
283 290 291 291 293 292 290 291 290 290 289 293 294 295 295 295 296 298 299 302 306 317 323 328 327 325 324 326 323 325 330 337 338 337 337 334 332 334 333 335 334 336 337 334 332 332 326 322 319
286 288 292 293 293 292 293 290 290 290 295 296 296 297 295 295 296 298 300 302 305 315 322 325 326 323 325 324 325 323 322 328 335 338 338 335 333 334 332 331 331 331 333 332 331 327 324 320 318
288 290 290 292 292 292 290 290 290 291 293 294 295 295 294 295 296 297 299 300 303 314 319 323 325 324 325 323 322 321 321 324 330 334 336 337 335 334 332 332 333 330 331 330 330 326 322 320 318
290 285 288 289 290 290 292 287 287 292 292 292 294 295 296 296 296 296 299 300 302 308 317 320 324 325 323 324 323 322 322 326 328 331 335 335 334 333 333 333 333 333 333 330 327 326 321 319 318
284 283 279 286 290 292 290 282 289 291 290 290 292 295 295 296 296 298 299 300 303 307 314 319 323 324 324 324 322 322 321 322 328 334 332 334 335 335 333 332 332 333 332 330 328 325 321 318 317
281 273 278 282 290 290 287 283 290 292 292 291 293 293 294 296 296 297 299 300 302 303 308 316 319 321 321 321 320 320 321 320 321 330 333 334 334 335 333 332 332 331 330 329 327 324 322 318 317
275 276 281 280 285 288 286 285 290 292 292 291 292 293 294 294 295 297 298 300 301 302 308 314 319 320 321 321 321 322 323 322 322 325 331 333 333 334 334 333 331 330 328 326 325 323 320 319 318
284 283 282 285 288 287 285 285 288 292 292 291 292 293 293 294 297 297 299 300 301 304 308 315 317 319 323 323 322 322 323 324 325 325 330 331 332 332 331 331 330 329 327 325 324 322 321 318 317
284 283 280 285 288 286 286 286 290 292 292 292 292 292 292 293 294 297 299 301 302 304 308 314 318 320 322 323 323 325 325 326 326 326 329 331 331 331 330 329 326 327 326 325 323 322 319 319 318
282 281 281 283 287 288 287 282 284 289 292 292 293 292 292 292 293 297 299 299 301 304 308 314 318 321 323 324 325 325 325 324 324 325 326 329 331 330 328 326 326 325 326 324 324 322 321 317 317
280 287 287 287 286 281 288 277 282 286 288 290 291 291 292 294 296 297 299 300 302 306 310 315 319 322 322 322 323 323 319 319 321 325 326 326 329 329 325 324 323 324 325 324 324 324 322 320 317
285 289 288 287 286 284 284 281 281 287 286 290 293 293 293 295 297 298 300 303 307 310 312 316 319 320 319 322 323 321 317 318 319 321 324 323 325 327 327 325 324 324 326 325 325 322 321 321 319
291 288 288 286 287 278 281 282 279 286 288 290 294 295 298 299 299 300 305 308 309 309 314 315 318 320 319 320 320 319 318 318 319 320 322 322 323 325 327 327 328 328 327 326 324 322 321 321 321
289 287 274 272 276 274 287 284 284 289 291 296 297 300 303 304 304 305 306 307 308 308 313 315 317 318 320 319 319 321 319 317 318 320 322 321 321 322 323 324 323 323 323 322 322 321 321 320 320
288 287 279 271 272 277 286 278 284 292 294 300 301 301 302 302 301 304 305 309 310 311 311 315 316 318 320 321 321 322 323 321 322 322 322 322 321 322 323 323 323 323 322 322 322 321 320 320 320
288 286 290 283 283 280 282 285 290 291 291 296 297 298 298 298 299 299 300 305 307 308 312 315 314 315 317 320 321 321 322 321 321 322 323 321 321 322 322 322 322 322 322 322 321 320 320 320 320
290 293 284 284 277 276 281 281 280 284 286 291 294 294 295 297 297 298 299 300 303 304 307 308 309 310 311 311 312 313 316 320 321 321 321 321 321 321 322 321 321 321 321 321 320 320 321 320 321
289 288 289 288 283 278 277 279 286 285 288 289 293 294 294 295 296 297 298 300 301 302 302 304 306 305 305 306 306 306 306 308 309 310 312 314 315 316 317 318 320 320 319 319 319 319 319 320 320
291 288 288 280 280 280 280 281 292 291 293 293 293 294 295 295 295 296 297 298 298 299 300 300 301 301 302 302 302 302 302 303 303 303 304 305 306 307 307 307 308 309 311 313 313 313 314 315 315

GFSSGP_sfc_thetae_117.txt.gz
Theta_e
317 320 320 312 301 298 292 294 303 301 303 304 304 303 304 305 304 305 336 342 346 348 354 354 358 357 358 357 358 357 357 356 356 355 353 351 349 350 350 348 348 351 347 346 347 347 345 346 344
315 317 315 304 295 288 288 297 299 303 304 304 303 303 304 305 323 331 336 342 346 350 353 352 358 358 358 357 356 356 356 356 354 354 353 350 351 352 350 350 351 352 351 349 348 344 344 344 344
315 314 308 299 292 288 288 294 300 302 302 302 301 303 306 310 318 329 336 342 347 350 352 352 356 357 357 357 356 356 356 355 354 352 354 353 353 353 352 353 352 352 350 348 346 343 345 342 341
312 309 304 296 290 293 292 298 300 300 302 301 299 299 308 309 314 325 335 345 348 349 351 352 355 355 356 356 356 356 356 356 355 354 354 353 353 353 353 351 351 350 348 348 347 345 342 343 343
306 300 293 290 290 295 298 300 300 298 299 299 298 298 300 306 308 324 334 342 346 348 350 351 354 355 354 356 356 356 356 356 355 355 353 354 354 351 352 351 349 348 347 348 346 344 341 342 343
299 296 286 285 288 293 297 300 299 298 298 299 297 298 300 306 307 317 335 335 345 346 349 350 350 352 353 352 353 354 355 355 355 354 354 354 354 351 350 350 348 347 346 346 345 342 341 342 342
296 290 286 285 287 291 294 296 297 297 295 297 298 296 301 304 307 316 331 336 337 344 346 349 350 349 350 351 350 352 353 353 353 352 352 351 350 350 349 349 348 347 345 345 345 341 342 342 341
298 293 288 288 287 288 293 295 295 295 295 298 299 296 298 303 306 312 320 332 335 335 338 343 348 349 350 350 347 347 348 349 350 350 347 346 343 344 347 345 346 346 345 345 343 342 343 342 341
298 288 285 287 288 290 293 293 296 298 296 296 298 297 302 302 306 308 310 315 328 334 334 334 338 345 347 347 346 343 344 345 346 346 342 342 348 347 346 341 342 344 343 343 342 342 343 341 338
292 285 286 291 292 290 293 293 294 294 293 294 296 300 302 301 302 304 306 308 312 320 331 332 332 335 340 342 344 346 347 348 350 350 350 349 348 347 345 339 339 343 342 342 343 342 342 337 335
291 286 289 291 293 294 292 291 294 292 290 293 294 297 298 300 301 302 304 306 308 314 324 332 331 330 332 335 338 342 344 344 347 347 346 347 347 346 346 345 343 342 336 339 340 340 338 336 333
287 291 292 292 294 293 291 293 292 292 293 296 297 297 298 298 299 301 303 305 308 311 315 327 332 330 331 331 332 337 338 343 344 344 345 344 344 344 343 343 342 342 341 339 340 339 338 335 330
288 289 292 294 293 293 293 291 291 292 296 297 297 298 297 299 300 301 302 303 306 308 314 324 331 332 331 330 330 329 331 339 343 344 344 342 341 342 341 341 339 341 341 338 338 338 337 332 327
290 291 291 292 292 293 291 291 291 293 296 295 296 297 298 298 299 301 301 303 303 306 312 322 328 331 330 330 330 328 327 330 334 341 343 342 341 340 339 338 336 339 340 338 337 336 334 330 328
291 287 289 290 292 290 293 288 289 295 294 294 295 296 298 299 300 299 302 302 304 306 310 317 325 329 328 329 330 328 327 328 331 333 337 339 336 337 337 337 338 337 339 336 334 336 333 329 327
286 285 282 288 291 293 291 285 291 294 293 293 295 296 297 299 300 301 302 303 305 306 308 316 323 328 328 329 329 329 328 329 331 334 334 335 337 336 335 335 337 338 334 336 331 330 331 326 325
283 279 281 284 290 290 289 286 291 295 294 293 295 296 297 298 299 300 302 303 304 305 307 311 318 323 327 328 329 328 328 327 327 330 334 334 335 338 336 335 336 337 334 335 332 327 329 326 325
279 279 282 282 287 288 287 286 291 293 293 293 294 295 296 297 299 302 302 303 303 305 306 309 314 319 324 327 327 327 326 327 327 326 330 333 335 336 336 337 335 335 335 332 331 327 326 326 325
284 282 281 284 289 287 286 287 290 293 294 293 294 295 296 297 300 302 302 303 303 304 305 306 310 317 322 323 322 323 323 326 327 327 328 330 333 334 336 336 334 333 331 330 329 326 324 323 326
284 282 281 285 288 287 287 287 291 293 293 294 294 295 295 296 298 300 301 302 303 304 305 307 311 316 321 325 326 327 326 327 328 329 328 330 332 333 333 333 332 331 330 328 326 325 322 323 323
283 281 282 283 287 290 288 285 286 291 294 294 296 296 296 296 297 298 300 303 304 304 306 307 311 317 321 324 324 326 328 328 327 328 327 329 331 332 331 331 331 330 329 328 327 326 324 321 322
281 286 286 285 286 281 289 279 285 289 290 293 295 296 297 297 298 299 301 302 304 305 307 309 313 317 322 324 322 322 322 321 324 327 327 329 332 331 330 330 330 329 330 327 327 326 325 323 320
285 290 288 287 286 285 285 282 284 290 289 290 294 296 299 299 300 300 302 303 306 308 309 311 315 318 322 322 322 322 320 322 325 327 327 328 329 330 328 327 326 326 327 326 325 323 323 323 321
290 288 288 287 285 280 283 282 281 286 288 290 294 300 302 302 302 305 307 306 309 312 313 314 316 318 321 320 321 321 320 321 321 324 324 325 326 328 327 327 326 325 325 324 326 324 323 324 323
289 286 275 274 278 275 285 284 285 289 291 293 298 298 301 301 300 300 305 309 311 311 312 314 316 317 318 320 321 321 322 322 322 323 322 322 323 324 325 327 325 324 324 324 324 323 322 323 322
288 287 278 272 274 277 286 279 284 291 293 295 297 297 298 300 299 299 300 309 309 310 312 313 315 317 319 320 321 323 323 323 323 324 324 325 324 324 326 325 324 324 324 324 323 323 322 321 322
288 285 290 284 284 280 282 285 290 291 290 293 294 295 295 297 297 298 301 304 305 308 310 314 316 318 320 321 322 321 322 323 321 322 324 322 322 323 323 323 323 323 323 322 322 321 321 321 321
291 293 285 285 276 274 281 281 281 284 286 290 292 293 294 296 296 297 299 300 301 304 306 307 308 309 310 308 312 311 309 315 318 318 320 320 321 321 321 322 322 322 322 322 321 320 320 320 320
289 287 288 288 285 278 277 278 287 286 289 290 292 294 294 295 295 296 298 299 300 301 302 302 303 303 304 304 304 304 304 306 306 307 308 310 310 311 312 312 313 315 317 318 320 320 319 319 319
292 289 288 282 282 282 281 281 293 293 293 293 293 294 295 295 295 296 297 297 298 299 299 300 300 300 301 302 301 302 302 303 302 302 303 304 303 304 305 306 306 306 307 308 309 310 310 311 311